[[{"header":{"parameterUnit":"m.s-1","parameterCategory":1,"la1":30.6,"la2":28.766,"lo1":-90.7593,"lo2":-88.6598,"dy":0.0162,"dx":0.0183,"nx":116,"ny":114,"refTime":"2024-05-26T12:00:00:Z","depth":0,"parameterNumber":2,"parameterNumberName":"U-component_of_WINDS"},"data":[0.0,0.0,0.0,0.0,0.0,0.0,0.0,0.0,0.0,0.0,0.0,0.0,0.0,0.0,0.0,0.0,0.0,0.0,0.0,0.0,0.0,0.0,0.0,0.0,0.0,0.0,0.0,0.0,0.0,0.0,0.0,0.0,0.0,0.0,0.0,0.0,0.0,0.0,0.0,0.0,0.0,0.0,0.0,0.0,0.0,0.0,0.0,0.0,0.0,0.0,0.0,0.0,0.0,0.0,0.0,0.0,0.0,0.0,0.0,0.0,0.0,0.0,0.0,0.0,0.0,0.0,0.0,0.0,0.0,0.0,0.0,0.0,0.0,0.0,0.0,0.0,0.0,0.0,0.0,0.0,0.0,0.0,0.0,0.0,0.0,0.0,0.0,0.0,0.0,0.0,0.0,0.0,0.0,0.0,0.0,0.0,0.0,0.0,0.0,0.0,0.0,0.0,0.0,0.0,0.0,0.0,0.0,0.0,0.0,0.0,0.0,0.0,0.0,0.0,0.0,0.0,0.0,0.0,0.0,0.0,0.0,0.0,0.0,0.0,0.0,0.0,0.0,0.0,0.0,0.0,0.0,0.0,0.0,0.0,0.0,0.0,0.0,0.0,0.0,0.0,0.0,0.0,0.0,0.0,0.0,0.0,0.0,0.0,0.0,0.0,0.0,0.0,0.0,0.0,0.0,0.0,0.0,0.0,0.0,0.0,0.0,0.0,0.0,0.0,0.0,0.0,0.0,0.0,0.0,0.0,0.0,0.0,0.0,0.0,0.0,0.0,0.0,0.0,0.0,0.0,0.0,0.0,0.0,0.0,0.0,0.0,0.0,0.0,0.0,0.0,0.0,0.0,0.0,0.0,0.0,0.0,0.0,0.0,0.0,0.0,0.0,0.0,0.0,0.0,0.0,0.0,0.0,0.0,0.0,0.0,0.0,0.0,0.0,0.0,0.0,0.0,0.0,0.0,0.0,0.0,0.0,0.0,0.0,0.0,0.0,0.0,0.0,0.0,0.0,0.0,0.0,0.0,0.0,0.0,0.0,0.0,0.0,0.0,0.0,0.0,0.0,0.0,0.0,0.0,0.0,0.0,0.0,0.0,0.0,0.0,0.0,0.0,0.0,0.0,0.0,0.0,0.0,0.0,0.0,0.0,0.0,0.0,0.0,0.0,0.0,0.0,0.0,0.0,0.0,0.0,0.0,0.0,0.0,0.0,0.0,0.0,0.0,0.0,0.0,0.0,0.0,0.0,0.0,0.0,0.0,0.0,0.0,0.0,0.0,0.0,0.0,0.0,0.0,0.0,0.0,0.0,0.0,0.0,0.0,0.0,0.0,0.0,0.0,0.0,0.0,0.0,0.0,0.0,0.0,0.0,0.0,0.0,0.0,0.0,0.0,0.0,0.0,0.0,0.0,0.0,0.0,0.0,0.0,0.0,0.0,0.0,0.0,0.0,0.0,0.0,0.0,0.0,0.0,0.0,0.0,0.0,0.0,0.0,0.0,0.0,0.0,0.0,0.0,0.0,0.0,0.0,0.0,0.0,0.0,0.0,0.0,0.0,0.0,0.0,0.0,0.0,0.0,0.0,0.0,0.0,0.0,0.0,0.0,0.0,0.0,0.0,0.0,0.0,0.0,0.0,0.0,0.0,0.0,0.0,0.0,0.0,0.0,0.0,0.0,0.0,0.0,0.0,0.0,0.0,0.0,0.0,0.0,0.0,0.0,0.0,0.0,0.0,0.0,0.0,0.0,0.0,0.0,0.0,0.0,0.0,0.0,0.0,0.0,0.0,0.0,0.0,0.0,0.0,0.0,0.0,0.0,0.0,0.0,0.0,0.0,0.0,0.0,0.0,0.0,0.0,0.0,0.0,0.0,0.0,0.0,0.0,0.0,0.0,0.0,0.0,0.0,0.0,0.0,0.0,0.0,0.0,0.0,0.0,0.0,0.0,0.0,0.0,0.0,0.0,0.0,0.0,0.0,0.0,0.0,0.0,0.0,0.0,0.0,0.0,0.0,0.0,0.0,0.0,0.0,0.0,0.0,0.0,0.0,0.0,0.0,0.0,0.0,0.0,0.0,0.0,0.0,0.0,0.0,0.0,0.0,0.0,0.0,0.0,0.0,0.0,0.0,0.0,0.0,0.0,0.0,0.0,0.0,0.0,0.0,0.0,0.0,0.0,0.0,0.0,0.0,0.0,0.0,0.0,0.0,0.0,0.0,0.0,0.0,0.0,0.0,0.0,0.0,0.0,0.0,0.0,0.0,0.0,0.0,0.0,0.0,0.0,0.0,0.0,0.0,0.0,0.0,0.0,0.0,0.0,0.0,0.0,0.0,0.0,0.0,0.0,0.0,0.0,0.0,0.0,0.0,0.0,0.0,0.0,0.0,0.0,0.0,0.0,0.0,0.0,0.0,0.0,0.0,0.0,0.0,0.0,0.0,0.0,0.0,0.0,0.0,0.0,0.0,0.0,0.0,0.0,0.0,0.0,0.0,0.0,0.0,0.0,0.0,0.0,0.0,0.0,0.0,0.0,0.0,0.0,0.0,0.0,0.0,0.0,0.0,0.0,0.0,0.0,0.0,0.0,0.0,0.0,0.0,0.0,0.0,0.0,0.0,0.0,0.0,0.0,0.0,0.0,0.0,0.0,0.0,0.0,0.0,0.0,0.0,0.0,0.0,0.0,0.0,0.0,0.0,0.0,0.0,0.0,0.0,0.0,0.0,0.0,0.0,0.0,0.0,0.0,0.0,0.0,0.0,0.0,0.0,0.0,0.0,0.0,0.0,0.0,0.0,0.0,0.0,0.0,0.0,0.0,0.0,0.0,0.0,0.0,0.0,0.0,0.0,0.0,0.0,0.0,0.0,0.0,0.0,0.0,0.0,0.0,0.0,0.0,0.0,0.0,0.0,0.0,0.0,0.0,0.0,0.0,0.0,0.0,0.0,0.0,0.0,0.0,0.0,0.0,0.0,0.0,0.0,0.0,0.0,0.0,0.0,0.0,0.0,0.0,0.0,0.0,0.0,0.0,0.0,0.0,0.0,0.0,0.0,0.0,0.0,0.0,0.0,0.0,0.0,0.0,0.0,0.0,0.0,0.0,0.0,0.0,0.0,0.0,0.0,0.0,0.0,0.0,0.0,0.0,0.0,0.0,0.0,0.0,0.0,0.0,0.0,0.0,0.0,0.0,0.0,0.0,0.0,0.0,0.0,0.0,0.0,0.0,0.0,0.0,0.0,0.0,0.0,0.0,0.0,0.0,0.0,0.0,0.0,0.0,0.0,0.0,0.0,0.0,0.0,0.0,0.0,0.0,0.0,0.0,0.0,0.0,0.0,0.0,0.0,0.0,0.0,0.0,0.0,0.0,0.0,0.0,0.0,0.0,0.0,0.0,0.0,0.0,0.0,0.0,0.0,0.0,0.0,0.0,0.0,0.0,0.0,0.0,0.0,0.0,0.0,0.0,0.0,0.0,0.0,0.0,0.0,0.0,0.0,0.0,0.0,0.0,0.0,0.0,0.0,0.0,0.0,0.0,0.0,0.0,0.0,0.0,0.0,0.0,0.0,0.0,0.0,0.0,0.0,0.0,0.0,0.0,0.0,0.0,0.0,0.0,0.0,0.0,0.0,0.0,0.0,0.0,0.0,0.0,0.0,0.0,0.0,0.0,0.0,0.0,0.0,0.0,0.0,0.0,0.0,0.0,0.0,0.0,0.0,0.0,0.0,0.0,0.0,0.0,0.0,0.0,0.0,0.0,0.0,0.0,0.0,0.0,0.0,0.0,0.0,0.0,0.0,0.0,0.0,0.0,0.0,0.0,0.0,0.0,0.0,0.0,0.0,0.0,0.0,0.0,0.0,0.0,0.0,0.0,0.0,0.0,0.0,0.0,0.0,0.0,0.0,0.0,0.0,0.0,0.0,0.0,0.0,0.0,0.0,0.0,0.0,0.0,0.0,0.0,0.0,0.0,0.0,0.0,0.0,0.0,0.0,0.0,0.0,0.0,0.0,0.0,0.0,0.0,0.0,0.0,0.0,0.0,0.0,0.0,0.0,0.0,0.0,0.0,0.0,0.0,0.0,0.0,0.0,0.0,0.0,0.0,0.0,0.0,0.0,0.0,0.0,0.0,0.0,0.0,0.0,0.0,0.0,0.0,0.0,0.0,0.0,0.0,0.0,0.0,0.0,0.0,0.0,0.0,0.0,0.0,0.0,0.0,0.0,0.0,0.0,0.0,0.0,0.0,0.0,0.0,0.0,0.0,0.0,0.0,0.0,0.0,0.0,0.0,0.0,0.0,0.0,0.0,0.0,0.0,0.0,0.0,0.0,0.0,0.0,0.0,0.0,0.0,0.0,0.0,0.0,0.0,0.0,0.0,0.0,0.0,0.0,0.0,0.0,0.0,0.0,0.0,0.0,0.0,0.0,0.0,0.0,0.0,0.0,0.0,0.0,0.0,0.0,0.0,0.0,0.0,0.0,0.0,0.0,0.0,0.0,0.0,0.0,0.0,0.0,0.0,0.0,0.0,0.0,0.0,0.0,0.0,0.0,0.0,0.0,0.0,0.0,0.0,0.0,0.0,0.0,0.0,0.0,0.0,0.0,0.0,0.0,0.0,0.0,0.0,0.0,0.0,0.0,0.0,0.0,0.0,0.0,0.0,0.0,0.0,0.0,0.0,0.0,0.0,0.0,0.0,0.0,0.0,0.0,0.0,0.0,0.0,0.0,0.0,0.0,0.0,0.0,0.0,0.0,0.0,0.0,0.0,0.0,0.0,0.0,0.0,0.0,0.0,0.0,0.0,0.0,0.0,0.0,0.0,0.0,0.0,0.0,0.0,0.0,0.0,0.0,0.0,0.0,0.0,0.0,0.0,0.0,0.0,0.0,0.0,0.0,0.0,0.0,0.0,0.0,0.0,0.0,0.0,0.0,0.0,0.0,0.0,0.0,0.0,0.0,0.0,0.0,0.0,0.0,0.0,0.0,0.0,0.0,0.0,0.0,0.0,0.0,0.0,0.0,0.0,0.0,0.0,0.0,0.0,0.0,0.0,0.0,0.0,0.0,0.0,0.0,0.0,0.0,0.0,0.0,0.0,0.0,0.0,0.0,0.0,0.0,0.0,0.0,0.0,0.0,0.0,0.0,0.0,0.0,0.0,0.0,0.0,0.0,0.0,0.0,0.0,0.0,0.0,0.0,0.0,0.0,0.0,0.0,0.0,0.0,0.0,0.0,0.0,0.0,0.0,0.0,0.0,0.0,0.0,0.0,0.0,0.0,0.0,0.0,0.0,0.0,0.0,0.0,0.0,0.0,0.0,0.0,0.0,0.0,0.0,0.0,0.0,0.0,0.0,0.0,0.0,0.0,0.0,0.0,0.0,0.0,0.0,0.0,0.0,0.0,0.0,0.0,0.0,0.0,0.0,0.0,0.0,0.0,0.0,0.0,0.0,0.0,0.0,0.0,0.0,0.0,0.0,0.0,0.0,0.0,0.0,0.0,0.0,0.0,0.0,0.0,0.0,0.0,0.0,0.0,0.0,0.0,0.0,0.0,0.0,0.0,0.0,0.0,0.0,0.0,0.0,0.0,0.0,0.0,0.0,0.0,0.0,0.0,0.0,0.0,0.0,0.0,0.0,0.0,0.0,0.0,0.0,0.0,0.0,0.0,0.0,0.0,0.0,0.0,0.0,0.0,0.0,0.0,0.0,0.0,0.0,0.0,0.0,0.0,0.0,0.0,0.0,0.0,0.0,0.0,0.0,0.0,0.0,0.0,0.0,0.0,0.0,0.0,0.0,0.0,0.0,0.0,0.0,0.0,0.0,0.0,0.0,0.0,0.0,0.0,0.0,0.0,0.0,0.0,0.0,0.0,0.0,0.0,0.0,0.0,0.0,0.0,0.0,0.0,0.0,0.0,0.0,0.0,0.0,0.0,0.0,0.0,0.0,0.0,0.0,0.0,0.0,0.0,0.0,0.0,0.0,0.0,0.0,0.0,0.0,0.0,0.0,0.0,0.0,0.0,0.0,0.0,0.0,0.0,0.0,0.0,0.0,0.0,0.0,0.0,0.0,0.0,0.0,0.0,0.0,0.0,0.0,0.0,0.0,0.0,0.0,-0.2732,0.0,0.0,0.0,0.0,0.0,0.0,0.0,0.0,0.0,0.0,0.0,0.0,0.0,0.0,0.0,0.0,0.0,0.0,0.0,0.0,0.0,0.0,0.0,0.0,-0.7644,-0.8432,-0.8857,-0.8771,-0.8705,-0.8705,0.0,0.0,0.0,0.0,0.0,-0.7158,-0.7254,-0.7475,-0.7822,-0.8372,-0.9253,-1.0406,-0.9982,-0.9187,-0.8098,0.0,0.0,0.0,0.0,0.0,0.0,0.0,0.0,0.0,0.0,0.0,0.0,0.0,0.0,0.0,0.0,0.0,0.0,0.0,0.0,0.0,0.0,0.0,0.0,0.0,0.0,0.0,0.0,0.0,0.0,0.0,0.0,0.0,0.0,0.0,0.0,0.0,0.0,0.0,0.0,0.0,0.0,0.0,0.0,0.0,0.0,0.0,0.0,0.0,0.0,0.0,0.0,0.0,0.0,0.0,0.0,0.0,0.0,0.0,0.0,0.0,0.0,0.0,0.0,0.0,0.0,0.0,0.0,0.0,0.0,0.0,-0.2849,0.0,0.0,0.0,0.0,0.0,0.0,0.0,0.0,0.0,0.0,0.0,0.0,0.0,0.0,0.0,0.0,0.0,0.0,0.0,0.0,0.0,-0.608,-0.6808,-0.7532,-0.8206,-0.8807,-0.876,-0.8705,-0.8705,-0.8729,0.0,0.0,0.0,-0.8045,-0.7665,-0.7724,-0.8151,-0.8959,-1.0136,-1.1464,-1.2866,-1.3008,-1.2113,-1.0356,-0.9676,0.0,0.0,0.0,0.0,0.0,0.0,0.0,0.0,0.0,0.0,0.0,0.0,0.0,0.0,0.0,0.0,0.0,0.0,0.0,0.0,0.0,0.0,0.0,0.0,0.0,0.0,0.0,0.0,0.0,0.0,0.0,0.0,0.0,0.0,0.0,0.0,0.0,0.0,0.0,0.0,0.0,0.0,0.0,0.0,0.0,0.0,0.0,0.0,0.0,0.0,0.0,0.0,0.0,0.0,0.0,0.0,0.0,0.0,0.0,0.0,0.0,0.0,0.0,0.0,0.0,-0.4016,-0.3999,-0.3968,-0.3902,-0.3742,-0.3578,-0.3246,0.0,0.0,0.0,0.0,0.0,0.0,0.0,0.0,0.0,0.0,0.0,0.0,0.0,0.0,0.0,0.0,0.0,0.0,0.0,0.0,-0.6842,-0.7578,-0.8215,-0.863,-0.8712,-0.8717,-0.8705,-0.8705,-0.8806,0.0,0.0,-0.9115,-0.9232,-0.9455,-0.9519,-0.995,-1.0752,-1.2399,-1.3315,-1.3493,-1.4487,-1.4734,-1.4286,-1.2757,-1.2533,-1.3186,0.0,0.0,0.0,0.0,0.0,0.0,0.0,0.0,0.0,0.0,0.0,0.0,0.0,0.0,0.0,0.0,0.0,0.0,0.0,0.0,0.0,0.0,0.0,0.0,0.0,0.0,0.0,0.0,0.0,0.0,0.0,0.0,0.0,0.0,0.0,0.0,0.0,0.0,0.0,0.0,0.0,-0.1383,-0.1722,0.0,0.0,0.0,0.0,0.0,0.0,0.0,0.0,0.0,0.0,0.0,0.0,0.0,0.0,-0.3594,-0.3816,-0.4031,-0.4153,-0.4043,-0.4004,-0.4004,-0.3934,-0.3899,-0.3902,-0.3953,0.0,-0.3792,-0.3337,0.0,0.0,0.0,0.0,0.0,0.0,0.0,0.0,0.0,0.0,0.0,0.0,0.0,0.0,0.0,0.0,0.0,0.0,0.0,0.0,0.0,-0.8566,-0.918,-0.9103,-0.943,-0.9537,-0.9222,-0.9338,-0.9372,-0.9311,-0.9376,-0.9532,-0.9791,-1.0273,-1.1478,-1.3406,-1.4733,-1.5627,-1.6085,-1.6572,-1.6791,-1.6709,-1.596,-1.5044,-1.3979,-1.2767,0.0,0.0,0.0,0.0,0.0,0.0,0.0,0.0,0.0,0.0,0.0,0.0,0.0,0.0,0.0,0.0,0.0,0.0,0.0,0.0,0.0,0.0,0.0,0.0,0.0,0.0,0.0,0.0,0.0,0.0,0.0,0.0,0.0,0.0,0.0,0.0,0.0,0.0,0.0,-0.2374,-0.2412,-0.3294,-0.1671,-0.0057,0.0,0.0,0.0,0.0,0.0,0.0,0.0,0.0,0.0,-0.3283,-0.3832,-0.4127,-0.4112,-0.4179,-0.4253,-0.4389,-0.4299,-0.4277,-0.4277,-0.4237,-0.375,-0.2939,-0.299,-0.2985,-0.2993,-0.3805,-0.3119,-0.143,0.0,0.0,0.0,0.0,0.0,-0.242,0.0,0.0,0.0,0.0,0.0,0.0,0.0,0.0,0.0,0.0,0.0,0.0,-0.801,-0.8906,-0.9487,-0.9576,-0.9876,-1.0002,-0.9827,-0.964,-0.9555,-0.9574,-0.952,-0.9597,-0.9825,-1.1079,-1.2863,-1.5206,-1.662,-1.7666,-1.834,-1.8555,-1.8672,-1.8672,-1.8672,-1.7281,-1.4911,-1.3943,-1.3096,0.0,0.0,0.0,0.0,0.0,0.0,0.0,0.0,0.0,0.0,0.0,0.0,0.0,0.0,0.0,0.0,0.0,0.0,0.0,0.0,0.0,0.0,0.0,0.0,0.0,0.0,0.0,0.0,0.0,0.0,0.0,0.0,0.0,0.0,0.0,0.0,0.0,0.0,-0.2859,-0.3393,-0.4293,-0.2834,-0.1186,0.0,0.0,0.0,0.0,0.0,0.0,-0.2675,-0.2668,-0.3101,-0.4163,-0.4222,-0.42,-0.43,-0.4304,-0.4358,-0.4519,-0.4473,-0.448,-0.448,-0.4494,-0.3872,-0.274,-0.2347,-0.2179,-0.2338,-0.3856,-0.3689,-0.2343,-0.0674,0.026,0.0551,-0.054,-0.1447,-0.2333,0.0,0.0,0.0,0.0,0.0,0.0,0.0,0.0,0.0,0.0,0.0,-0.8015,-0.9343,-0.9275,-0.9389,-1.0021,-0.9512,-0.9531,0.0,-0.9445,-0.9298,-1.0309,-0.9806,-0.9628,-0.9881,-1.2361,-1.4178,-1.5206,-1.7735,-1.9064,-1.9258,-2.0078,-2.0469,-2.0469,-2.0469,-1.9305,-1.7237,-1.5864,-1.4993,-1.4335,0.0,0.0,0.0,0.0,0.0,0.0,0.0,0.0,0.0,0.0,0.0,0.0,0.0,0.0,0.0,0.0,0.0,0.0,0.0,0.0,0.0,0.0,0.0,0.0,0.0,0.0,0.0,0.0,0.0,0.0,0.0,0.0,0.0,0.0,0.0,0.0,0.0,0.0,0.0,-0.4373,-0.4195,0.0,0.0,0.0,0.0,-0.3704,-0.3839,-0.3922,-0.4112,-0.4073,-0.4124,-0.4222,-0.4226,-0.4297,-0.4505,-0.4508,-0.4512,-0.4519,-0.4473,-0.448,-0.448,-0.4504,-0.4455,-0.4284,-0.2811,-0.2191,-0.2298,-0.3848,-0.4428,-0.4075,-0.1166,-0.0,0.005,-0.005,-0.1902,-0.4303,0.0,0.0,0.0,0.0,0.0,-0.4753,-0.5494,-0.6012,-0.6622,-0.7497,-0.8328,-0.8957,-0.9245,-0.9949,-1.0443,-1.0538,-1.0735,-1.0921,-1.113,-1.0434,-1.0369,-1.1135,-1.0758,-1.1363,-1.3132,-1.4179,-1.5699,-1.7712,-1.8734,-1.9822,-2.0859,-1.5586,-1.3437,-1.373,-0.8145,-0.4836,-0.4004,-1.3177,-1.6647,-1.5808,-1.369,-1.2406,0.0,0.0,0.0,0.0,0.0,0.0,0.0,0.0,0.0,0.0,0.0,0.0,0.0,0.0,0.0,0.0,0.0,0.0,0.0,0.0,0.0,0.0,0.0,0.0,0.0,0.0,0.0,0.0,0.0,0.0,0.0,0.0,0.0,0.0,0.0,0.0,0.0,-0.5797,-0.4295,0.0,0.0,-0.349,-0.3327,-0.4074,-0.4129,-0.4148,-0.4198,-0.4348,-0.4398,-0.4395,-0.4406,-0.4433,-0.4484,-0.4484,-0.4475,-0.4515,-0.4525,-0.452,-0.443,-0.2509,-0.1612,-0.1552,-0.1015,-0.0777,-0.0836,-0.1357,-0.1603,-0.1484,-0.0435,-0.1189,-0.2765,-0.1779,-0.2748,-0.4499,0.0,0.0,0.0,0.0,-0.4499,-0.4838,-0.5826,-0.6386,-0.699,-0.7797,-0.8847,-0.9505,-0.9436,-1.0363,-1.1046,-1.1132,-1.1341,-1.1602,-1.1958,-1.1251,-1.1175,-1.2038,-1.1948,-1.282,-1.4855,-1.5645,-1.6999,-1.8967,-1.9775,-2.0762,-2.1719,-1.3359,-0.9746,-0.9922,-0.125,0.3047,0.3145,-0.6816,-1.0477,-0.9446,-0.7914,-0.7815,-0.8568,0.0,0.0,0.0,0.0,0.0,0.0,0.0,0.0,0.0,0.0,0.0,0.0,0.0,0.0,0.0,0.0,0.0,0.0,0.0,0.0,0.0,0.0,0.0,0.0,0.0,0.0,0.0,0.0,0.0,0.0,0.0,0.0,0.0,0.0,0.0,-0.6761,-0.6606,-0.4841,-0.3865,-0.4439,-0.4372,-0.4289,-0.4293,-0.4323,-0.4274,-0.4277,-0.4429,-0.4255,-0.3744,-0.3736,-0.3704,-0.3704,-0.3743,-0.3748,-0.3708,-0.4264,-0.4502,-0.4402,-0.1358,-0.0,-0.0,-0.0,-0.0,-0.0123,-0.1297,-0.1809,-0.1795,-0.1604,-0.2435,-0.3649,-0.3135,-0.3635,-0.4477,0.0,0.0,0.0,-0.4499,-0.4516,-0.5017,-0.6479,-0.6715,-0.7208,-0.8523,-0.9122,-0.9592,-1.0052,-1.0538,-1.1081,-1.1745,-1.1221,-1.1428,-1.2813,-1.1734,-1.1638,-1.2992,-1.3338,-1.3895,-1.4802,-1.6759,-1.8109,-1.8795,-2.0894,-2.1953,-2.1816,-1.3984,-1.0352,-1.0,-0.1348,0.252,0.2539,0.2812,0.3426,0.4268,0.4854,0.2408,-0.1706,0.0,0.0,0.0,0.0,0.0,0.0,0.0,0.0,0.0,0.0,0.0,0.0,0.0,0.0,0.0,0.0,0.0,0.0,0.0,0.0,0.0,0.0,0.0,0.0,0.0,0.0,0.0,0.0,0.0,0.0,0.0,0.0,0.0,-0.7673,-0.7569,-0.7188,-0.6637,-0.5929,-0.5255,-0.4545,-0.452,-0.4522,-0.448,-0.4477,-0.4428,-0.4445,-0.4448,-0.3819,-0.2294,-0.2195,-0.2113,-0.2113,-0.2117,-0.2151,-0.2153,-0.365,-0.435,-0.4291,-0.1362,-0.0,-0.0,-0.0,-0.0062,-0.0433,-0.3977,-0.5366,-0.5344,-0.475,-0.359,-0.2464,-0.3993,-0.4504,-0.449,0.0,0.0,-0.4499,-0.4499,-0.4945,-0.5623,-0.6555,-0.7146,-0.7731,-0.8388,-0.9442,-1.0078,-0.997,-1.0882,-1.1595,-1.1775,-1.164,-1.1917,-1.2846,-1.2156,-1.2521,-1.4307,-1.4912,-1.5978,-1.765,-1.8782,-1.9848,-2.0808,-2.2117,-2.3086,-2.3535,-1.5156,-1.1582,-1.1816,-0.3145,0.0723,0.1133,0.7402,0.6272,0.0013,-0.2891,-0.3829,-0.4048,0.0,0.0,0.0,0.0,0.0,0.0,0.0,0.0,0.0,0.0,0.0,0.0,0.0,0.0,0.0,0.0,0.0,0.0,0.0,0.0,0.0,0.0,0.0,0.0,0.0,0.0,0.0,0.0,0.0,0.0,0.0,0.0,-0.6247,-0.6292,-0.6901,-0.6884,-0.5659,-0.5487,-0.5241,-0.4584,-0.4484,-0.448,-0.449,-0.3466,-0.2822,-0.2834,-0.39,-0.4305,-0.3857,-0.1757,-0.0608,-0.0608,-0.0614,-0.0623,-0.0637,-0.102,-0.1225,-0.1185,-0.0395,-0.0,-0.0,-0.0,-0.1514,-0.4022,-0.5022,-0.5284,-0.5154,-0.4887,-0.4616,-0.4326,-0.4756,-0.4869,-0.4799,0.0,-0.4499,-0.4499,-0.4499,-0.5115,-0.5843,-0.6588,-0.7315,-0.7937,-0.8357,-0.9572,-1.0265,-0.9944,-1.1042,-1.1685,-1.1416,-1.1746,-1.2011,-1.2108,-1.259,-1.3604,-1.5208,-1.6151,-1.7454,-1.9145,-1.9973,-2.0908,-2.1983,-2.2978,-2.3584,-2.3591,-1.5362,-1.1783,-1.1895,-0.3223,0.0391,0.0332,0.5371,0.4297,-0.125,-0.7012,-0.7488,-0.5283,-1.0318,-1.2128,-1.1887,-1.1187,-1.0614,-0.9992,-0.8809,0.0,0.0,0.0,0.0,0.0,0.0,0.0,0.0,0.0,0.0,0.0,0.0,0.0,0.0,0.0,0.0,0.0,0.0,0.0,0.0,0.0,0.0,0.0,0.0,-0.6344,-0.6542,-0.611,-0.6329,-0.6225,-0.5381,-0.5155,-0.4952,-0.4525,-0.4475,-0.4229,-0.3602,-0.3302,-0.2587,-0.1317,-0.2102,-0.2609,-0.2595,-0.0937,-0.0,-0.0,-0.0,-0.0,-0.0,-0.0,-0.0,-0.0,-0.0,-0.0808,0.0,-0.229,-0.303,-0.4308,-0.5059,-0.5338,0.0,0.0,0.0,0.0,0.0,-0.4985,-0.4918,0.0,-0.4476,-0.4499,-0.4583,-0.5227,-0.5978,-0.6707,-0.744,-0.8027,-0.8345,-0.9494,-1.0139,-0.9823,-1.0842,-1.1329,-1.0802,-1.1546,-1.1854,0.0,-1.311,-1.4699,-1.5889,-1.7056,-1.8334,-1.9745,-2.0578,-2.1533,-2.2594,-2.3585,-2.3721,-2.293,-1.6001,-1.2758,-1.2415,-0.468,-0.1716,-0.2492,-0.1524,-0.1747,-0.3247,-0.9181,-0.9233,-0.6026,-0.8873,-1.1374,-1.324,-1.2228,-1.1173,-1.0105,-0.8852,0.0,0.0,0.0,0.0,0.0,0.0,0.0,0.0,0.0,0.0,0.0,0.0,0.0,0.0,0.0,0.0,0.0,0.0,0.0,0.0,0.0,0.0,0.0,0.0,-0.7145,-0.7097,-0.6666,-0.5928,-0.5378,-0.5378,-0.4842,-0.4525,-0.4546,-0.4505,-0.3765,-0.2062,-0.3222,-0.2847,-0.0124,0.0,0.0,0.0,0.0,-0.0,-0.0,-0.0,-0.0,-0.0,-0.0404,-0.0606,-0.0606,-0.0404,-0.2085,-0.5135,-0.5343,-0.4512,-0.3147,-0.4764,-0.5379,-0.5362,-0.5226,-0.5087,-0.4969,-0.4969,-0.4969,0.0,0.0,-0.4308,-0.452,-0.5125,-0.5925,-0.674,-0.7476,-0.8126,-0.8504,-0.8425,-0.895,-0.928,-0.9116,-0.9596,-1.0078,-1.0459,-1.0902,-1.178,0.0,-1.4156,-1.5323,-1.6788,-1.7284,-1.8397,-2.0209,-2.1171,-2.2152,-2.3234,-2.4014,-2.4337,-2.4137,-2.2065,-2.1082,-2.0997,-1.8924,-1.8141,-1.7866,-1.0922,-1.2463,-1.9061,-1.3625,-0.9672,-0.7759,-1.4476,-1.5994,-1.4411,-1.3265,-1.2504,-1.1923,-1.0824,-0.9492,-0.8014,-0.6047,-0.4349,0.0,0.0,0.0,0.0,0.0,0.0,0.0,0.0,0.0,0.0,0.0,0.0,0.0,0.0,0.0,0.0,0.0,0.0,0.0,-0.7201,-0.6951,-0.6699,-0.6637,-0.55,-0.4677,-0.4677,-0.457,-0.457,-0.4707,-0.4578,-0.3387,-0.0608,-0.0676,-0.0624,-0.0,-0.0,0.0,-0.0,-0.0,-0.0,-0.0,-0.0,-0.0,-0.0067,0.0,0.0,-0.4319,-0.282,-0.2546,-0.3286,-0.4782,-0.5186,-0.4903,-0.5243,-0.5372,-0.5428,-0.5332,-0.5301,-0.5277,-0.5277,-0.5277,-0.5277,-0.4548,-0.4398,-0.4476,-0.5174,-0.6054,-0.6873,-0.7544,-0.8249,-0.8632,-0.8428,-0.8812,-0.9049,-0.8906,-0.9386,-0.9695,-0.9644,-0.9924,0.0,-1.3116,-1.3911,-1.5087,-1.6867,-1.772,-1.8974,-2.0716,-2.1498,-2.2427,-2.3489,-2.388,-2.3768,-2.3199,-2.2821,-2.2527,-2.2289,-2.2043,-2.2231,-2.2428,-1.8143,-1.9357,-2.3821,-1.9525,-1.638,-1.4664,-1.8564,-1.7883,-1.4724,-1.3654,-1.2783,-1.1998,-1.0975,-0.8958,-0.6943,-0.7533,-0.4768,-0.1627,0.0,0.0,0.0,0.0,0.0,0.0,0.0,0.0,0.0,0.0,0.0,0.0,0.0,0.0,-0.6305,0.0,0.0,-0.7424,-0.7954,-0.7233,-0.6588,-0.6588,-0.5391,-0.4519,-0.4519,-0.4519,-0.4528,-0.4632,-0.4667,-0.4036,-0.2392,-0.0832,-0.0,-0.0,-0.0,-0.0,-0.0,-0.0,-0.0,-0.0,-0.1818,-0.2695,-0.2695,-0.3634,-0.4512,-0.5336,-0.4439,-0.4025,-0.409,-0.4976,-0.5379,-0.5369,-0.5369,-0.5432,-0.5428,-0.5428,-0.5428,-0.5428,-0.5428,-0.5428,-0.5428,-0.5072,-0.4794,-0.4757,-0.5457,-0.6227,-0.6951,-0.7573,-0.8188,-0.8513,-0.8361,-0.8644,-0.8835,-0.8757,-0.9157,-0.9304,-0.8936,-0.9264,-1.0423,-1.2593,-1.3464,-1.4751,-1.6622,-1.7916,-1.9326,-2.0853,-2.1404,-2.2233,-2.3406,-2.3268,-2.261,-2.1477,-2.1343,-2.0927,-2.0348,-2.0518,-2.1022,-2.1808,-2.2024,-2.2809,-2.3913,-2.3913,-2.2789,-2.1096,-2.1096,-1.8498,-1.4707,-1.3868,-1.2696,-1.1506,-1.0791,-0.8118,-0.5477,-0.7628,-0.4798,-0.0954,-0.235,-0.3617,0.0,0.0,0.0,0.0,0.0,0.0,0.0,0.0,0.0,-0.5979,-0.621,-0.6901,-0.7514,-0.7652,-0.7728,-0.7998,-0.8659,-0.7563,-0.6588,-0.6588,-0.5391,-0.4519,-0.4519,-0.4519,-0.4538,-0.4552,-0.4442,-0.4457,-0.4631,-0.1796,-0.0,-0.0,-0.0,-0.0,-0.0,-0.0,-0.0,-0.0,-0.3574,-0.5413,-0.5413,-0.3897,-0.3959,-0.5393,-0.5389,-0.5382,-0.5376,-0.5376,-0.5369,-0.5428,-0.5428,-0.5428,-0.5428,-0.5428,-0.5428,-0.5428,-0.5428,-0.5428,-0.5428,0.0,-0.5745,-0.597,-0.6821,-0.7106,-0.7472,-0.8188,-0.8232,-0.8171,-0.8144,-0.8072,-0.8076,-0.8171,-0.799,-0.8136,-0.8833,-0.9743,-1.1073,-1.2994,-1.382,-1.4875,-1.6281,-1.737,-1.8611,-2.0103,-2.0411,-2.1262,-2.2723,-2.2055,-2.1144,-2.0003,-1.9306,-1.8409,-1.7415,-1.8058,-1.8427,-1.8578,-1.9622,-2.1133,-2.2879,-2.2879,-2.2156,-2.1096,-2.11,-1.8558,-1.4911,-1.4258,-1.2814,-1.1278,-1.1407,-0.8606,-0.4619,-0.2002,-0.2074,-0.3159,-0.3333,-0.3724,-0.4184,-0.4711,-0.5001,-0.5683,-0.7657,-0.7549,-0.7499,0.0,0.0,-0.9157,-0.9059,-0.9469,-0.9652,-0.9065,-0.8799,-0.8659,-0.8804,-0.7563,-0.6588,-0.6588,-0.5391,-0.4519,-0.4519,-0.4519,-0.4579,-0.4756,-0.3376,-0.3281,-0.5163,-0.2017,-0.0,-0.0,-0.0,-0.0,-0.0,-0.0,-0.0,-0.0,-0.3574,-0.5413,-0.5413,-0.5186,-0.5176,-0.5379,-0.5369,-0.5432,-0.5428,-0.5428,-0.5428,-0.5428,-0.5428,-0.5428,-0.5428,-0.5428,-0.5428,-0.5428,-0.5428,-0.5428,-0.5428,0.0,-0.6795,-0.7178,-0.7542,-0.7404,-0.7454,-0.813,-0.8158,-0.8102,-0.8102,-0.7983,-0.7913,-0.7983,-0.7925,-0.803,-0.839,-0.9542,-1.0677,-1.1733,-1.3183,-1.4516,-1.5666,-1.6913,-1.8131,-1.9318,-1.9254,-1.9984,-2.1661,-2.0687,-1.9839,-1.9084,-1.8775,-1.7868,-1.6584,-1.7584,-1.7995,-1.8074,-1.9462,-2.0877,-2.2278,-2.2868,-2.2646,-2.1931,-2.1504,-1.9326,-1.6351,-1.5197,-1.3007,0.0,-0.9918,-0.7651,-0.4879,-0.3514,-0.3767,-0.4416,-0.3697,-0.4275,-0.5325,-0.6352,-0.6585,-0.6978,0.0,-0.8567,-0.8349,-0.9596,-0.9727,-0.947,-0.9138,-0.9565,-0.9756,-0.9073,-0.8874,-0.8804,0.0,-0.7678,-0.6729,-0.6608,-0.5429,-0.4562,-0.4529,-0.4519,-0.4585,-0.4779,-0.3628,-0.2708,-0.2272,-0.0872,-0.0,-0.0,-0.0,-0.0,-0.0,-0.0,-0.101,-0.31,-0.3632,-0.4372,-0.5393,-0.5376,-0.5369,-0.5369,-0.5428,-0.5428,-0.5428,-0.5428,-0.5413,-0.5488,-0.5466,-0.5413,-0.5552,-0.5984,-0.6141,-0.6141,-0.6141,-0.6141,-0.6203,0.0,-0.757,-0.7899,-0.7899,-0.7616,-0.7539,-0.7974,-0.8036,-0.8036,-0.8036,-0.7955,-0.7899,-0.7899,-0.8065,-0.8158,-0.8102,-0.9142,-1.0134,-1.0836,-1.2366,-1.383,-1.5119,-1.6311,-1.7337,-1.8075,-1.7887,-1.8433,-1.9697,-1.875,-1.7923,-1.7236,-1.7236,-1.6437,-1.5122,-1.6288,-1.6896,-1.7168,-1.9053,-2.0432,-2.1515,-2.285,-2.2929,-2.2183,-2.1682,-1.9606,-1.6738,-1.5336,-1.301,-1.0376,-0.8801,-0.7243,-0.5832,-0.5116,-0.4764,-0.4581,-0.4687,-0.536,-0.6296,-0.7231,-0.7497,0.0,-0.9498,-0.9446,-0.9116,-0.968,-0.9821,-0.9677,-0.8954,-0.9309,-0.9614,-0.891,-0.8804,-0.8804,-0.8804,-0.7935,-0.7114,-0.6673,-0.5715,-0.4912,-0.4536,-0.4519,-0.4568,-0.478,-0.4163,-0.3138,-0.1583,-0.0533,-0.0,-0.0,-0.0942,-0.1482,-0.1482,-0.1009,-0.2017,-0.4651,-0.3828,-0.409,-0.5379,-0.5432,-0.5428,-0.5428,-0.5428,-0.5582,-0.5885,-0.5771,-0.5978,-0.639,-0.6215,-0.6152,-0.632,-0.6845,-0.7046,-0.7111,-0.7307,-0.7242,-0.7177,0.0,0.0,-0.7899,-0.7899,-0.7884,-0.7884,-0.7914,-0.7914,-0.7914,-0.7914,-0.7899,-0.7899,-0.7899,-0.8205,-0.8322,-0.8115,-0.8741,-0.9696,-1.1001,-1.1565,-1.2732,-1.4734,-1.5497,-1.5921,-1.6091,-1.6346,-1.6435,-1.6442,-1.5945,-1.5031,-1.3744,-1.3744,-1.3094,-1.1994,-1.3189,-1.4109,-1.4868,-1.7542,-1.9223,-2.0339,-2.2516,-2.2574,-2.1361,-2.1462,-1.8913,-1.5113,-1.4029,-1.2657,-1.103,-0.8911,-0.815,-0.763,-0.4807,-0.3357,-0.3358,-0.6785,-0.7194,-0.6547,-0.6477,0.0,-0.7878,-0.9889,-1.0277,-1.0278,-1.0672,-1.0746,-1.0399,-0.9061,-0.9309,-0.9614,-0.891,-0.8804,-0.8804,-0.8804,-0.844,-0.7795,-0.6727,-0.6211,-0.5583,-0.4588,-0.4519,-0.458,0.0,-0.4906,-0.5071,-0.5243,-0.1981,-0.0,-0.0,-0.3297,-0.5209,-0.5209,-0.3558,-0.2678,-0.2811,-0.4495,-0.5376,-0.5379,-0.5432,-0.5428,-0.5428,-0.5428,-0.5974,-0.7065,-0.6805,-0.7291,-0.827,-0.8053,-0.7902,-0.7907,-0.7962,-0.7962,-0.8091,-0.8877,-0.8678,-0.7962,0.0,0.0,0.0,-0.7899,-0.7899,-0.7899,-0.7899,-0.7899,-0.7899,-0.7899,-0.7899,0.0,0.0,0.0,0.0,0.0,-0.8996,-0.9542,-0.9759,-1.1169,-1.2148,-1.2463,-1.3899,-1.4936,-1.5503,-1.4637,-1.4868,-1.6385,-1.4824,-1.3648,-1.2893,-1.2893,-1.2059,-1.0603,-1.2182,-1.3561,-1.4845,-1.6743,-1.8763,-2.0763,-2.1549,-2.2009,-2.2152,-2.1493,-1.9876,-1.7636,0.0,-1.257,-1.0672,-1.0554,-0.9462,-0.7963,-0.7041,-0.6138,-0.5596,-0.6698,-0.744,-0.7836,-0.7742,0.0,-0.8945,-0.978,-0.9946,-0.9977,-1.0092,-1.0167,-0.9865,-0.9008,-0.858,-0.8355,-0.8103,-0.8049,-0.8049,-0.8049,-0.8193,-0.8149,-0.7733,-0.6881,-0.6079,-0.5539,-0.5004,0.0,0.0,0.0,0.0,-0.5339,-0.4282,-0.3085,-0.1872,-0.2948,-0.4169,-0.5333,-0.4779,-0.45,-0.4495,-0.5106,-0.5376,-0.5432,-0.5428,-0.5686,-0.6268,-0.6268,-0.6892,-0.7952,-0.7875,-0.825,-0.8857,-0.8626,-0.862,-0.8733,-0.9041,-0.9119,-0.9234,-0.9912,-0.9977,-0.9716,0.0,0.0,0.0,0.0,0.0,0.0,0.0,0.0,0.0,0.0,0.0,0.0,0.0,0.0,0.0,0.0,0.0,-0.9181,-0.9203,-1.0345,-1.1177,-1.1571,-1.2454,-1.3231,-1.387,-1.2722,-1.278,-1.4198,-1.2721,-1.173,-1.1155,-1.1236,-1.0538,-0.9304,-1.0622,-1.2182,-1.3947,-1.5455,-1.7548,-1.9895,-2.0405,-2.0998,-2.1486,-2.0525,-1.9312,0.0,-1.492,-1.2641,-1.0903,-1.0736,-0.9729,-0.8556,-0.8386,-0.7929,-0.7394,-0.7422,-0.7843,-0.8335,-0.8672,-0.8905,-0.9169,-0.9688,-0.9614,-0.9517,-0.9762,-0.9614,-0.928,-0.8775,-0.8118,-0.7635,-0.7588,-0.7512,-0.7454,-0.7315,-0.784,-0.8109,-0.7847,-0.699,-0.6331,-0.6073,-0.5291,-0.4772,0.0,0.0,0.0,-0.5255,-0.5331,-0.4876,-0.3749,-0.3685,-0.4225,-0.5389,-0.5386,-0.5379,-0.5372,-0.5372,-0.5564,-0.5881,-0.5944,-0.6431,-0.7281,-0.7421,-0.8107,-0.9146,-0.9064,-0.9388,-1.0102,-0.9845,-0.9782,-0.9822,-1.0049,-1.0252,-1.0523,-1.0862,-1.1052,-1.0989,0.0,0.0,0.0,0.0,0.0,0.0,0.0,0.0,0.0,0.0,0.0,0.0,0.0,0.0,0.0,0.0,0.0,0.0,-0.9316,-0.9218,-0.9956,-1.1846,-1.1177,-1.0959,-1.1342,-1.0769,-1.04,-1.0267,-0.9874,-0.9401,-0.8871,-0.9037,-0.8762,-0.8179,-0.8708,-1.0145,-1.2265,-1.3776,-1.5721,-1.7887,-1.9052,-1.9531,-1.9454,-1.8732,-1.733,-1.5526,-1.3998,-1.2856,-1.1759,-0.963,-0.9174,-0.9423,-0.8858,-0.866,-0.8659,-0.8862,-0.8524,-0.829,-0.9156,-0.8962,-0.871,-0.9541,-0.9256,-0.8962,-0.9614,-0.9249,-0.8704,-0.843,-0.7892,-0.7363,0.0,0.0,-0.6976,-0.6648,-0.7367,-0.783,-0.7332,-0.6829,-0.6453,0.0,0.0,0.0,0.0,0.0,0.0,-0.5131,0.0,-0.5369,-0.5376,-0.5376,-0.5376,-0.5376,-0.5432,-0.5428,-0.5428,-0.5435,-0.5899,-0.6749,-0.7072,-0.7637,-0.8513,-0.8731,-0.9526,-1.0623,-1.0301,-1.0835,-1.187,-1.1659,-1.1377,-1.1122,-1.1174,-1.1482,-1.1941,-1.1926,-1.1911,-1.1772,0.0,0.0,0.0,0.0,0.0,0.0,0.0,0.0,0.0,0.0,0.0,0.0,0.0,0.0,0.0,0.0,0.0,0.0,-0.8865,-0.9153,-0.9375,-0.9483,-1.0049,-1.0456,-1.0638,-1.0198,-1.0341,-1.109,-1.0103,-0.9606,-0.9542,-0.933,-0.9092,-0.8794,-0.9329,-1.0772,-1.2787,-1.3108,-1.4923,-1.7614,-1.7229,-1.7742,-1.8643,-1.8164,-1.715,-1.5842,-1.459,-1.3262,-1.1926,-1.0812,0.0,0.0,0.0,-1.011,-1.0246,0.0,0.0,-1.0351,-0.9599,-0.9799,-1.0007,-0.9242,-0.891,-0.8857,-0.9008,-0.8786,-0.8464,-0.839,-0.7338,-0.6304,0.0,0.0,0.0,-0.6347,-0.7949,0.0,-0.9042,-0.8778,0.0,-0.7439,0.0,-0.5759,-0.514,-0.5077,0.0,0.0,-0.5237,-0.5243,-0.5359,-0.5432,-0.5432,-0.5432,-0.5428,-0.5428,-0.5428,-0.6277,-0.6805,-0.7138,-0.7952,-0.8816,-0.9656,-0.9719,-1.0453,-1.1572,-1.1501,-1.1703,-1.2257,-1.2892,-1.3091,-1.3067,-1.3568,-1.3659,-1.3453,-1.3243,-1.2921,-1.2634,0.0,0.0,0.0,0.0,0.0,0.0,0.0,0.0,0.0,0.0,0.0,0.0,0.0,0.0,0.0,0.0,0.0,0.0,0.0,-0.8863,-0.8948,-0.8957,-0.911,-0.9362,-0.9742,-0.9232,-0.9327,-1.0087,-0.9236,-0.8728,-0.8579,-0.8457,-0.8218,-0.785,-0.8387,-0.9729,-1.1629,-1.1558,-1.3221,0.0,0.0,-1.5346,-1.6408,-1.5794,-1.5085,-1.432,-1.3576,-1.3014,-1.2586,0.0,0.0,-1.2469,-1.1836,-1.1453,-1.1298,-1.1108,0.0,-1.0846,-1.0188,-1.0171,-1.0115,-0.9061,-0.8804,-0.8778,-0.8644,-0.849,-0.8263,-0.7862,-0.6899,0.0,-0.569,0.0,0.0,0.0,0.0,0.0,-0.9613,-0.901,-0.8507,0.0,-0.7648,0.0,-0.6438,-0.6374,-0.6419,0.0,-0.573,-0.527,-0.5422,-0.5428,-0.5428,-0.5428,-0.5428,-0.5659,-0.6123,-0.7309,-0.8082,-0.8554,-0.9216,-1.0254,-1.1527,-1.1653,-1.2303,-1.3327,0.0,-1.3423,-1.3593,-1.4171,-1.4292,-1.4206,-1.4555,-1.4572,-1.4405,-1.4253,-1.3872,-1.3554,0.0,0.0,0.0,0.0,0.0,0.0,0.0,0.0,0.0,0.0,-0.7899,0.0,0.0,0.0,0.0,0.0,0.0,0.0,0.0,0.0,-0.8661,-0.9253,-0.8389,-0.8169,-0.8755,-0.8199,-0.8093,-0.8476,-0.8075,-0.7673,-0.7322,-0.7414,-0.7202,-0.6729,-0.7158,-0.8331,-0.9937,-0.997,-1.1358,-1.3435,-1.2723,-1.2986,-1.3756,0.0,-1.2559,-1.2328,-1.2074,-1.2631,-1.351,0.0,-1.3857,-1.3866,-1.3569,-1.2914,-1.2354,-1.2989,-1.2088,-1.0853,-1.0931,-1.0415,-0.9762,-0.9113,-0.8857,-0.8731,-0.8437,-0.836,-0.8023,-0.7194,0.0,-0.5955,-0.5528,-0.6335,-0.7019,-0.6905,0.0,-0.8925,-0.964,-0.8735,-0.8335,-0.9175,-0.8613,-0.8156,-0.8027,-0.8027,-0.8027,-0.8027,-0.6601,-0.5756,-0.5756,-0.562,-0.5557,-0.5557,-0.5579,-0.6198,-0.7322,-0.8483,-0.9454,-1.0207,-1.0718,-1.1826,-1.3334,-1.3761,-1.4386,-1.5234,0.0,0.0,-1.5234,-1.5305,-1.5183,-1.4959,-1.5104,-1.5151,-1.5212,-1.5166,-1.4821,-1.4465,0.0,0.0,0.0,0.0,0.0,0.0,0.0,0.0,0.0,0.0,-0.7899,-0.7941,0.0,0.0,0.0,0.0,0.0,0.0,0.0,0.0,0.0,-0.8578,-0.8143,-0.7959,-0.8064,-0.7959,0.0,0.0,0.0,-0.8539,-0.8981,-0.8567,-0.8564,-0.8864,-0.8782,-0.9267,-1.0167,-1.0327,-1.101,-1.1967,-1.2006,-1.2411,-1.2983,-1.278,0.0,0.0,-1.253,-1.3303,-1.4351,-1.4293,-1.4871,-1.5448,-1.478,-1.4697,-1.4742,-1.3936,-1.3455,-1.2982,-1.1886,-1.1166,-1.0466,-0.9814,-0.9211,-0.8731,-0.8437,-0.8031,0.0,0.0,-0.616,-0.5386,-0.5198,-0.5833,-0.6575,-0.7193,0.0,0.0,0.0,0.0,-1.018,0.0,0.0,0.0,0.0,0.0,0.0,0.0,0.0,0.0,-0.7572,-0.6854,-0.6461,-0.6461,-0.668,-0.7327,-0.8359,-0.9652,-1.0454,-1.0728,-1.239,-1.3295,-1.3663,-1.4569,-1.5021,-1.5234,0.0,0.0,-1.5234,-1.607,-1.6314,-1.6321,-1.7114,-1.7245,-1.6905,-1.6548,-1.6143,-1.5708,0.0,0.0,0.0,0.0,0.0,0.0,0.0,-0.7899,-0.7899,-0.7899,-0.8199,-0.8319,-0.8027,-0.8147,-0.8332,0.0,0.0,0.0,0.0,0.0,0.0,0.0,0.0,-0.7899,0.0,0.0,0.0,0.0,0.0,0.0,0.0,0.0,0.0,0.0,0.0,0.0,0.0,-0.9363,-0.9835,0.0,0.0,0.0,0.0,0.0,0.0,0.0,0.0,0.0,-1.4693,-1.4248,-1.4905,-1.5905,-1.5647,-1.5599,-1.5499,-1.4903,-1.4272,-1.3579,-1.258,-1.1557,-1.0669,-0.9969,-0.9309,-0.8651,-0.8091,0.0,0.0,0.0,-0.5898,-0.5446,-0.5244,-0.6036,0.0,-0.743,-0.8666,0.0,0.0,0.0,0.0,0.0,0.0,0.0,0.0,0.0,0.0,0.0,0.0,0.0,-0.8027,-0.7632,-0.7372,-0.7372,-0.8223,-0.8869,-0.9399,-1.0785,-1.178,-1.2338,-1.3222,-1.4235,-1.5226,-1.572,-1.6219,-1.6655,0.0,0.0,-1.6655,-1.7148,-1.7354,-1.7354,-1.7794,-1.7754,-1.7334,-1.6894,-1.6445,-1.6056,0.0,0.0,0.0,0.0,0.0,0.0,0.0,-0.7899,-0.7944,-0.8094,-0.8454,-0.856,-0.8183,-0.8437,-0.8589,0.0,0.0,0.0,0.0,0.0,0.0,0.0,0.0,0.0,0.0,0.0,0.0,0.0,0.0,0.0,0.0,0.0,0.0,0.0,0.0,0.0,0.0,0.0,0.0,0.0,0.0,0.0,0.0,0.0,0.0,0.0,0.0,0.0,0.0,-1.3727,-1.4339,-1.5414,-1.5616,-1.5716,-1.5726,-1.5509,-1.4733,-1.3862,-1.3168,-1.1944,-1.0661,-1.0167,-0.9467,-0.8643,-0.7839,-0.7544,0.0,0.0,-0.5726,-0.5551,-0.5324,-0.6166,-0.7036,0.0,-0.8454,-0.9538,-1.0664,0.0,0.0,0.0,0.0,0.0,0.0,0.0,0.0,0.0,0.0,0.0,0.0,-0.8291,-0.8291,-0.8291,-0.9485,-1.017,-1.0378,-1.1853,-1.2952,-1.3745,-1.4099,-1.5155,-1.6636,-1.6784,-1.7285,-1.8008,0.0,0.0,0.0,-1.8008,-1.8008,-1.7998,-1.791,-1.7676,-1.7314,-1.6787,-1.6367,-1.6056,0.0,0.0,0.0,0.0,0.0,0.0,0.0,-0.7899,-0.8109,-0.8725,-0.8334,-0.8243,-0.8911,-0.9185,-0.9184,0.0,0.0,0.0,0.0,0.0,0.0,0.0,0.0,0.0,0.0,0.0,0.0,0.0,0.0,0.0,0.0,0.0,0.0,0.0,0.0,0.0,0.0,0.0,0.0,0.0,0.0,0.0,0.0,0.0,0.0,0.0,0.0,0.0,0.0,0.0,0.0,-1.3651,-1.3746,-1.4897,-1.6055,-1.5121,0.0,0.0,-1.3862,-1.2288,-1.0762,-1.0712,-0.9934,-0.8965,-0.8206,0.0,-0.7197,-0.6414,-0.5753,-0.5342,-0.5316,-0.5604,-0.6215,-0.7425,0.0,-0.9095,-1.0615,-1.1354,0.0,0.0,0.0,0.0,0.0,0.0,0.0,0.0,0.0,0.0,0.0,-0.9204,-0.9204,-0.9204,-0.9767,-1.0447,-1.1286,-1.2785,-1.36,-1.3745,-1.5508,-1.6419,-1.6636,-1.7501,-1.794,-1.8008,0.0,0.0,0.0,-1.8008,-1.8008,-1.7969,-1.7588,-1.7422,-1.7285,-1.6436,-1.6154,-1.6056,0.0,0.0,0.0,0.0,0.0,0.0,-0.7899,-0.7899,-0.7989,-0.8259,-0.8424,-0.85,-0.8495,-0.9026,-0.9223,-0.8814,0.0,0.0,0.0,0.0,0.0,0.0,0.0,0.0,0.0,0.0,0.0,0.0,0.0,0.0,0.0,0.0,0.0,0.0,0.0,0.0,0.0,0.0,0.0,0.0,0.0,0.0,0.0,0.0,0.0,0.0,0.0,0.0,0.0,0.0,0.0,0.0,-1.2518,-1.3432,0.0,0.0,-1.4827,-1.4695,-1.4437,-1.3205,-1.1895,-1.1507,-1.0598,-0.9573,-0.8684,0.0,-0.7138,-0.6256,-0.567,-0.5309,-0.5309,-0.5371,-0.5746,-0.6605,-0.7211,-0.8041,-0.9243,-0.9891,-1.068,0.0,0.0,0.0,0.0,0.0,0.0,0.0,0.0,0.0,0.0,-1.0598,-1.011,-1.011,-1.0929,-1.1692,-1.2301,-1.3562,-1.4485,-1.5032,-1.5789,-1.6486,-1.7063,-1.7494,-1.7773,-1.8008,0.0,0.0,0.0,-1.8008,-1.8008,-1.7988,-1.7822,-1.7607,-1.7305,-1.6689,-1.6299,-1.6056,0.0,0.0,0.0,0.0,0.0,-0.7899,-0.7899,-0.7899,-0.7974,-0.8169,-0.8439,-0.8576,-0.8501,-0.8863,-0.9011,-0.8786,-0.8852,0.0,0.0,0.0,0.0,0.0,0.0,0.0,0.0,0.0,0.0,0.0,0.0,0.0,0.0,0.0,0.0,0.0,0.0,0.0,0.0,0.0,0.0,0.0,0.0,0.0,0.0,0.0,0.0,0.0,0.0,0.0,0.0,0.0,0.0,0.0,0.0,-1.1984,-1.3075,0.0,-1.4499,-1.4606,-1.4718,-1.3772,-1.2677,-1.219,-1.1186,-1.0056,-0.9106,-0.8257,-0.7424,-0.6443,-0.5859,-0.546,-0.546,-0.546,-0.56,-0.5981,-0.6636,-0.7394,-0.8351,-0.9046,-0.9933,0.0,0.0,0.0,0.0,0.0,0.0,0.0,0.0,0.0,0.0,0.0,-1.1296,-1.1296,-1.2093,-1.2695,-1.3014,-1.4146,-1.5059,-1.5725,-1.5999,-1.6487,-1.7197,-1.7566,-1.7915,0.0,0.0,0.0,0.0,-1.8517,-1.8446,-1.8238,-1.7931,-1.769,-1.7549,-1.6867,-1.6608,-1.6512,0.0,0.0,0.0,0.0,0.0,0.0,-0.7899,-0.7899,-0.8139,-0.88,-0.8304,-0.8285,-0.9289,-0.8804,-0.8554,-0.8869,-0.8891,0.0,0.0,0.0,0.0,0.0,0.0,0.0,0.0,0.0,-0.8891,-0.8891,-0.8891,0.0,0.0,0.0,0.0,0.0,0.0,0.0,0.0,0.0,0.0,0.0,0.0,0.0,0.0,0.0,0.0,0.0,0.0,0.0,0.0,0.0,0.0,0.0,0.0,-1.0715,-1.1665,-1.2859,-1.3569,-1.4116,-1.4636,-1.3846,-1.2822,-1.2773,-1.1686,-1.0365,-0.9497,-0.8837,-0.8148,-0.7251,-0.6457,-0.5882,-0.5882,-0.5882,-0.5836,-0.5733,-0.6562,-0.7499,-0.8389,-0.9379,0.0,0.0,0.0,0.0,0.0,0.0,0.0,0.0,0.0,0.0,0.0,0.0,-1.3009,-1.3009,-1.323,-1.3418,-1.3418,-1.4676,-1.533,-1.533,-1.6265,-1.6675,-1.6758,-1.8027,0.0,0.0,0.0,0.0,0.0,-1.9727,-1.9449,-1.8769,-1.7669,-1.7653,-1.8167,-1.6956,-1.6933,-1.7578,0.0,0.0,0.0,0.0,0.0,0.0,0.0,-0.7899,-0.7974,-0.8184,-0.8034,-0.8018,-0.833,-0.8397,-0.8438,-0.8551,-0.8766,0.0,0.0,0.0,0.0,0.0,0.0,0.0,0.0,0.0,-0.9213,-0.9864,-0.9864,-1.0169,-1.0738,0.0,0.0,0.0,0.0,0.0,0.0,0.0,0.0,0.0,0.0,0.0,0.0,0.0,0.0,0.0,0.0,0.0,0.0,0.0,0.0,0.0,0.0,0.0,0.0,-1.1442,-1.268,-1.3747,-1.3496,-1.3217,-1.2828,-1.2054,-1.124,-1.0464,-0.9681,-0.9094,-0.8444,-0.7338,-0.6854,-0.6575,-0.6358,-0.6305,-0.6546,-0.7284,-0.7289,-0.7734,0.0,0.0,0.0,0.0,0.0,0.0,0.0,0.0,0.0,0.0,0.0,0.0,0.0,0.0,-1.4145,-1.3009,-1.3605,-1.4092,-1.4426,-1.5371,-1.588,-1.588,-1.6146,-1.6279,-1.6341,-1.7246,0.0,0.0,0.0,0.0,0.0,-1.9155,-1.9055,-1.884,-1.8517,-1.8324,-1.8247,-1.7862,-1.7644,-1.7578,0.0,0.0,0.0,0.0,0.0,0.0,0.0,-0.7856,-0.7899,-0.7899,-0.7899,-0.7928,-0.7969,-0.8229,-0.8441,-0.8504,-0.8743,0.0,0.0,0.0,0.0,0.0,0.0,0.0,-0.8705,-0.884,-0.9333,-1.0192,-1.0262,-1.0749,-1.1565,-1.0977,-1.062,0.0,0.0,0.0,0.0,0.0,0.0,0.0,0.0,0.0,0.0,0.0,0.0,0.0,0.0,0.0,0.0,0.0,0.0,0.0,0.0,0.0,0.0,0.0,-1.1461,-1.2626,-1.2949,-1.3025,-1.2828,-1.2089,-1.1313,-1.0525,-0.9915,-0.9435,-0.8854,-0.7919,-0.7502,-0.72,-0.699,-0.6829,-0.6907,-0.7465,-0.7553,-0.8122,0.0,0.0,0.0,0.0,0.0,0.0,0.0,0.0,0.0,0.0,0.0,0.0,0.0,0.0,-1.5216,-1.3974,-1.4392,-1.4809,-1.507,-1.5571,-1.5999,-1.6227,-1.6227,-1.6394,-1.6677,0.0,0.0,0.0,0.0,0.0,0.0,-1.9575,-1.9459,-1.9227,-1.8943,-1.8861,-1.8818,-1.854,-1.8444,-1.8447,0.0,0.0,0.0,0.0,0.0,0.0,0.0,-0.7768,-0.7899,-0.7899,-0.7899,-0.7956,-0.8077,-0.8253,-0.8467,-0.8669,0.0,0.0,0.0,0.0,0.0,0.0,0.0,0.0,-0.8717,-0.8852,-0.9304,-1.0119,-1.0308,-1.0831,-1.1619,-1.1736,-1.1377,-1.0613,-1.0532,0.0,0.0,0.0,0.0,0.0,0.0,0.0,0.0,0.0,0.0,0.0,0.0,0.0,0.0,0.0,0.0,0.0,0.0,0.0,0.0,0.0,0.0,0.0,0.0,-1.2933,-1.2645,-1.2611,-1.1639,-1.0553,-1.0144,-0.9763,0.0,-0.8906,-0.8277,-0.7821,-0.7822,-0.7528,-0.7188,-0.6879,-0.7694,0.0,0.0,0.0,0.0,0.0,0.0,0.0,0.0,0.0,0.0,0.0,0.0,0.0,0.0,0.0,0.0,-1.5575,-1.5575,-1.5517,-1.5468,-1.5468,-1.5864,-1.6595,-1.6595,-1.6922,-1.7644,0.0,0.0,0.0,0.0,0.0,0.0,-2.0655,-2.0288,-1.9747,-1.9044,-1.9202,-1.9695,-1.9044,-1.9202,-1.9798,0.0,0.0,0.0,0.0,0.0,0.0,0.0,0.0,0.0,0.0,-0.7899,-0.7914,-0.7941,-0.8079,-0.8253,0.0,0.0,0.0,0.0,0.0,0.0,0.0,0.0,0.0,-0.8863,-0.899,-0.9791,-1.1306,-1.1459,-1.2299,-1.3756,-1.3086,-1.2408,-1.1688,-1.0973,-1.032,0.0,0.0,0.0,0.0,0.0,0.0,0.0,0.0,0.0,0.0,0.0,0.0,0.0,0.0,0.0,0.0,0.0,0.0,0.0,0.0,-0.9733,-1.005,-1.0871,0.0,-1.103,-1.0976,-1.0506,-0.998,0.0,-0.9697,-0.962,-0.8949,-0.8899,-0.9024,-0.913,-0.9087,-0.9203,-0.9772,-0.998,-1.0632,0.0,0.0,0.0,0.0,0.0,0.0,0.0,0.0,0.0,0.0,0.0,0.0,0.0,0.0,0.0,-1.7079,-1.7079,-1.68,-1.6265,-1.6255,-1.6585,-1.7357,-1.7357,-1.7413,-1.7633,0.0,0.0,0.0,0.0,0.0,-2.0012,-2.0012,-1.9924,-1.9798,-1.9592,-1.9643,-1.9798,-1.9592,-1.9643,-1.9798,0.0,0.0,0.0,0.0,0.0,0.0,0.0,0.0,0.0,0.0,0.0,-0.7899,-0.7899,-0.8023,0.0,0.0,0.0,0.0,0.0,0.0,0.0,0.0,0.0,-0.8891,-0.8891,-0.9043,-0.99,-1.1559,-1.1783,-1.2746,-1.4344,-1.3931,-1.3143,-1.2058,-1.0829,-1.0131,0.0,0.0,0.0,0.0,0.0,0.0,0.0,0.0,0.0,0.0,0.0,-1.0185,0.0,-1.0385,-1.0375,-1.0235,0.0,0.0,0.0,0.0,-0.9317,-0.9395,-0.9982,-1.0669,-1.1187,-1.1001,-1.1011,-1.0932,-1.0416,-1.0225,-0.9983,-0.941,-0.9369,-0.9509,-0.9814,-1.0148,0.0,0.0,-1.1806,0.0,0.0,0.0,0.0,0.0,0.0,0.0,0.0,0.0,0.0,0.0,0.0,0.0,0.0,0.0,0.0,0.0,-1.7578,-1.7413,-1.7034,-1.6978,-1.7357,-1.8112,-1.8112,-1.8274,-1.8608,0.0,0.0,0.0,0.0,0.0,-1.9798,-1.9798,-1.9798,-1.9798,-1.9798,-1.9798,-1.9798,-1.9798,-1.9798,-1.9798,0.0,0.0,0.0,0.0,0.0,0.0,0.0,0.0,0.0,0.0,0.0,0.0,0.0,0.0,0.0,0.0,0.0,0.0,0.0,0.0,0.0,0.0,-0.8891,-0.8942,-0.9061,-0.9105,-0.9878,-1.1436,-1.1772,-1.2651,-1.4076,-1.4356,-1.3637,-1.2049,-1.0605,-0.993,0.0,0.0,0.0,0.0,0.0,0.0,0.0,0.0,0.0,0.0,0.0,0.0,0.0,-1.0751,-1.0916,-1.0855,-1.0475,0.0,0.0,0.0,0.0,0.0,-0.9836,-1.1157,-1.2187,-1.1595,-1.1924,-1.2211,-1.1425,-1.0856,-1.0386,-1.0084,0.0,0.0,0.0,-1.1149,0.0,0.0,0.0,0.0,0.0,0.0,0.0,0.0,0.0,0.0,0.0,0.0,0.0,0.0,0.0,0.0,0.0,0.0,0.0,0.0,-1.7961,-1.7961,-1.7961,-1.7852,-1.8124,-1.8874,-1.8874,-1.9202,-1.9798,-1.9798,0.0,0.0,0.0,0.0,-1.9798,-1.9798,-1.9798,-1.9798,-1.9798,-1.9798,-1.9798,-1.9798,-1.9798,-1.9798,0.0,0.0,0.0,0.0,0.0,0.0,0.0,0.0,0.0,0.0,0.0,0.0,0.0,0.0,0.0,0.0,0.0,0.0,0.0,0.0,0.0,-0.8891,-0.8891,-0.9196,-0.9815,-0.9467,-1.0016,-1.1571,-1.1908,-1.2552,-1.345,-1.4176,-1.3637,-1.2058,-1.1131,-1.0386,-0.9818,-0.9881,0.0,0.0,0.0,0.0,0.0,0.0,0.0,0.0,0.0,0.0,0.0,-1.0104,-1.0075,-1.0038,-0.9747,0.0,0.0,0.0,0.0,0.0,-1.0744,-1.2214,-1.294,-1.1191,-1.1586,-1.2082,-1.0834,-1.0697,-1.0791,0.0,0.0,0.0,0.0,-1.2734,0.0,0.0,0.0,0.0,0.0,0.0,0.0,0.0,0.0,0.0,0.0,0.0,0.0,0.0,0.0,0.0,0.0,0.0,0.0,0.0,0.0,-1.9475,-1.9475,-1.8821,-1.8874,-1.9631,-1.9631,-1.9695,-1.9798,-1.9798,-1.9798,0.0,0.0,-1.9798,-1.9798,-1.9798,-1.9798,-1.9798,-1.9798,-1.9798,-1.9798,-1.9798,-1.9798,-1.9798,0.0,0.0,0.0,0.0,0.0,0.0,0.0,0.0,0.0,0.0,0.0,0.0,0.0,0.0,0.0,0.0,0.0,0.0,0.0,0.0,-0.8891,-0.8891,-0.8891,-0.9061,-0.9388,-0.9753,-1.0511,-1.1653,-1.2386,-1.317,-1.393,-1.3435,-1.2811,-1.2049,-1.088,-1.0173,-0.9869,-0.9965,0.0,0.0,0.0,0.0,0.0,0.0,0.0,0.0,0.0,0.0,0.0,0.0,-1.0188,-1.0426,-0.9717,0.0,0.0,0.0,0.0,0.0,-1.0048,-1.1555,-1.2713,-1.171,-1.3011,-1.4358,-1.3775,-1.3525,-1.3381,0.0,0.0,0.0,0.0,0.0,0.0,0.0,0.0,0.0,0.0,0.0,0.0,0.0,0.0,0.0,0.0,0.0,0.0,0.0,0.0,0.0,0.0,0.0,0.0,0.0,0.0,0.0,-1.9798,-1.9475,-1.9475,-1.9798,-1.9798,-1.9798,-1.9798,-1.9798,-1.9798,-1.9798,0.0,-1.9798,-1.9798,-1.9798,-1.9798,-1.9798,-1.9798,-1.9798,-1.9798,-1.9798,-1.9798,-1.9798,0.0,0.0,0.0,0.0,0.0,0.0,0.0,0.0,0.0,0.0,0.0,0.0,0.0,0.0,0.0,0.0,0.0,0.0,0.0,-0.8771,-0.8858,-0.8891,-0.8891,-0.9061,-0.9399,-1.0142,-1.0966,-1.1937,-1.2851,-1.3721,-1.4469,-1.3049,-1.2278,-1.2049,-1.0744,-1.0051,-0.9875,-1.0025,-1.0078,0.0,0.0,0.0,0.0,0.0,0.0,0.0,0.0,0.0,0.0,0.0,0.0,0.0,0.0,0.0,0.0,-0.9749,-0.9482,-0.9448,-0.9746,-1.1092,-1.2491,-1.2694,-1.4226,-1.5801,-1.6166,-1.574,-1.5343,0.0,0.0,0.0,0.0,0.0,0.0,0.0,0.0,0.0,0.0,0.0,0.0,0.0,0.0,0.0,0.0,0.0,0.0,0.0,0.0,0.0,0.0,0.0,0.0,0.0,0.0,0.0,-1.9798,-1.9798,-1.9798,-1.9798,-1.9798,-1.9798,-1.9798,-1.9798,-1.9798,-1.9798,-1.9798,-1.9798,-1.9798,-1.9798,-1.9798,-1.9798,-1.9798,-1.9798,-1.9798,-1.9798,-1.9798,-1.9798,0.0,0.0,0.0,0.0,0.0,0.0,0.0,0.0,0.0,0.0,0.0,0.0,0.0,0.0,0.0,0.0,0.0,0.0,0.0,-0.8604,-0.8771,-0.8891,-0.8891,-0.9535,-1.091,-1.0645,-1.1199,-1.264,-1.3079,-1.3721,-1.4469,-1.3629,-1.2821,-1.2068,-1.1278,-1.0506,-0.9818,-0.9941,-1.0001,-1.0006,0.0,0.0,0.0,0.0,0.0,0.0,0.0,0.0,0.0,0.0,0.0,0.0,0.0,0.0,-0.9779,-0.9768,-0.9732,-0.9911,-1.1046,-1.1964,-1.2884,-1.4041,-1.4123,-1.4218,-1.5541,-1.5128,-1.4912,-1.6486,0.0,0.0,0.0,0.0,0.0,0.0,0.0,0.0,0.0,0.0,0.0,0.0,0.0,0.0,0.0,0.0,0.0,0.0,0.0,0.0,0.0,0.0,0.0,0.0,0.0,0.0,-1.9798,-1.9798,-1.9798,-1.9798,-1.9798,-1.9798,-1.9798,-1.9798,-1.9798,-1.9798,-1.9798,-1.9798,-1.9798,-1.9798,-1.9798,-1.9798,-1.9798,-1.9798,-1.9798,-1.9798,-1.9798,-1.9798,0.0,0.0,0.0,0.0,0.0,0.0,0.0,0.0,0.0,0.0,0.0,0.0,0.0,0.0,0.0,0.0,0.0,0.0,0.0,-0.8579,-0.876,-0.8891,-0.8979,-0.9503,-1.0514,-1.0995,-1.1817,-1.2951,-1.3183,-1.3464,-1.3739,-1.2425,-1.1654,-1.1324,-1.0636,-1.0151,-0.9882,-1.0016,-1.0065,-1.0074,-1.0135,0.0,0.0,0.0,0.0,0.0,0.0,0.0,0.0,0.0,-0.9971,-0.996,-0.9875,-0.9818,-0.9775,-0.9784,-0.9754,-0.9787,-1.0139,-1.1526,-1.305,-1.3916,-1.4502,-1.5382,-1.7288,-1.7804,-1.8182,-1.9226,-1.9466,0.0,0.0,0.0,0.0,0.0,0.0,0.0,0.0,0.0,0.0,0.0,0.0,0.0,0.0,0.0,0.0,0.0,0.0,0.0,0.0,0.0,0.0,0.0,0.0,0.0,0.0,-1.9798,-1.9798,-1.9798,-1.9798,-1.9798,-1.9798,-1.9798,-1.9798,-1.9798,-1.9798,-1.9798,-1.9798,-1.9798,-1.9798,-1.9798,-1.9798,-1.9798,-1.9798,-1.9798,-1.9798,-1.9798,0.0,0.0,0.0,0.0,0.0,0.0,0.0,0.0,0.0,0.0,0.0,0.0,0.0,0.0,0.0,0.0,0.0,0.0,-0.8374,-0.853,-0.87,-0.8891,-0.899,-0.9431,-1.0279,-1.0975,-1.1779,-1.2694,-1.285,-1.2913,-1.2894,-1.1562,-1.1082,-1.1292,-1.0351,-1.009,-1.0328,-1.0172,-1.0094,-1.0102,-1.018,-1.0207,0.0,0.0,0.0,0.0,0.0,0.0,0.0,0.0,-0.9997,-0.9987,-0.9949,-0.9863,-0.9798,-0.9825,-0.9953,-1.006,-0.9914,-1.1404,-1.3142,-1.3774,-1.5066,-1.6693,-1.8603,-1.9299,-1.9903,-2.1133,-2.1227,-2.0958,0.0,0.0,0.0,0.0,0.0,0.0,0.0,0.0,0.0,0.0,0.0,0.0,0.0,0.0,0.0,0.0,0.0,0.0,0.0,0.0,0.0,0.0,0.0,0.0,0.0,-1.956,-1.9635,-1.9798,-1.9798,-1.9798,-1.9798,-1.9798,-1.9798,-1.9798,-1.9798,-1.9798,-1.9798,-1.9798,-1.9798,-1.9798,-1.9798,-1.9798,-1.9798,-1.9798,-1.9798,-1.9798,0.0,0.0,0.0,0.0,0.0,0.0,0.0,0.0,0.0,0.0,0.0,0.0,0.0,0.0,0.0,0.0,0.0,0.0,-0.8361,-0.8403,-0.8551,-0.888,-0.8902,-0.9399,-1.0475,-1.0486,-1.092,-1.1794,-1.2008,-1.2095,-1.2068,-1.1325,-1.1453,-1.2202,-1.0675,-1.0478,-1.1239,-1.0443,-1.0094,-1.0121,-1.0173,-1.019,0.0,0.0,0.0,0.0,0.0,0.0,0.0,0.0,-0.9997,-0.9997,-0.9997,-0.9916,-0.983,-0.9888,-1.0361,-1.0867,-1.0748,-1.1819,-1.3172,-1.3846,0.0,0.0,-1.9052,-1.8958,-1.931,-2.1798,-2.1928,-2.1582,-2.1582,0.0,0.0,0.0,0.0,0.0,0.0,0.0,0.0,0.0,0.0,0.0,0.0,0.0,0.0,0.0,0.0,0.0,0.0,0.0,0.0,0.0,0.0,0.0,0.0,-1.902,-1.9284,-1.9798,-1.9798,-1.9798,-1.9798,-1.9798,-1.9798,-1.9798,-1.9798,-1.9798,-1.9798,-1.9798,-1.9798,-1.9798,-1.9798,-1.9798,-1.9798,-1.9798,-1.9798,-1.9798,0.0,0.0,0.0,0.0,0.0,0.0,0.0,0.0,0.0,0.0,0.0,0.0,0.0,0.0,0.0,0.0,0.0,0.0,-0.8171,-0.8322,-0.8517,-0.8748,-0.8936,-0.9241,-0.9649,-0.9834,-1.0621,-1.2008,-1.1543,-1.1325,-1.1307,-1.056,-1.0364,-1.059,-1.0179,-1.013,-1.0369,-1.0189,-1.0094,-1.0121,-1.0173,-1.019,0.0,0.0,0.0,0.0,0.0,0.0,0.0,0.0,0.0,0.0,-1.0074,-1.0375,-1.0608,-1.005,-1.0361,-1.0884,-1.0858,-1.242,0.0,-1.5462,0.0,0.0,0.0,-2.0981,0.0,0.0,-2.1928,-2.1521,0.0,0.0,0.0,0.0,0.0,0.0,0.0,0.0,0.0,0.0,0.0,0.0,0.0,0.0,0.0,0.0,0.0,0.0,0.0,0.0,0.0,0.0,0.0,0.0,0.0,0.0,-1.9058,-1.9258,-1.9623,-1.9798,-1.9798,-1.9798,-1.9798,-1.9798,-1.9798,-1.9798,-1.9798,-1.9798,-1.9798,-1.9798,-1.9798,-1.9798,-1.9798,-1.9798,-1.9798,-1.9798,0.0,0.0,0.0,0.0,0.0,0.0,0.0,0.0,0.0,0.0,-0.7365,0.0,0.0,0.0,0.0,0.0,0.0,0.0,0.0,-0.8211,-0.8412,-0.8693,-0.8863,-0.9064,-0.9303,-0.9559,-1.0176,-1.1149,-1.0732,-1.0517,-1.0499,-1.0119,-1.012,-1.0434,-1.0154,-1.022,-1.0536,-1.0236,-1.0094,-1.0121,-1.0173,-1.019,-1.0197,0.0,0.0,0.0,0.0,0.0,0.0,0.0,0.0,0.0,-1.0094,0.0,-1.0633,-1.0499,-1.0911,-1.1561,-1.2234,-1.3661,0.0,-1.7155,-1.899,-2.0716,-2.2202,0.0,0.0,0.0,0.0,0.0,0.0,0.0,0.0,0.0,0.0,0.0,0.0,0.0,0.0,0.0,0.0,0.0,0.0,0.0,0.0,0.0,0.0,0.0,0.0,0.0,0.0,0.0,0.0,0.0,0.0,0.0,0.0,-1.9019,-1.9106,-1.9284,-1.9497,-1.971,-1.9798,-1.9798,-1.9798,-1.9798,-1.9798,-1.9798,-1.9798,-1.9798,-1.9798,-1.9798,-1.9798,-1.9798,-1.9798,-1.9798,0.0,0.0,0.0,0.0,0.0,0.0,0.0,0.0,0.0,0.0,-0.7591,-0.7885,0.0,0.0,0.0,0.0,0.0,0.0,0.0,-0.8088,-0.8264,-0.8628,-0.8677,-0.8891,-0.9303,-0.955,-0.9691,-0.9698,-0.9775,-0.9798,-0.9811,-0.993,-1.0426,-1.1167,-1.0424,-1.054,-1.1233,-1.0444,-1.0094,-1.0117,-1.0167,-1.0188,-1.0197,-1.02,0.0,0.0,0.0,0.0,0.0,0.0,0.0,0.0,-1.0094,-1.0091,-1.0235,-1.095,-1.1671,-1.2538,-1.4147,-1.5184,0.0,-1.8809,-2.0118,0.0,-2.2825,0.0,0.0,0.0,0.0,0.0,0.0,0.0,0.0,0.0,0.0,0.0,0.0,0.0,0.0,0.0,0.0,0.0,0.0,0.0,0.0,0.0,0.0,0.0,0.0,0.0,0.0,0.0,0.0,0.0,0.0,0.0,0.0,0.0,-1.8575,-1.8599,-1.9105,-1.9548,-1.9812,-1.9901,-1.994,-1.9991,-1.9991,-1.9901,-1.9901,-1.994,-1.985,-1.985,-1.9901,-1.9798,-1.9798,-1.9798,0.0,0.0,0.0,0.0,0.0,0.0,0.0,0.0,0.0,0.0,0.0,0.0,0.0,0.0,0.0,0.0,0.0,0.0,0.0,-0.8051,-0.8129,-0.8224,-0.8587,-0.8938,-0.9303,-0.9447,-0.9601,-0.9698,-0.9775,-0.9831,-0.9869,-0.9952,-1.0135,-1.0351,-1.0186,-1.019,-1.0363,-1.0171,-1.0094,-1.0094,-1.0129,-1.0141,-1.0195,-1.0201,-1.0243,0.0,0.0,0.0,0.0,0.0,0.0,0.0,-1.0094,-1.0449,-1.0779,-1.0337,-1.1197,-1.247,-1.3362,-1.5166,0.0,0.0,-2.1644,-2.3043,-2.3176,-2.2947,0.0,0.0,0.0,0.0,0.0,0.0,0.0,0.0,0.0,0.0,0.0,0.0,0.0,0.0,0.0,0.0,0.0,0.0,0.0,0.0,0.0,0.0,0.0,0.0,0.0,0.0,0.0,0.0,-1.8888,-1.881,-1.8821,0.0,-1.9273,-1.9539,-1.9642,-1.931,-1.971,-2.0597,-2.1099,-2.128,-2.1232,-2.0782,-2.0868,-2.1183,-2.0181,-2.0105,-2.0497,-2.0003,-1.9798,-1.9798,0.0,0.0,0.0,0.0,0.0,0.0,0.0,0.0,0.0,0.0,0.0,0.0,0.0,0.0,0.0,0.0,0.0,0.0,0.0,-0.7955,-0.8079,-0.824,-0.8693,-0.903,-0.9199,-0.934,-0.9474,-0.9609,-0.9638,-0.9717,-0.9863,-1.0369,-1.0651,-1.0679,-1.0701,-1.0714,-1.0694,-1.0286,-1.0094,-1.0094,-1.0094,-1.0141,-1.0198,-1.0189,-1.0217,-1.0253,-1.0253,0.0,0.0,0.0,0.0,0.0,0.0,0.0,-1.0608,-1.0578,-1.1118,-1.2052,-1.3559,0.0,0.0,-2.0333,0.0,-2.3816,-2.3305,-2.3069,0.0,0.0,0.0,0.0,0.0,0.0,0.0,0.0,0.0,0.0,0.0,0.0,0.0,0.0,0.0,0.0,0.0,0.0,0.0,0.0,0.0,0.0,0.0,0.0,0.0,0.0,0.0,0.0,-1.9281,-1.9016,-1.8897,-1.8897,-1.8948,-1.9127,-1.9386,-1.9389,-1.9747,-2.0341,-2.0639,-2.0974,-2.125,-2.0935,-2.1145,-2.1649,-2.0988,-2.0904,-2.1161,-2.0484,-2.0308,-2.0245,0.0,0.0,0.0,0.0,0.0,0.0,0.0,0.0,0.0,0.0,0.0,0.0,0.0,0.0,0.0,0.0,0.0,0.0,0.0,-0.7956,-0.8123,-0.8441,-0.8818,-0.9057,-0.9129,-0.9237,-0.9376,-0.9534,-0.9534,-0.9696,-1.0012,-1.0854,-1.1258,-1.128,-1.1345,-1.1297,-1.1137,-1.0406,-1.0094,-1.0094,-1.0094,-1.0135,-1.0202,-1.0202,-1.0209,-1.023,-1.0273,-1.0248,-1.0195,-1.0195,0.0,0.0,0.0,0.0,-1.0208,-1.0865,-1.1092,-1.1572,-1.3682,0.0,-1.7032,-2.0848,-2.285,0.0,-2.3379,0.0,0.0,0.0,0.0,0.0,0.0,0.0,0.0,0.0,0.0,0.0,0.0,0.0,0.0,0.0,0.0,0.0,0.0,0.0,0.0,0.0,0.0,0.0,0.0,0.0,0.0,0.0,0.0,-1.969,-1.969,-1.9244,-1.9043,-1.9043,-1.8574,-1.8607,-1.907,-1.9559,-1.9835,-1.9943,-2.0087,-2.0452,-2.0971,-2.0823,-2.1202,-2.1839,-2.1652,-2.1661,-2.1805,-2.1161,-2.0894,-2.0696,0.0,0.0,0.0,0.0,0.0,0.0,0.0,0.0,0.0,0.0,-0.7621,-0.7899,-0.7899,-0.7899,0.0,0.0,0.0,0.0,-0.8077,0.0,0.0,-0.8657,-0.8712,-0.8913,-0.9274,-0.9303,-0.9421,-0.9683,-0.9683,-1.0039,-1.0754,-1.0956,-1.1098,-1.1211,-1.1222,-1.087,-1.0267,-1.0152,-1.0094,-1.0094,-1.0094,-1.0148,-1.0207,-1.0207,-1.0245,-1.0273,-1.0231,-1.0213,-1.0195,-1.0195,-1.0153,0.0,0.0,0.0,0.0,0.0,-1.0615,-1.1368,0.0,0.0,-1.8427,0.0,-2.2281,-2.2883,0.0,0.0,0.0,0.0,0.0,0.0,0.0,0.0,0.0,0.0,0.0,0.0,0.0,0.0,0.0,0.0,0.0,0.0,0.0,0.0,0.0,0.0,0.0,0.0,0.0,0.0,-1.969,-1.969,-1.969,-1.969,-1.969,-1.9639,-1.9603,-1.9603,-1.953,-1.9523,-1.9612,-1.9664,-2.0031,-2.0598,-2.1193,-2.1484,-2.1517,-2.095,-2.1467,-2.2477,-2.1327,-2.1605,-2.2498,-2.1805,-2.1245,-2.0795,0.0,0.0,0.0,0.0,0.0,0.0,0.0,0.0,0.0,0.0,0.0,-0.7899,-0.7899,-0.7899,0.0,0.0,0.0,0.0,-0.8088,-0.828,0.0,-0.8693,-0.8771,-0.8925,-0.9179,-0.9179,-0.9321,-0.9593,-0.9593,-1.0265,-1.1581,-1.1589,-1.1934,-1.2463,-1.2069,-1.1718,-1.1372,-1.0445,-1.007,-1.0098,-1.0147,-1.0479,-1.0882,-1.0392,-1.0513,-1.0916,-1.0428,-1.0233,-1.0194,-1.0199,-1.0185,0.0,0.0,0.0,0.0,0.0,0.0,-1.0809,-1.2345,-1.505,-1.7913,0.0,-2.1606,-2.2806,-2.2991,0.0,0.0,0.0,0.0,0.0,0.0,0.0,0.0,0.0,0.0,0.0,0.0,0.0,0.0,0.0,0.0,0.0,0.0,0.0,0.0,0.0,0.0,0.0,0.0,-1.969,-1.969,-1.969,-1.969,0.0,-1.969,-1.969,-1.969,-1.969,-1.969,-1.969,-1.969,-1.969,-1.9879,-2.0171,-2.0429,-2.0782,-2.1102,-2.0823,-2.1469,-2.2626,-2.2075,-2.2411,-2.3143,-2.2483,-2.2067,-2.1752,0.0,0.0,0.0,0.0,0.0,0.0,0.0,0.0,0.0,0.0,0.0,0.0,-0.7899,0.0,0.0,0.0,0.0,0.0,-0.8287,0.0,0.0,0.0,-0.8852,-0.8968,-0.9088,-0.9129,-0.9274,-0.95,-0.9534,-1.043,-1.2095,-1.2095,-1.2686,-1.3727,-1.2978,-1.247,-1.2053,-1.0828,-1.0331,-1.0396,-1.0459,-1.0892,-1.1485,-1.1258,-1.1453,-1.1774,-1.1151,-1.0761,0.0,0.0,0.0,0.0,0.0,0.0,0.0,0.0,0.0,0.0,0.0,0.0,-1.6371,-1.7996,-2.0241,-2.2118,0.0,0.0,0.0,0.0,0.0,0.0,0.0,0.0,0.0,0.0,0.0,0.0,0.0,0.0,0.0,0.0,0.0,0.0,0.0,0.0,0.0,0.0,0.0,0.0,-1.969,-1.9818,-1.9818,-1.969,-1.9818,-1.9803,-1.969,-1.969,-1.969,-1.969,-1.969,-1.969,-1.969,-1.969,-1.969,-1.969,-1.969,-1.9974,-2.0453,-2.0453,-2.1141,-2.2203,-2.2368,-2.2802,-2.3342,-2.3054,-2.283,-2.2558,0.0,0.0,0.0,0.0,0.0,0.0,0.0,0.0,0.0,0.0,0.0,0.0,-0.7899,-0.7899,-0.7956,-0.8077,0.0,0.0,0.0,0.0,0.0,0.0,0.0,0.0,-0.9088,-0.9218,-0.9358,-0.95,-0.9625,-1.0516,-1.2095,-1.2095,-1.2939,-1.4419,-1.3678,-1.2543,-1.1167,-1.1162,-1.1129,-1.1141,-1.1283,-1.1399,-1.1678,-1.3208,-1.3407,-1.2812,-1.2711,0.0,0.0,0.0,0.0,0.0,0.0,0.0,0.0,0.0,0.0,0.0,0.0,-1.2334,0.0,-1.5561,-1.7743,0.0,0.0,0.0,0.0,0.0,0.0,0.0,0.0,0.0,0.0,0.0,0.0,0.0,0.0,0.0,0.0,0.0,0.0,0.0,0.0,0.0,0.0,0.0,0.0,0.0,-1.969,-2.0054,-2.0089,-1.9711,-2.007,-2.0089,-1.9711,-1.969,-1.969,-1.969,-1.969,-1.969,-1.969,-1.969,-1.969,-1.969,-1.969,-1.9705,-1.9735,-1.9735,-2.0168,-2.0872,-2.15,-2.2143,-2.2802,-2.3342,-2.3187,-2.2694,0.0,0.0,0.0,0.0,0.0,0.0,0.0,0.0,0.0,0.0,0.0,0.0,0.0,-0.8232,-0.8229,-0.828,-0.8361,0.0,0.0,0.0,0.0,0.0,0.0,0.0,-0.9088,-0.9139,-0.9284,-0.95,-0.9542,-1.0165,-1.1333,-1.1333,-1.1663,-1.2262,-1.2474,-1.2315,-1.1805,-1.0791,-1.0413,-1.0555,-1.1158,-1.1751,-1.2332,-1.298,-1.3414,-1.3665,0.0,0.0,0.0,0.0,0.0,0.0,-1.0201,-1.0209,-1.019,-1.0121,-1.0025,0.0,0.0,0.0,0.0,-1.3976,-1.6411,0.0,0.0,0.0,0.0,0.0,0.0,0.0,0.0,0.0,0.0,0.0,0.0,0.0,0.0,0.0,0.0,0.0,0.0,0.0,0.0,0.0,0.0,0.0,0.0,0.0,-2.0532,-2.0665,-2.0698,-2.0548,-2.0665,-2.0665,-2.0548,-2.0532,-2.0532,-2.0532,-2.0532,-2.0532,-2.0499,-2.0227,-2.0089,-2.0054,-1.9803,-1.969,-1.969,-1.969,-2.0094,-2.0737,-2.0976,-2.147,-2.2128,-2.2772,-2.2884,-2.2715,0.0,0.0,0.0,0.0,0.0,0.0,0.0,0.0,-0.8198,-0.8198,0.0,0.0,0.0,0.0,-0.8428,-0.8492,-0.8538,-0.8624,-0.876,-0.876,0.0,0.0,0.0,0.0,-0.9088,-0.8924,-0.9046,-0.95,-0.928,-0.9755,-1.0893,-1.0893,-1.1082,-1.1413,-1.1625,-1.1795,-1.1843,-1.1081,-1.0817,-1.0981,-1.189,-1.2607,-1.324,-1.4137,-1.4498,-1.4614,0.0,0.0,0.0,0.0,0.0,0.0,-1.0847,-1.0443,-1.0185,-1.0145,-1.0074,-1.0101,-1.063,0.0,0.0,0.0,0.0,0.0,0.0,0.0,0.0,0.0,0.0,0.0,0.0,0.0,0.0,0.0,0.0,0.0,0.0,0.0,0.0,0.0,0.0,0.0,0.0,0.0,0.0,0.0,0.0,0.0,-2.0991,-2.1118,-2.1213,-2.1213,-2.1055,-2.0991,-2.0991,-2.0991,-2.0991,-2.0991,-2.0991,-2.0991,-2.0991,-2.0698,-2.0516,-2.0516,-2.0243,-1.998,-1.969,-1.969,-1.9959,-2.0393,-2.0617,-2.0976,-2.1455,-2.2099,-2.2488,-2.2685,0.0,0.0,0.0,0.0,0.0,0.0,0.0,0.0,-0.8415,-0.8415,0.0,0.0,0.0,0.0,0.0,-0.8693,-0.8829,-0.8891,-0.8891,-0.8891,0.0,0.0,0.0,0.0,-0.9088,-0.8593,-0.8718,-0.95,-0.8851,-0.9334,-1.0857,-1.0857,-1.1313,-1.2102,-1.1328,-1.099,-1.113,-1.2028,-1.2446,-1.2554,0.0,-1.3904,-1.4314,0.0,0.0,0.0,-1.7341,-1.6866,0.0,-1.4492,0.0,0.0,0.0,-1.0969,-1.0191,-1.0202,-1.0129,-1.0049,0.0,0.0,0.0,0.0,0.0,0.0,0.0,0.0,0.0,0.0,0.0,0.0,0.0,0.0,0.0,0.0,0.0,0.0,0.0,0.0,0.0,0.0,0.0,0.0,0.0,0.0,0.0,0.0,0.0,-2.1039,-2.1039,-2.1399,-2.1612,-2.1612,-2.1244,-2.1039,-2.1039,-2.1039,-2.1039,-2.1039,-2.1039,-2.1039,-2.1039,-2.1023,-2.1023,-2.1023,-2.1007,-2.0499,-1.9762,-1.9762,-1.9762,-1.9786,-2.046,-2.0677,-2.0767,-2.1425,-2.2069,-2.2622,0.0,0.0,0.0,0.0,0.0,-0.8567,-0.8428,-0.853,-0.8604,0.0,0.0,0.0,-0.8766,-0.8766,-0.8789,-0.8852,-0.8869,-0.8891,-0.8891,-0.8891,-0.8891,-0.8891,-0.8936,-0.9011,-0.9088,-0.8957,-0.909,-0.95,-0.9316,-0.9492,-1.0029,-1.0029,-1.0186,-1.0454,-1.0281,-1.0244,-1.0318,-1.0586,-1.1086,-1.1719,-1.1993,-1.3205,0.0,0.0,0.0,0.0,0.0,-1.7696,-1.6335,0.0,-1.562,-1.3809,0.0,-1.0954,-1.0197,-1.0193,-1.0595,-1.0872,-1.0275,0.0,0.0,0.0,0.0,0.0,0.0,0.0,0.0,0.0,0.0,0.0,0.0,0.0,0.0,0.0,0.0,0.0,0.0,0.0,0.0,0.0,0.0,0.0,0.0,0.0,0.0,0.0,-2.1945,-2.1945,-2.1945,-2.2049,-2.2106,-2.2106,-2.202,-2.1945,-2.1945,-2.1945,-2.1945,-2.1945,-2.1945,-2.1945,-2.1915,-2.1598,-2.143,-2.143,-2.1118,-2.0862,-2.0632,-2.0632,-2.0632,-2.063,-2.0478,-2.0415,-2.0472,-2.0835,-2.1096,-2.1321,0.0,0.0,0.0,-0.8771,-0.8783,-0.8748,-0.8624,-0.8712,-0.8783,0.0,0.0,0.0,-0.8891,-0.9179,-0.923,-0.8925,-0.8891,-0.8891,-0.8891,-0.8957,-0.899,-0.899,-0.9088,-0.9179,-0.9257,-0.8993,-0.909,-0.9593,-0.9239,-0.9289,-0.9698,-0.9698,-0.9754,-0.985,-0.9894,-0.9955,-1.0029,-1.0029,0.0,0.0,-1.256,0.0,0.0,-1.6416,-1.7236,0.0,0.0,0.0,-1.7769,-1.8242,-1.6735,0.0,0.0,0.0,0.0,-1.0841,-1.1312,-1.1825,-1.132,-1.1526,0.0,0.0,0.0,0.0,0.0,0.0,0.0,0.0,0.0,0.0,0.0,0.0,0.0,0.0,0.0,0.0,0.0,0.0,0.0,0.0,0.0,0.0,0.0,0.0,0.0,0.0,-2.231,-2.231,-2.231,-2.231,-2.231,-2.231,-2.231,-2.231,-2.231,-2.231,-2.231,-2.231,-2.231,-2.231,-2.2282,-2.2032,-2.1899,-2.1899,-2.1645,-2.1554,-2.1554,-2.1554,-2.1323,-2.0959,-2.0698,-2.0583,-2.0613,-2.0564,-2.0719,-2.0985,0.0,0.0,-0.876,-0.8869,-0.8891,-0.8925,-0.901,-0.8942,-0.8959,0.0,-0.9145,-0.9145,-0.9145,-0.9658,-0.9743,-0.9078,-0.8942,-0.8891,-0.8891,-0.9022,-0.9078,-0.9088,-0.9331,-0.9474,-0.95,-0.8916,-0.8968,-0.9698,-0.8975,-0.8993,-0.9698,-0.9698,-0.9775,-0.9881,-0.9887,-0.9976,-1.0086,-1.0094,0.0,-1.1618,-1.3964,-1.5099,0.0,0.0,-1.8525,0.0,-1.9767,-1.9875,-1.93,-1.9149,-1.7582,0.0,0.0,0.0,0.0,0.0,-1.229,-1.2979,-1.2879,-1.2916,-1.3113,0.0,0.0,0.0,-1.3998,-1.3927,0.0,0.0,0.0,0.0,0.0,0.0,0.0,0.0,0.0,0.0,0.0,0.0,0.0,0.0,0.0,0.0,0.0,0.0,-2.231,-2.231,-2.231,-2.231,-2.231,-2.231,-2.231,-2.231,-2.231,-2.231,-2.231,-2.231,-2.231,-2.231,-2.231,-2.231,-2.231,-2.231,-2.231,-2.231,-2.231,-2.231,-2.231,-2.231,-2.184,-2.1134,-2.1086,-2.1055,-2.1023,-2.055,-2.0755,-2.1228,0.0,-0.8858,-0.8858,-0.8891,-0.8891,-0.9095,-0.9692,-0.9281,-0.9332,-1.0517,-1.0656,-1.0656,-1.0656,-1.0267,-0.9933,-0.981,-0.9247,-0.8891,-0.8891,-0.8925,-0.899,-0.9088,-0.9139,-0.9284,-0.95,-0.938,-0.9429,-0.9698,-0.9551,-0.9551,-0.9698,-0.9698,-0.9739,-0.9825,-0.9888,-0.9949,-1.0015,-1.0078,0.0,-1.1502,-1.2719,0.0,-1.6369,-1.7529,-1.8722,-1.9872,-2.0181,-2.0212,-1.9988,0.0,-1.8345,-1.7146,0.0,0.0,0.0,0.0,0.0,-1.4719,-1.4026,0.0,0.0,0.0,0.0,0.0,0.0,-1.2312,0.0,0.0,0.0,0.0,0.0,0.0,0.0,0.0,0.0,0.0,0.0,0.0,0.0,0.0,0.0,0.0,0.0,0.0,-2.231,-2.231,-2.231,-2.231,-2.231,-2.231,-2.231,-2.231,-2.231,-2.231,-2.231,-2.231,-2.231,-2.231,-2.231,-2.231,-2.231,-2.231,-2.231,-2.231,-2.231,-2.231,-2.231,-2.231,-2.2209,-2.202,-2.1628,-2.1491,-2.143,-2.1023,-2.0941,-2.0987,-0.8891,-0.8891,-0.8891,-0.8891,-0.8891,-0.9145,-0.9883,-0.9692,-0.998,-1.1502,-1.2009,-1.1942,-1.118,-1.113,-1.0842,-1.0068,-0.9658,-0.9298,-0.8925,-0.9033,-0.9119,-0.9189,-0.9331,-0.9456,-0.9601,-0.9601,-0.9633,-0.9698,-0.9698,-0.9698,-0.9698,-0.9698,-0.9754,-0.9857,-0.9875,-0.996,-1.0057,0.0,-1.0344,-1.0944,-1.3079,0.0,-1.6676,-1.8369,-1.9542,-2.0312,-2.0312,-2.0304,-2.0186,-1.9405,-1.8864,0.0,0.0,-1.6342,-1.6348,0.0,-1.5013,-1.5862,0.0,0.0,0.0,-1.4877,0.0,0.0,0.0,0.0,0.0,0.0,0.0,0.0,0.0,0.0,0.0,0.0,0.0,0.0,0.0,0.0,0.0,0.0,0.0,0.0,0.0,0.0,-2.1329,-2.1718,-2.209,-2.231,-2.231,-2.231,-2.231,-2.231,-2.231,-2.236,-2.25,-2.2377,-2.2377,-2.25,-2.25,-2.25,-2.25,-2.25,-2.25,-2.25,-2.2377,-2.231,-2.231,-2.231,-2.231,-2.2282,-2.2032,-2.1957,-2.1899,-2.1477,-2.1306,-2.1244,-0.8891,-0.8891,-0.8891,-0.8891,-0.901,-0.9365,-1.0085,-1.0203,-1.0775,-1.2314,-1.3208,-1.3275,-1.2167,-1.2536,-1.2361,-1.1105,-1.0732,-1.0235,-0.9492,-0.9504,-0.9481,-0.934,-0.9542,-0.9683,-0.9698,-0.9698,-0.9698,-0.9698,-0.9698,-0.9698,-0.9698,-0.9698,-0.9768,-0.9894,-1.0062,-1.0223,-1.0332,0.0,0.0,-1.1325,0.0,-1.5522,-1.6292,-1.9023,-2.0042,-2.0081,-2.0235,-2.0312,-2.0219,-1.9604,0.0,-1.9084,-1.7621,-1.7786,0.0,0.0,0.0,0.0,0.0,0.0,0.0,0.0,0.0,-1.6043,0.0,0.0,0.0,-1.5372,0.0,0.0,0.0,0.0,0.0,0.0,0.0,0.0,0.0,0.0,0.0,0.0,0.0,0.0,0.0,0.0,-1.9976,-2.0889,-2.1262,-2.1634,-2.2073,-2.2129,-2.2224,-2.236,-2.2443,-2.2581,-2.2797,-2.2581,-2.2581,-2.2797,-2.2797,-2.2797,-2.2797,-2.2721,-2.2695,-2.2695,-2.2426,-2.231,-2.231,-2.231,-2.231,-2.231,-2.231,-2.231,-2.2237,-2.1869,-2.1718,-2.1688,-0.8891,-0.8891,-0.8891,-0.8891,-0.9438,-1.0119,-1.0859,-1.0978,-1.1519,-1.3074,-1.4108,-1.4915,-1.5384,-1.511,-1.4802,-1.4606,-1.336,-1.2228,-1.1428,0.0,-1.0099,-0.9501,-0.9508,-0.9585,-0.9698,-0.9698,-0.9698,-0.9698,-0.9698,-0.9698,-0.9698,-0.9698,-0.9739,-0.9849,-1.0678,0.0,0.0,0.0,-1.256,0.0,-1.5036,-1.4805,0.0,-1.7869,-1.9146,-1.9242,-2.0023,-2.0312,-2.0292,0.0,-2.0216,-2.0095,0.0,-1.9511,-1.9961,0.0,0.0,0.0,0.0,0.0,0.0,0.0,-1.8718,0.0,0.0,0.0,-1.4653,-1.3226,0.0,0.0,0.0,0.0,0.0,0.0,0.0,0.0,0.0,0.0,0.0,0.0,0.0,0.0,0.0,0.0,0.0,-2.0018,-1.8988,-1.9198,-2.1237,-2.1558,-2.1986,-2.2626,-2.2923,-2.3093,-2.3141,-2.3093,-2.3093,-2.3141,-2.3141,-2.3141,-2.3141,-2.2848,-2.2695,-2.2695,-2.2426,-2.231,-2.231,-2.231,-2.231,-2.231,-2.231,-2.231,-2.2282,-2.2237,-2.2209,-2.2135,-0.8891,-0.8891,-0.8891,-0.8891,-0.9162,-0.9791,-1.1084,-1.2901,-1.4179,-1.4354,-1.557,-1.6535,-1.6888,-1.6315,0.0,0.0,0.0,-1.3699,0.0,0.0,-1.1185,-1.0892,-1.0076,-0.9853,-1.0388,-0.9937,-0.9698,-0.9698,-0.9698,-0.9728,-0.9761,-0.9761,-0.9818,-0.9965,-1.0863,0.0,-1.2113,0.0,-1.2777,0.0,0.0,0.0,0.0,-1.8254,-1.9754,-1.9792,-2.0177,-2.0312,-2.0215,0.0,-1.9896,0.0,0.0,0.0,0.0,0.0,0.0,0.0,0.0,0.0,0.0,0.0,0.0,0.0,0.0,0.0,-1.5163,0.0,0.0,0.0,0.0,0.0,0.0,0.0,0.0,0.0,0.0,0.0,0.0,0.0,0.0,0.0,0.0,0.0,0.0,0.0,0.0,-1.8702,-1.9976,-2.119,-2.1895,-2.2062,-2.2792,-2.3282,-2.35,-2.33,-2.33,-2.35,-2.35,-2.35,-2.35,-2.3346,-2.3277,-2.3236,-2.2755,-2.2537,-2.2527,-2.236,-2.231,-2.231,-2.231,-2.231,-2.231,-2.231,-2.231,-2.2282,-0.8891,-0.8891,-0.8891,-0.8891,-0.9061,-0.9821,-1.1675,-1.4146,-1.5765,-1.5654,-1.6727,-1.7719,-1.8252,-1.7836,0.0,0.0,-1.6926,-1.5771,0.0,0.0,-1.2513,-1.2295,-1.105,0.0,0.0,-1.0333,-0.9919,-0.9698,-0.9698,-0.9717,-0.9782,-0.9784,-0.9844,-0.9998,-1.1136,-1.2159,-1.3026,0.0,0.0,-1.4508,-1.5484,-1.5785,-1.5978,-1.885,-2.01,-2.0312,-2.0312,-2.0312,-2.0188,-1.9573,-1.9947,0.0,-1.9964,0.0,0.0,0.0,0.0,0.0,-1.8845,0.0,0.0,0.0,0.0,0.0,0.0,0.0,0.0,0.0,0.0,0.0,0.0,0.0,0.0,0.0,0.0,0.0,0.0,0.0,0.0,0.0,0.0,0.0,0.0,0.0,0.0,0.0,0.0,0.0,-1.8936,-2.0393,-2.1379,-2.1832,-2.2696,-2.3372,-2.3837,-2.3606,-2.3606,-2.3837,-2.3837,-2.3837,-2.3837,-2.3735,-2.3692,-2.3671,-2.3093,-2.2848,-2.2822,-2.2634,-2.2508,-2.2398,-2.2398,-2.236,-2.231,-2.231,-2.231,-2.231,-0.8891,-0.8891,-0.8891,-0.8891,-0.9489,-1.0724,-1.299,-1.4023,-1.5151,-1.6824,0.0,0.0,0.0,0.0,0.0,0.0,0.0,-1.8831,-1.799,0.0,-1.4066,-1.3298,-1.2462,-1.1673,0.0,-1.0875,-1.048,-0.9698,-0.9698,-0.9698,-0.9706,-0.9775,-0.9798,-0.9886,-1.1743,-1.301,-1.3825,-1.473,-1.6542,-1.8722,-1.7933,-1.8619,-2.0023,0.0,-1.9561,-2.0312,-2.0312,0.0,0.0,-2.0273,-2.0834,0.0,0.0,0.0,0.0,0.0,0.0,0.0,0.0,0.0,0.0,-1.8632,0.0,0.0,0.0,0.0,-1.749,0.0,0.0,0.0,0.0,0.0,-1.5579,-1.377,0.0,0.0,0.0,0.0,0.0,0.0,0.0,0.0,0.0,0.0,0.0,0.0,0.0,0.0,-1.8331,-1.8896,-2.0119,-2.2386,-2.2828,-2.34,-2.419,-2.417,-2.417,-2.417,-2.417,-2.417,-2.417,-2.3855,-2.3692,-2.3671,-2.3346,-2.3189,-2.3189,-2.3165,-2.2972,-2.2695,-2.2695,-2.2527,-2.231,-2.231,-2.231,-2.231,-0.9624,-0.9624,-0.9472,-0.8976,0.0,-1.1051,-1.3604,-1.5196,0.0,0.0,0.0,0.0,0.0,-2.1641,-2.1694,0.0,0.0,-2.0592,-1.9732,-1.7931,0.0,0.0,0.0,-1.3552,0.0,0.0,-1.1306,-1.0498,-0.9955,-0.9728,-0.9768,-0.9784,-0.9838,-1.0001,0.0,-1.3397,0.0,0.0,0.0,0.0,0.0,-1.8734,-2.0273,0.0,0.0,-2.0312,-2.0312,-2.0312,0.0,-2.0312,-2.0855,-2.1533,-2.1533,-2.1578,-2.1621,-2.1621,-2.1459,0.0,0.0,0.0,-2.2796,-2.0274,0.0,0.0,0.0,0.0,0.0,0.0,0.0,0.0,0.0,0.0,-1.5929,-1.4749,-1.3543,0.0,0.0,0.0,0.0,0.0,0.0,0.0,0.0,0.0,0.0,0.0,0.0,0.0,0.0,-1.8179,-1.9497,-2.0155,-2.2027,-2.3144,-2.34,-2.3933,-2.419,-2.419,-2.419,-2.419,-2.4208,-2.4074,-2.4016,-2.4016,-2.3671,-2.3522,-2.3522,-2.33,-2.3141,-2.3021,-2.3021,-2.284,-2.2537,-2.2377,-2.231,-2.231,-1.0339,0.0,0.0,0.0,0.0,-1.1879,-1.4163,0.0,0.0,0.0,-2.0311,0.0,-2.2832,0.0,-2.2556,0.0,-2.2685,-2.1877,-2.1015,-1.9711,0.0,-1.8537,-1.6757,0.0,0.0,-1.3783,-1.2425,-1.1333,-1.0516,-1.0005,-0.9768,-0.9784,-0.9838,-1.0014,0.0,-1.3507,-1.5242,0.0,-1.7553,0.0,0.0,-1.9292,0.0,0.0,-2.0312,-2.0312,0.0,-2.0312,-2.0312,-2.0312,-2.1043,-2.1966,-2.1966,-2.2207,-2.2485,-2.2485,-2.2294,-2.2105,-2.2108,-2.2915,0.0,0.0,-2.0922,0.0,-1.7714,0.0,0.0,0.0,0.0,0.0,0.0,0.0,-1.6914,-1.5747,-1.4055,-1.2388,0.0,0.0,0.0,0.0,0.0,0.0,0.0,0.0,-1.2242,-1.3618,0.0,0.0,0.0,0.0,-1.866,-1.9082,-2.1058,-2.2392,-2.2978,-2.3511,-2.3914,-2.419,-2.419,-2.419,-2.419,-2.419,-2.419,-2.419,-2.3976,-2.3876,-2.3858,-2.3631,-2.35,-2.3392,-2.3392,-2.3165,-2.2848,-2.2554,-2.2388,-2.231,0.0,0.0,0.0,0.0,-1.1546,0.0,0.0,0.0,-1.9057,0.0,-2.097,-2.1879,-2.2923,-2.307,-2.3382,-2.4135,-2.3511,0.0,-2.1986,-2.1106,0.0,0.0,-1.8702,-1.7894,-1.7037,-1.5441,0.0,0.0,-1.1333,-1.0516,-0.9753,-0.9794,-0.9798,-0.9879,-1.1631,0.0,-1.5216,-1.6896,-1.8658,-2.0312,-2.035,-2.035,-2.0312,-2.0389,0.0,-2.0369,-2.0369,-2.0369,-2.0369,-2.0408,-2.1504,-2.2851,-2.2851,-2.3437,-2.411,-2.411,-2.3514,-2.2876,-2.2944,-2.2984,-2.283,-2.2017,0.0,0.0,0.0,0.0,-2.1308,0.0,0.0,0.0,0.0,0.0,0.0,-1.6706,-1.4932,-1.2909,0.0,0.0,0.0,0.0,0.0,0.0,0.0,0.0,-1.1911,-1.4205,-1.2968,0.0,0.0,0.0,0.0,-1.9139,-2.0058,-2.1308,-2.2923,-2.2997,-2.34,-2.419,-2.419,-2.419,-2.419,-2.419,-2.419,-2.419,-2.419,-2.419,-2.419,-2.419,-2.4016,-2.3714,-2.3714,-2.3522,-2.3165,-2.2822,-2.2527,-2.231,-1.1959,-1.2395,-1.2808,0.0,-1.2847,-1.3711,0.0,0.0,0.0,0.0,-2.21,-2.2923,-2.3804,-2.3896,-2.3988,-2.4171,-2.4006,0.0,0.0,0.0,0.0,-2.2061,-2.1272,-2.017,-1.872,-1.711,0.0,-1.3893,0.0,0.0,-1.059,-1.0046,-0.9825,-0.9944,0.0,0.0,-1.5287,-1.6957,-1.8693,-2.035,-2.0946,-2.0831,0.0,0.0,-2.1754,-2.1196,-2.1196,-2.1196,-2.1293,-2.1947,-2.287,-2.3764,-2.3764,-2.3918,-2.411,-2.411,-2.3937,-2.3764,-2.379,-2.4242,-2.4491,-2.3668,-2.3024,-2.2256,0.0,0.0,0.0,0.0,0.0,0.0,0.0,0.0,0.0,-1.6866,-1.497,-1.3329,0.0,0.0,0.0,0.0,0.0,0.0,0.0,0.0,-1.2192,-1.2816,0.0,0.0,0.0,0.0,0.0,-1.7627,-1.9662,-2.1161,-2.2097,-2.2703,-2.34,-2.419,-2.419,-2.419,-2.419,-2.419,-2.419,-2.419,-2.419,-2.419,-2.419,-2.419,-2.4151,-2.4074,-2.4074,-2.3876,-2.35,-2.2958,-2.2571,-2.231,-1.321,0.0,0.0,-1.5575,0.0,0.0,-1.7974,0.0,0.0,-2.1582,-2.2501,0.0,-2.3639,-2.3988,-2.419,-2.419,-2.419,0.0,-2.3694,0.0,0.0,-2.3033,-2.2575,-2.1877,-2.0941,-1.8977,0.0,-1.5551,0.0,0.0,-1.0875,-1.0112,-0.9782,-0.9893,0.0,-1.3201,0.0,-1.7221,-1.9254,-2.0869,-2.1331,0.0,0.0,-2.2447,-2.2504,-2.212,-2.2504,-2.2389,-2.2139,-2.262,-2.3379,-2.411,-2.411,-2.4341,-2.462,-2.462,-2.462,-2.462,-2.462,-2.4966,-2.5188,-2.475,-2.4287,-2.3639,-2.2494,-2.2906,-2.3299,0.0,0.0,0.0,0.0,0.0,0.0,0.0,0.0,0.0,0.0,0.0,0.0,0.0,0.0,0.0,0.0,0.0,0.0,0.0,0.0,0.0,0.0,0.0,0.0,-1.7173,-1.9251,-2.0714,-2.1451,-2.2272,-2.3089,-2.3888,-2.4276,-2.4461,-2.4461,-2.4461,-2.4409,-2.4339,-2.4339,-2.4284,-2.419,-2.419,-2.419,-2.419,-2.419,-2.3996,-2.3671,-2.3335,-2.2975,-2.2686,0.0,0.0,0.0,0.0,0.0,0.0,0.0,-2.0149,0.0,-2.184,0.0,-2.3162,-2.3162,-2.3786,-2.419,-2.419,0.0,-2.3896,-2.3199,-2.3804,-2.3896,-2.3199,-2.3162,-2.3125,-2.2997,-2.0666,0.0,0.0,0.0,-1.249,-1.0875,-1.0092,-0.9721,0.0,0.0,0.0,0.0,-1.77,-2.0003,0.0,-2.1664,-2.2153,-2.2785,-2.3006,-2.3034,-2.3081,-2.3956,-2.3706,-2.2985,-2.3081,-2.362,-2.4264,-2.4264,-2.4736,-2.5303,-2.5303,-2.5303,-2.5303,-2.5303,-2.5303,-2.5303,-2.5303,-2.5303,-2.4918,-2.3531,-2.3755,-2.4109,-2.3513,-2.34,0.0,0.0,0.0,0.0,0.0,0.0,0.0,0.0,0.0,0.0,0.0,0.0,0.0,0.0,0.0,0.0,0.0,0.0,0.0,0.0,0.0,0.0,0.0,-1.8861,0.0,-2.1155,0.0,-2.2758,-2.3681,-2.4431,-2.4804,-2.4804,-2.4804,-2.47,-2.4545,-2.4512,-2.441,-2.4247,-2.4209,-2.419,-2.419,-2.419,-2.4016,-2.3774,-2.3774,-2.3566,-2.3259,0.0,0.0,0.0,0.0,0.0,-2.0994,-2.1796,-2.1474,-2.1533,-2.2648,-2.3492,-2.3988,-2.3988,-2.4116,-2.419,-2.419,-2.419,0.0,0.0,0.0,0.0,-2.4006,-2.3988,-2.3676,-2.2997,-2.1218,-1.9182,0.0,-1.4481,-1.249,-1.0875,-1.0135,-0.9771,0.0,0.0,0.0,-1.6956,-1.8848,0.0,-2.1221,-2.259,-2.2911,-2.2694,-2.4079,-2.4319,-2.3975,-2.4793,-2.4562,-2.3975,-2.4639,-2.4966,-2.5101,-2.5101,-2.5187,-2.5303,-2.5303,-2.5303,-2.5303,-2.5303,-2.5303,-2.5303,-2.5303,-2.5303,-2.5236,-2.4937,-2.5018,-2.5135,-2.5027,-2.5035,-2.4779,-2.3747,0.0,0.0,0.0,0.0,0.0,0.0,0.0,0.0,0.0,0.0,0.0,0.0,0.0,0.0,0.0,0.0,0.0,0.0,0.0,0.0,0.0,0.0,0.0,0.0,0.0,0.0,-2.4563,-2.4728,-2.4804,-2.4804,-2.4804,-2.4775,-2.4746,-2.4559,-2.4478,-2.4426,-2.4266,-2.419,-2.419,-2.419,-2.417,-2.4113,-2.4113,-2.4074,-2.3896,0.0,0.0,0.0,0.0,0.0,0.0,0.0,-2.2028,0.0,-2.2676,-2.308,-2.3376,-2.3565,-2.3951,-2.419,-2.419,-2.419,-2.419,-2.419,-2.419,-2.419,-2.419,-2.419,0.0,-2.3639,-2.2428,-2.0611,-1.8151,-1.5729,-1.3508,-1.1508,-1.0289,-0.9961,-1.046,0.0,-1.5043,0.0,0.0,0.0,-2.1777,-2.3008,-2.3572,-2.3777,-2.4587,-2.4758,-2.4615,-2.5018,-2.4964,-2.4774,-2.5168,-2.5303,-2.5303,-2.5303,-2.5303,-2.5303,-2.5303,-2.5303,-2.5303,-2.5303,-2.5303,-2.5303,-2.5303,-2.5303,-2.5303,-2.5303,-2.5312,-2.5354,-2.5391,-2.5421,-2.4966,-2.3346,-2.131,0.0,0.0,0.0,0.0,0.0,0.0,0.0,0.0,0.0,0.0,0.0,0.0,0.0,0.0,0.0,0.0,0.0,0.0,0.0,0.0,0.0,0.0,0.0,0.0,0.0,-2.4438,-2.4858,-2.5068,-2.5068,-2.5068,-2.5,-2.4904,-2.479,-2.4648,-2.4478,-2.4284,-2.419,-2.419,-2.419,-2.419,-2.419,-2.419,-2.419,-2.4074,0.0,-2.0959,0.0,0.0,-2.1513,0.0,0.0,-2.228,-2.2631,-2.2654,-2.2668,-2.279,-2.3123,-2.3709,-2.4113,-2.419,-2.419,-2.419,-2.419,-2.419,-2.419,-2.419,-2.419,-2.419,-2.419,-2.3419,-2.1785,0.0,-1.705,-1.4719,-1.2315,-1.0874,-1.0754,0.0,0.0,0.0,0.0,0.0,-2.1044,-2.2534,-2.3326,-2.4103,-2.4731,-2.4731,-2.4842,-2.4949,-2.4949,-2.5077,-2.5243,-2.5243,-2.5264,-2.5303,-2.5303,-2.5303,-2.5303,-2.5303,-2.5303,-2.5303,-2.5303,-2.5303,-2.5303,-2.5303,-2.5303,-2.5303,-2.5303,-2.5303,-2.5322,-2.5379,-2.5391,-2.4897,-2.3279,-2.1917,0.0,0.0,0.0,0.0,0.0,0.0,0.0,0.0,0.0,0.0,0.0,0.0,0.0,0.0,0.0,0.0,-1.2487,-1.3781,0.0,0.0,0.0,0.0,-2.1485,0.0,-2.3312,0.0,-2.5005,-2.5303,-2.5303,-2.5303,-2.5214,-2.5057,-2.5022,-2.4804,-2.4478,-2.4284,-2.419,-2.419,-2.419,-2.419,-2.419,-2.419,-2.419,-2.4113,0.0,0.0,0.0,0.0,0.0,0.0,0.0,-2.2466,-2.2527,-2.3053,-2.3129,-2.3262,-2.3605,-2.3699,-2.3876,-2.417,-2.419,-2.419,-2.419,-2.419,-2.419,-2.419,-2.419,-2.419,-2.419,-2.3419,-2.1785,0.0,0.0,-1.5564,-1.317,-1.2288,0.0,0.0,0.0,0.0,0.0,-2.0944,-2.2113,-2.2996,-2.3805,-2.4283,-2.4528,-2.4528,-2.4654,-2.4832,-2.4832,-2.4904,-2.5022,-2.5022,-2.5152,-2.5303,-2.5303,-2.5303,-2.5303,-2.5303,-2.5303,-2.5303,-2.5303,-2.5303,-2.5303,-2.5303,-2.5303,-2.5303,-2.5303,-2.5303,-2.5313,-2.5303,-2.5363,-2.4895,-2.3222,-2.2827,-2.1983,0.0,0.0,0.0,0.0,0.0,0.0,0.0,0.0,0.0,0.0,0.0,0.0,0.0,0.0,0.0,0.0,-1.2824,0.0,-1.6522,0.0,-1.9004,-2.1485,-2.235,0.0,-2.5187,-2.5264,-2.5303,-2.5303,-2.5303,-2.5284,-2.5264,-2.5088,-2.4804,-2.4478,-2.4284,-2.419,-2.419,-2.419,-2.419,-2.419,-2.419,-2.419,-2.4151,0.0,0.0,0.0,0.0,0.0,0.0,0.0,-2.3294,-2.3051,-2.3278,-2.3245,-2.3346,-2.3671,-2.3692,-2.3671,-2.3628,-2.3795,-2.3896,-2.3896,-2.4094,-2.419,-2.419,-2.419,-2.419,-2.419,-2.3878,-2.2758,0.0,0.0,0.0,0.0,0.0,0.0,0.0,0.0,-1.9452,-2.0212,-2.1821,-2.2721,-2.307,-2.3878,-2.4247,-2.4321,-2.4321,-2.4444,-2.4623,-2.4623,-2.4727,-2.4891,-2.4974,-2.5122,-2.5303,-2.5303,-2.5303,-2.5303,-2.5303,-2.5303,-2.5303,-2.5303,-2.5303,-2.5303,-2.5303,-2.5303,-2.5303,-2.5303,-2.5303,-2.5303,-2.5303,-2.5312,-2.4992,-2.3827,-2.2823,-2.1826,0.0,0.0,0.0,0.0,0.0,0.0,0.0,0.0,0.0,0.0,0.0,0.0,0.0,0.0,0.0,0.0,0.0,0.0,-1.5657,0.0,-1.8927,-2.1485,-2.235,-2.3639,-2.5303,-2.5303,-2.5303,-2.5303,-2.5303,-2.5303,-2.5303,-2.5088,-2.4872,-2.467,-2.4461,-2.4303,-2.419,-2.419,-2.419,-2.419,-2.419,-2.419,-2.417,-2.4763,0.0,-2.3951,0.0,-2.4205,-2.3883,-2.4438,-2.4052,-2.3774,-2.3845,-2.3805,-2.3678,-2.3576,-2.3544,-2.35,-2.3369,-2.3566,-2.3692,-2.3692,-2.3917,-2.4094,-2.4208,-2.419,0.0,-2.419,-2.419,-2.3529,-2.2152,-2.0721,0.0,0.0,0.0,0.0,0.0,-2.0503,-2.1236,-2.1328,-2.2758,-2.3364,-2.34,-2.3969,-2.419,-2.419,-2.419,-2.4284,-2.441,-2.441,-2.4545,-2.4731,-2.4818,-2.4981,-2.516,-2.5264,-2.5303,-2.5303,-2.5303,-2.5303,-2.5303,-2.5303,-2.5303,-2.5303,-2.5303,-2.5303,-2.5303,-2.5303,-2.5303,-2.5303,-2.5303,-2.512,-2.4774,-2.4206,-2.2709,-2.1499,0.0,0.0,0.0,0.0,0.0,0.0,0.0,0.0,-1.4883,0.0,0.0,0.0,0.0,0.0,0.0,0.0,0.0,0.0,0.0,0.0,0.0,0.0,0.0,-2.3639,-2.5303,-2.5303,-2.5303,-2.5303,-2.5303,-2.5303,-2.5303,-2.5088,-2.4937,-2.4855,-2.4651,-2.4512,-2.4375,-2.4321,-2.4284,-2.4284,-2.4228,-2.419,-2.419,-2.5439,-2.4983,-2.4712,-2.5456,-2.4966,-2.4506,-2.4506,-2.4506,-2.4611,-2.4948,-2.4988,-2.452,-2.3342,-2.3212,-2.3346,-2.3671,-2.3692,-2.3692,-2.3692,-2.3692,-2.3837,0.0,0.0,-2.419,-2.419,-2.419,-2.3804,-2.2997,0.0,0.0,-2.0448,0.0,-2.0448,-2.0539,-2.2208,-2.296,-2.3033,-2.3841,-2.419,-2.419,-2.419,-2.419,-2.419,-2.419,-2.419,-2.419,-2.419,-2.4321,-2.4512,-2.4512,-2.4639,-2.4855,-2.5201,-2.5303,-2.5303,-2.5303,-2.5303,-2.5303,-2.5303,-2.5303,-2.5303,-2.5303,-2.5303,-2.5303,-2.5303,-2.5303,-2.5303,-2.5303,-2.4678,-2.411,-2.411,-2.2677,-2.124,-2.0444,0.0,0.0,0.0,0.0,0.0,0.0,-1.566,-1.4453,-1.5293,0.0,0.0,0.0,0.0,0.0,0.0,0.0,0.0,-1.6426,-1.8112,0.0,-2.1485,-2.235,-2.3639,-2.5303,-2.5303,-2.5303,-2.5303,-2.5303,-2.5303,-2.5303,-2.5088,-2.501,-2.4986,-2.4855,-2.479,-2.4775,-2.4559,-2.4495,-2.4478,-2.4266,-2.419,-2.419,-2.6302,-2.615,-2.6065,-2.6302,-2.615,-2.5998,-2.5998,-2.5558,-2.5285,-2.5394,-2.4965,-2.4602,-2.445,-2.4425,-2.4043,0.0,-2.3523,-2.371,0.0,-2.3566,-2.3753,-2.3837,-2.4074,-2.419,-2.419,-2.419,-2.4061,-2.3823,0.0,0.0,0.0,-2.219,-2.2501,-2.3052,-2.3584,-2.3823,-2.3823,-2.408,-2.419,-2.419,-2.419,-2.419,-2.419,-2.419,-2.419,-2.419,-2.419,-2.4247,-2.4321,-2.4444,-2.4526,-2.4639,-2.4883,-2.5024,-2.5111,-2.5264,-2.5303,-2.5303,-2.5303,-2.5303,-2.5303,-2.5303,-2.5303,-2.5303,-2.5303,-2.5303,-2.5303,-2.5303,-2.5101,-2.4562,-2.3408,-2.2754,-2.1936,-2.0535,0.0,0.0,0.0,0.0,0.0,0.0,0.0,-1.5742,0.0,-1.5449,0.0,0.0,0.0,0.0,0.0,0.0,0.0,0.0,-1.8381,0.0,-2.1485,-2.2947,-2.4235,-2.5303,-2.5303,-2.5303,-2.5303,-2.5303,-2.5303,-2.5303,-2.5224,-2.5141,-2.4998,-2.4949,-2.4877,-2.479,-2.4731,-2.47,-2.4685,-2.4478,-2.441,-2.4393,-2.6691,-2.6691,-2.6691,-2.6691,-2.6691,-2.6691,-2.6691,-2.6302,-2.6015,-2.6015,-2.5609,-2.5297,-2.5236,-2.5459,0.0,-2.369,-2.4019,0.0,-2.3901,-2.3826,-2.3809,-2.3907,-2.3855,-2.3896,-2.4016,0.0,0.0,-2.419,-2.3694,-2.3456,-2.3456,-2.3456,-2.3731,-2.419,-2.419,-2.419,-2.419,-2.419,-2.419,-2.419,-2.419,-2.419,-2.419,-2.419,-2.419,-2.419,-2.419,-2.419,-2.4209,-2.4339,-2.4393,-2.4409,-2.4623,-2.4737,-2.4858,-2.5118,-2.5234,-2.5303,-2.5303,-2.5303,-2.5303,-2.5303,-2.5303,-2.5303,-2.5303,-2.5303,-2.5303,-2.5303,-2.5063,-2.4428,-2.3043,-2.2524,-2.187,-2.0523,0.0,-2.0007,0.0,0.0,0.0,0.0,0.0,0.0,0.0,-1.6875,0.0,0.0,0.0,0.0,0.0,0.0,0.0,-1.6701,-1.9362,0.0,-2.2022,-2.3416,-2.4505,-2.5303,-2.5303,-2.5303,-2.5303,-2.5303,-2.5303,-2.5303,-2.5303,-2.5224,-2.5111,-2.5111,-2.5053,-2.4975,-2.4891,-2.4883,-2.485,-2.4685,-2.4607,-2.4575,-2.6691,-2.6691,0.0,0.0,-2.6691,0.0,-2.6691,-2.6691,-2.6691,-2.6691,-2.6691,-2.6437,-2.5761,-2.6285,-2.6279,-2.5195,0.0,0.0,0.0,-2.4365,-2.4085,-2.4345,-2.3678,0.0,-2.3721,-2.371,-2.3858,-2.419,-2.419,-2.419,-2.419,-2.419,-2.419,-2.419,-2.419,-2.419,-2.419,-2.419,-2.419,-2.419,-2.419,-2.419,-2.419,-2.419,-2.419,-2.419,-2.419,-2.419,-2.419,-2.419,-2.419,-2.4228,-2.4428,-2.4495,-2.4575,-2.4911,-2.5122,-2.5274,-2.5303,-2.5303,-2.5303,-2.5303,-2.5303,-2.5303,-2.5303,-2.5303,-2.5303,-2.5303,-2.4697,-2.3918,-2.3043,-2.2177,-2.1331,-2.0504,-2.035,-2.0004,-1.9126,0.0,0.0,0.0,0.0,0.0,0.0,-1.8105,-1.8437,0.0,0.0,0.0,0.0,0.0,-1.7624,-1.9231,-2.0856,-2.2114,-2.2985,-2.3794,-2.4571,-2.5303,-2.5303,-2.5293,-2.5303,-2.5303,-2.5303,-2.5303,-2.5303,-2.5303,-2.5303,-2.5303,-2.5303,-2.5274,-2.5099,-2.5022,-2.4998,-2.4869,-2.4799,-2.479,0.0,0.0,-2.6691,-2.6691,-2.6691,-2.6691,-2.6691,-2.6691,-2.6691,-2.6691,-2.6691,-2.6623,-2.6454,-2.659,-2.6572,-2.6315,-2.5771,-2.5333,-2.5011,-2.485,-2.4774,-2.484,-2.4313,-2.4091,-2.4164,-2.3867,-2.3858,-2.419,-2.419,-2.419,-2.419,-2.419,-2.419,-2.419,-2.419,-2.419,-2.419,-2.419,-2.419,-2.419,-2.419,-2.419,-2.419,-2.419,-2.419,-2.419,-2.419,-2.419,-2.419,-2.419,-2.419,-2.4209,-2.4266,-2.4375,-2.4575,-2.4911,-2.5034,-2.5099,-2.5264,-2.5303,-2.5303,-2.5303,-2.5303,-2.5303,-2.5303,-2.5303,-2.5303,-2.5303,-2.5159,-2.4774,-2.3937,-2.309,-2.2216,-2.137,-2.0696,-2.0004,-1.9126,0.0,0.0,0.0,-1.8283,-1.8439,-1.7974,-1.9178,-1.9238,0.0,0.0,0.0,0.0,0.0,-1.9793,-2.0114,-2.1783,-2.3096,-2.3957,-2.4771,-2.5234,-2.5376,-2.5376,-2.5346,-2.5303,-2.5303,-2.5303,-2.5303,-2.5303,-2.5303,-2.5303,-2.5303,-2.5303,-2.5303,-2.5253,-2.5224,-2.5203,-2.503,-2.4949,-2.4924,-2.6691,-2.6691,-2.6691,-2.6691,-2.6691,-2.6691,-2.6691,-2.6691,-2.6691,-2.6691,-2.6691,-2.6691,-2.6691,-2.6691,-2.6691,-2.6691,-2.6336,-2.601,-2.5774,-2.5463,-2.5274,-2.5274,-2.4695,-2.4475,-2.4637,-2.4088,-2.3853,-2.3976,-2.3976,-2.4054,-2.419,-2.419,-2.419,-2.419,-2.419,-2.419,-2.419,-2.419,-2.419,-2.419,-2.419,-2.419,-2.419,-2.419,-2.419,-2.419,-2.419,-2.419,-2.419,-2.419,-2.419,-2.419,-2.419,-2.4266,-2.4409,-2.4693,-2.4885,-2.5022,-2.5122,-2.5224,-2.5274,-2.5192,-2.5163,-2.5163,-2.5163,-2.5224,-2.5303,-2.5303,-2.5303,-2.5063,-2.4245,-2.3398,-2.2504,-2.1639,-2.0831,-2.0004,-1.9126,-1.9027,0.0,-1.8457,-1.8841,-1.9117,-1.9055,-1.9965,-1.9977,-1.8531,0.0,0.0,-1.9785,-2.0684,-2.115,-2.1097,-2.2714,-2.3813,-2.4303,-2.5098,-2.5473,-2.5453,-2.5453,-2.5428,-2.5391,-2.5363,-2.5357,-2.5337,-2.5313,-2.5303,-2.5303,-2.5303,-2.5303,-2.5303,-2.5303,-2.5303,-2.5303,-2.5173,-2.5141,-2.5099,-2.7046,-2.7046,-2.6996,-2.6894,-2.686,-2.6826,-2.6708,-2.6691,-2.6691,-2.6691,-2.6691,-2.6691,-2.6691,-2.6691,-2.6691,-2.6691,-2.6691,-2.6691,-2.6691,-2.6116,-2.5778,-2.5778,-2.505,-2.4798,-2.5092,-2.4424,-2.4042,-2.3965,-2.3862,-2.4031,-2.4479,-2.437,-2.4334,-2.4392,-2.4502,-2.4483,-2.4392,-2.4502,-2.4557,-2.4557,-2.4557,-2.4483,-2.4373,-2.4373,-2.43,-2.419,-2.419,-2.419,-2.419,-2.419,-2.419,-2.419,-2.419,-2.419,-2.4228,-2.441,-2.4678,-2.4937,-2.4962,-2.5118,-2.5214,-2.5034,-2.501,-2.501,-2.501,-2.5122,-2.5264,-2.5284,-2.5303,-2.5101,-2.4409,-2.3475,-2.2562,-2.1812,-2.0908,-2.0042,-1.93,0.0,-1.9251,-1.9438,-1.9475,-1.9812,-2.0681,-2.0847,-2.0872,-2.0896,-2.0952,0.0,0.0,-2.2207,-2.2285,-2.2285,-2.3605,-2.4376,-2.4514,-2.5187,-2.5535,-2.5526,-2.5526,-2.5498,-2.5508,-2.5447,-2.5415,-2.5408,-2.5354,-2.533,-2.5321,-2.5322,-2.5322,-2.5313,-2.5293,-2.5303,-2.5303,-2.5303,-2.5303,-2.5274,-2.8619,-2.8619,-2.8416,-2.7757,-2.7638,-2.7435,-2.6793,-2.6691,-2.6691,-2.6691,-2.6691,-2.6691,-2.6691,-2.6691,-2.6691,-2.6691,-2.6691,-2.6691,-2.6691,-2.659,-2.6522,-2.6522,-2.5828,-2.5454,-2.5518,-2.5055,-2.4958,-2.5207,-2.4541,-2.473,-2.57,-2.5073,-2.4935,-2.5256,-2.5915,-2.5841,-2.5274,-2.5933,-2.6227,-2.6227,-2.6227,-2.5823,-2.5219,-2.5219,-2.4777,-2.419,-2.419,-2.419,-2.419,-2.419,-2.419,-2.419,-2.419,-2.419,-2.4227,-2.4247,-2.4392,-2.4604,-2.4785,-2.4943,-2.5034,-2.501,-2.501,-2.501,-2.501,-2.5022,-2.5099,-2.5264,-2.5303,-2.5264,-2.5139,-2.3851,-2.2754,-2.262,-2.1312,-2.0254,-2.0119,0.0,-2.0358,-2.1039,-2.1171,-2.1552,-2.243,-2.2571,-2.2649,-2.2686,-2.2713,-2.2764,-2.291,-2.3613,-2.4004,-2.4004,-2.4258,-2.4746,-2.5488,-2.5604,-2.5636,-2.5573,-2.5573,-2.5554,-2.5489,-2.5479,-2.5473,-2.5473,-2.5463,-2.5477,-2.5451,-2.5401,-2.5383,-2.5376,-2.5312,-2.5303,-2.5303,-2.5303,-2.5303,-2.5303,-2.9011,-2.8755,-2.8535,-2.8467,-2.8213,-2.801,-2.7943,-2.7926,-2.7926,-2.7926,-2.7554,-2.73,-2.73,-2.6945,-2.6691,-2.6691,-2.6691,-2.6691,-2.6691,-2.6691,-2.6691,-2.6691,-2.637,-2.6015,-2.5609,-2.5411,-2.5274,-2.523,-2.4863,-2.5033,-2.574,-2.556,-2.5579,-2.5754,-2.6326,-2.6392,-2.6062,-2.6447,-2.6612,-2.6612,-2.6612,-2.6374,-2.6043,-2.6043,-2.5823,-2.5493,-2.5493,-2.5199,-2.4832,-2.4832,-2.4557,-2.419,-2.419,-2.419,-2.419,-2.419,-2.4339,-2.4526,-2.4746,-2.4771,-2.4766,-2.4864,-2.4809,-2.4766,-2.4864,-2.4949,-2.5022,-2.5111,-2.5224,-2.5303,-2.5303,-2.4312,-2.3494,-2.3494,-2.2062,0.0,0.0,-2.0946,-2.1081,-2.1466,-2.193,-2.2404,-2.2809,-2.2908,-2.2963,-2.298,-2.303,-2.3241,-2.3722,-2.4134,-2.4586,-2.5078,-2.5098,-2.5293,-2.5703,-2.5703,-2.5683,-2.5659,-2.5659,-2.5636,-2.5605,-2.5564,-2.5554,-2.5554,-2.5526,-2.5493,-2.5508,-2.5477,-2.544,-2.5459,-2.5415,-2.5383,-2.5346,-2.5354,-2.533,-2.5303,-2.9499,-2.9178,-2.8975,-2.9194,-2.8924,-2.8721,-2.8941,-2.9011,-2.9011,-2.9011,-2.8467,-2.8095,-2.8095,-2.7418,-2.6962,-2.6962,-2.6793,-2.6691,-2.6691,-2.6691,-2.6691,-2.6691,-2.6691,-2.6437,-2.5879,-2.5862,-2.5686,-2.5394,-2.5222,-2.5426,-2.592,-2.6019,-2.6108,-2.62,-2.6749,-2.6907,-2.6761,-2.7028,-2.7163,-2.7163,-2.7163,-2.7053,-2.6888,-2.6888,-2.6759,-2.6612,-2.6612,-2.6209,-2.566,-2.5476,-2.4999,-2.4447,-2.4263,-2.419,-2.419,-2.419,-2.4321,-2.4478,-2.467,-2.4607,-2.4545,-2.4685,-2.4607,-2.4545,-2.47,-2.4809,-2.4898,-2.4937,-2.5107,-2.5224,-2.5224,-2.4601,-2.411,-2.411,0.0,0.0,0.0,-2.1793,-2.1889,-2.2081,-2.2697,-2.3178,-2.3351,-2.3419,-2.3454,-2.3482,-2.3533,-2.3869,-2.4531,-2.4573,-2.492,-2.5643,-2.5683,-2.5703,-2.5703,-2.5703,-2.5703,-2.5703,-2.5703,-2.5703,-2.5703,-2.5658,-2.5611,-2.5629,-2.5564,-2.5551,-2.5551,-2.5535,-2.5511,-2.5511,-2.5517,-2.5477,-2.5415,-2.5421,-2.5391,-2.5329,-3.1038,-3.1004,-3.0768,-3.0142,-2.9989,-2.9736,-2.9076,-2.9011,-2.9011,-2.9011,-2.896,-2.889,-2.889,-2.8197,-2.7705,-2.7705,-2.7097,-2.6691,-2.6691,-2.6691,-2.6691,-2.6691,-2.6691,-2.6674,-2.6623,-2.6623,-2.6606,-2.6555,-2.5878,-2.6102,-2.7143,-2.6509,-2.6352,-2.6694,-2.7787,-2.785,-2.7242,-2.8346,-2.881,-2.881,-2.881,-2.8393,-2.7714,-2.7714,-2.7255,-2.6612,-2.6612,-2.6557,-2.641,-2.564,-2.5366,-2.5182,-2.4428,-2.419,-2.419,-2.419,-2.4209,-2.4284,-2.4461,-2.4512,-2.4512,-2.4528,-2.4512,-2.4512,-2.4528,-2.4526,-2.4591,-2.479,-2.493,-2.5022,-2.5022,-2.4521,-2.411,-2.411,0.0,0.0,-2.2697,-2.2697,-2.3004,-2.3821,-2.3975,-2.4293,-2.5034,-2.512,-2.5157,-2.5212,-2.5219,-2.5286,-2.5396,-2.542,-2.5465,-2.5603,-2.5662,-2.5703,-2.5703,-2.5703,-2.5703,-2.5703,-2.5703,-2.5703,-2.5703,-2.5683,-2.5683,-2.5683,-2.5683,-2.5683,-2.5683,-2.5629,-2.5598,-2.5595,-2.5511,-2.5508,-2.5484,-2.5484,-2.5479,-2.5488,-3.119,-3.119,-3.1106,-3.0835,-3.0784,-3.0683,-3.0395,-3.0345,-3.0345,-3.0345,-2.9973,-2.9685,-2.9685,-2.8991,-2.8349,-2.7823,-2.7554,-2.7199,-2.6725,-2.6691,-2.6691,-2.6691,-2.6691,-2.6691,-2.6691,-2.6691,-2.6691,-2.6691,-2.642,-2.6503,-2.6939,-2.6885,-2.6961,-2.7098,-2.7784,-2.7914,-2.7674,-2.8363,-2.8633,-2.8658,-2.8905,-2.8833,-2.8539,-2.8539,-2.8356,-2.8077,-2.8077,-2.7769,-2.7291,-2.6979,-2.6557,-2.6007,-2.5199,-2.4924,-2.4832,-2.4337,-2.419,-2.4209,-2.4284,-2.4321,-2.4339,-2.4461,-2.441,-2.4358,-2.4461,-2.4495,-2.4528,-2.4591,-2.4756,-2.4904,-2.4986,-2.4809,-2.4703,-2.4822,0.0,-2.361,-2.361,-2.361,-2.3725,-2.4052,-2.4543,-2.4966,-2.5264,-2.5303,-2.5313,-2.5339,-2.5339,-2.5371,-2.5428,-2.5488,-2.5503,-2.5543,-2.5561,-2.5627,-2.5703,-2.5703,-2.5703,-2.5703,-2.5703,-2.5703,-2.5703,-2.5703,-2.5703,-2.5703,-2.5703,-2.5703,-2.5703,-2.5662,-2.5661,-2.566,-2.5634,-2.5601,-2.5561,-2.5561,-2.5543,-2.5484,-3.119,-3.119,-3.119,-3.119,-3.119,-3.119,-3.119,-3.119,-3.119,-3.119,-3.0768,-3.0446,-3.0446,-2.9786,-2.9127,-2.8586,-2.8315,-2.796,-2.7452,-2.7418,-2.7199,-2.6708,-2.6691,-2.6691,-2.6691,-2.6691,-2.6691,-2.6691,-2.6691,-2.6691,-2.6691,-2.7004,-2.7115,-2.7115,-2.753,-2.7707,-2.7736,-2.8102,-2.8298,-2.842,-2.8682,-2.8905,-2.8994,-2.8994,-2.8994,-2.8994,-2.8994,-2.865,-2.8136,-2.7879,-2.742,-2.6833,-2.6025,-2.5605,-2.5256,-2.4428,-2.419,-2.419,-2.419,-2.419,-2.4228,-2.4375,-2.4303,-2.4247,-2.4375,-2.441,-2.441,-2.441,-2.4578,-2.4727,-2.4818,-2.4898,-2.5005,-2.5182,-2.4734,-2.4408,-2.4466,-2.4485,-2.4485,-2.4485,-2.4966,-2.5303,-2.5303,-2.5303,-2.5303,-2.5303,-2.5303,-2.5322,-2.5363,-2.5428,-2.5477,-2.5477,-2.5498,-2.5547,-2.5634,-2.566,-2.5683,-2.5703,-2.5703,-2.5703,-2.5703,-2.5703,-2.5703,-2.5703,-2.5703,-2.5703,-2.5703,-2.5703,-2.5703,-2.5703,-2.5703,-2.5662,-2.5634,-2.5634,-2.5603,-2.5554,-3.119,-3.119,-3.119,-3.119,-3.119,-3.119,-3.119,-3.119,-3.119,-3.119,-3.119,-3.119,-3.119,-3.0548,-3.0125,-3.0108,-2.9414,-2.9028,-2.9011,-2.9011,-2.8298,-2.6776,-2.6708,-2.6708,-2.6708,-2.6691,-2.6691,-2.6691,-2.6691,-2.6691,-2.6691,-2.6691,-2.6691,-2.6725,-2.7115,-2.7303,-2.7334,-2.7707,-2.8075,-2.8394,-2.8376,-2.8633,-2.8994,-2.8994,-2.8994,-2.8994,-2.8994,-2.8994,-2.8865,-2.8081,-2.7805,-2.7658,-2.6869,-2.6062,-2.5256,-2.4447,-2.4208,-2.4208,-2.419,-2.419,-2.419,-2.419,-2.419,-2.419,-2.419,-2.419,-2.419,-2.419,-2.4357,-2.4495,-2.4495,-2.4654,-2.4842,-2.4974,-2.501,-2.5077,-2.5264,-2.5303,-2.5303,-2.5303,-2.5303,-2.5303,-2.5303,-2.5303,-2.5303,-2.5303,-2.5303,-2.5303,-2.5303,-2.5352,-2.5406,-2.5398,-2.5471,-2.5508,-2.5489,-2.5564,-2.5634,-2.5703,-2.5703,-2.5703,-2.5703,-2.5703,-2.5703,-2.5703,-2.5703,-2.5703,-2.5703,-2.5703,-2.5703,-2.5703,-2.5703,-2.5703,-2.5703,-2.5703,-2.5703,-2.5683,-3.119,-3.119,-3.119,-3.119,-3.119,-3.119,-3.119,-3.119,-3.119,-3.119,-3.119,-3.119,-3.119,-3.1004,-3.0666,-3.0159,-2.9905,-2.955,-2.9008,-2.9011,-2.8808,-2.8315,-2.7774,-2.7486,-2.7486,-2.6962,-2.6691,-2.6691,-2.6691,-2.6691,-2.6691,-2.6691,-2.6691,-2.6691,-2.6825,-2.6873,-2.6906,-2.7303,-2.753,-2.766,-2.7936,-2.8264,-2.854,-2.8308,-2.8533,-2.8952,-2.8682,-2.8749,-2.8957,-2.8723,-2.865,-2.8503,-2.7695,-2.6888,-2.608,-2.5273,-2.5054,-2.4905,-2.4355,-2.419,-2.419,-2.419,-2.419,-2.419,-2.419,-2.419,-2.419,-2.419,-2.4247,-2.4321,-2.4478,-2.4561,-2.4654,-2.4842,-2.4869,-2.4904,-2.5065,-2.5088,-2.5152,-2.5274,-2.5303,-2.5303,-2.5303,-2.5303,-2.5303,-2.5303,-2.5303,-2.5303,-2.5303,-2.5322,-2.533,-2.5321,-2.5337,-2.5376,-2.5434,-2.5508,-2.5561,-2.5633,-2.5633,-2.5659,-2.5703,-2.5703,-2.5703,-2.5703,-2.5703,-2.5703,-2.5703,-2.5703,-2.5703,-2.5703,-2.5703,-2.5703,-2.5703,-2.5703,-2.5703,-2.5683,-3.119,-3.119,-3.119,-3.119,-3.119,-3.119,-3.119,-3.119,-3.119,-3.119,-3.119,-3.119,-3.119,-3.119,-3.1021,-3.0581,-3.0548,-3.0345,-2.9888,-2.9854,-2.9854,-2.9854,-2.9127,-2.8586,-2.8281,-2.7841,-2.7604,-2.7604,-2.7604,-2.7604,-2.7604,-2.7604,-2.7435,-2.7148,-2.7148,-2.6962,-2.6725,-2.6971,-2.7147,-2.7334,-2.756,-2.788,-2.8183,-2.7982,-2.8174,-2.8533,-2.829,-2.8438,-2.8773,-2.8773,-2.8863,-2.8847,-2.8044,-2.7475,-2.6924,-2.6098,-2.566,-2.5293,-2.4795,-2.4428,-2.419,-2.419,-2.419,-2.419,-2.419,-2.419,-2.419,-2.419,-2.419,-2.4247,-2.4357,-2.4375,-2.4444,-2.4654,-2.4685,-2.4727,-2.4904,-2.493,-2.4993,-2.5152,-2.5173,-2.5173,-2.5173,-2.5173,-2.5173,-2.5173,-2.5264,-2.5303,-2.5303,-2.5303,-2.5303,-2.5303,-2.5303,-2.5322,-2.5363,-2.5406,-2.5477,-2.5561,-2.5561,-2.5573,-2.5611,-2.5658,-2.566,-2.5661,-2.5683,-2.5703,-2.5703,-2.5703,-2.5703,-2.5703,-2.5703,-2.5703,-2.5703,-2.5703,-2.5703,-2.5683,-3.1112,-3.1151,-3.119,-3.119,-3.119,-3.119,-3.119,-3.119,-3.119,-3.119,-3.119,-3.119,-3.119,-3.119,-3.119,-3.119,-3.119,-3.119,-3.119,-3.119,-3.119,-3.119,-3.0565,-2.9871,-2.9194,-2.9096,-2.9011,-2.9011,-2.9011,-2.9011,-2.9011,-2.9011,-2.8602,-2.7926,-2.7926,-2.7537,-2.6894,-2.6826,-2.7009,-2.7327,-2.7258,-2.7487,-2.784,-2.7811,-2.784,-2.7897,-2.7869,-2.8075,-2.8368,-2.8368,-2.8633,-2.8824,-2.8072,-2.7834,-2.771,-2.6921,-2.619,-2.5586,-2.5439,-2.4869,-2.4281,-2.4208,-2.419,-2.419,-2.419,-2.419,-2.419,-2.419,-2.419,-2.419,-2.419,-2.419,-2.4266,-2.4444,-2.4478,-2.4526,-2.4746,-2.4775,-2.4828,-2.4962,-2.4986,-2.4986,-2.501,-2.501,-2.4998,-2.4986,-2.5163,-2.5274,-2.5274,-2.5284,-2.5303,-2.5303,-2.5303,-2.5303,-2.5303,-2.5303,-2.5371,-2.5484,-2.5484,-2.5484,-2.5493,-2.5561,-2.5598,-2.5598,-2.5659,-2.5683,-2.5683,-2.5683,-2.5683,-2.5683,-2.5703,-2.5703,-2.5703,-2.5703,-2.5703,-2.5703,-3.0477,-3.0878,-3.119,-3.119,-3.119,-3.119,-3.119,-3.119,-3.119,-3.119,-3.119,-3.119,-3.119,-3.119,-3.119,-3.119,-3.119,-3.119,-3.119,-3.119,-3.119,-3.119,-3.1055,-3.0886,-3.0717,-2.9583,-2.9011,-2.9011,-2.9011,-2.9011,-2.9011,-2.9011,-2.889,-2.8738,-2.8738,-2.8636,-2.845,-2.7841,-2.7605,-2.7658,-2.7046,-2.7051,-2.7396,-2.7083,-2.7348,-2.7869,-2.753,-2.7678,-2.7992,-2.7992,-2.8237,-2.8504,-2.8323,-2.8268,-2.8173,-2.7684,-2.742,-2.6998,-2.5752,-2.5274,-2.4999,-2.4355,-2.419,-2.419,-2.419,-2.419,-2.419,-2.419,-2.419,-2.419,-2.419,-2.419,-2.4209,-2.4266,-2.4284,-2.4339,-2.4545,-2.4578,-2.4639,-2.4814,-2.4842,-2.4877,-2.4998,-2.501,-2.4949,-2.4855,-2.4981,-2.5077,-2.5077,-2.5214,-2.5303,-2.5303,-2.5303,-2.5303,-2.5303,-2.5303,-2.5348,-2.5421,-2.5421,-2.5459,-2.5493,-2.5526,-2.5511,-2.5511,-2.5543,-2.5547,-2.5551,-2.5601,-2.5611,-2.5633,-2.5683,-2.5703,-2.5703,-2.5703,-2.5703,-2.5703,-3.0293,-3.0797,-3.119,-3.119,-3.0958,-3.0878,-3.1151,-3.0975,-3.0878,-3.1151,-3.119,-3.119,-3.119,-3.119,-3.119,-3.119,-3.119,-3.119,-3.119,-3.119,-3.119,-3.119,-3.119,-3.119,-3.119,-3.0429,-3.004,-3.004,-3.004,-3.004,-3.004,-3.004,-2.9854,-2.9516,-2.9516,-2.9313,-2.8958,-2.8552,-2.8383,-2.8332,-2.7943,-2.7675,-2.7502,-2.7284,-2.7279,-2.7303,-2.7083,-2.7272,-2.7648,-2.784,-2.8037,-2.8156,-2.8156,-2.8264,-2.8355,-2.8149,-2.7949,-2.7622,-2.6759,-2.5991,-2.5311,-2.4869,-2.4483,-2.419,-2.419,-2.419,-2.419,-2.419,-2.419,-2.419,-2.419,-2.419,-2.419,-2.419,-2.419,-2.4247,-2.4339,-2.4357,-2.4426,-2.4623,-2.4654,-2.4682,-2.4747,-2.4747,-2.4737,-2.467,-2.4809,-2.4924,-2.4998,-2.5099,-2.5203,-2.5303,-2.5303,-2.5303,-2.5303,-2.5303,-2.5322,-2.5354,-2.5354,-2.536,-2.5413,-2.5434,-2.5459,-2.544,-2.5498,-2.5493,-2.5493,-2.5543,-2.5554,-2.5558,-2.5598,-2.5611,-2.5659,-2.5659,-2.5662,-2.5703,-2.9978,-3.0477,-3.0878,-3.0878,-3.0477,-3.0351,-3.0958,-3.0617,-3.0518,-3.1112,-3.1112,-3.1112,-3.119,-3.119,-3.119,-3.119,-3.119,-3.119,-3.119,-3.119,-3.119,-3.119,-3.119,-3.119,-3.119,-3.119,-3.119,-3.119,-3.119,-3.119,-3.119,-3.119,-3.0869,-3.0294,-3.0294,-2.9956,-2.9347,-2.9228,-2.9178,-2.9161,-2.9025,-2.8602,-2.8027,-2.8027,-2.7554,-2.6894,-2.6894,-2.7074,-2.7317,-2.7607,-2.7754,-2.7811,-2.7811,-2.7992,-2.8219,-2.8272,-2.8118,-2.7885,-2.7738,-2.6731,-2.5651,-2.5456,-2.4847,-2.4296,-2.4226,-2.419,-2.419,-2.419,-2.419,-2.419,-2.419,-2.419,-2.419,-2.419,-2.419,-2.419,-2.419,-2.419,-2.4247,-2.4445,-2.4478,-2.4495,-2.4444,-2.4478,-2.4478,-2.4444,-2.4639,-2.4799,-2.4911,-2.4949,-2.5053,-2.5234,-2.5253,-2.5264,-2.5303,-2.5303,-2.5303,-2.5303,-2.5303,-2.5303,-2.5313,-2.5354,-2.5376,-2.5391,-2.5447,-2.5471,-2.5477,-2.5488,-2.5473,-2.5473,-2.5508,-2.552,-2.5573,-2.5598,-2.5634,-2.5683,-2.8732,-2.9225,-2.9629,-2.9629,-2.9585,-2.9717,-3.0351,-3.0335,-3.0518,-3.1112,-3.0757,-3.0617,-3.1151,-3.119,-3.119,-3.119,-3.119,-3.119,-3.119,-3.119,-3.119,-3.119,-3.119,-3.119,-3.119,-3.119,-3.119,-3.119,-3.119,-3.119,-3.119,-3.119,-3.114,-3.1055,-3.1055,-3.0987,-3.0852,-3.0226,-2.9956,-2.9905,-2.9245,-2.8924,-2.8822,-2.8822,-2.8332,-2.7637,-2.7637,-2.7503,-2.7272,-2.6971,-2.7083,-2.7378,-2.7378,-2.7409,-2.753,-2.7851,-2.8139,-2.8164,-2.7459,-2.7115,-2.6716,-2.5651,-2.5066,-2.4625,-2.4278,-2.419,-2.419,-2.419,-2.419,-2.419,-2.419,-2.419,-2.419,-2.419,-2.419,-2.419,-2.419,-2.419,-2.4209,-2.4247,-2.4393,-2.4426,-2.4266,-2.441,-2.4445,-2.4247,-2.4428,-2.4543,-2.4575,-2.4727,-2.4891,-2.5034,-2.5034,-2.5111,-2.5303,-2.5303,-2.5303,-2.5303,-2.5303,-2.5303,-2.5303,-2.5303,-2.5313,-2.5313,-2.5312,-2.534,-2.533,-2.5391,-2.5408,-2.5427,-2.5488,-2.5517,-2.5531,-2.557,-2.5603,-2.5611,-2.8589,-2.9012,-2.9406,-2.9406,-2.9134,-2.9088,-2.9717,-2.9496,-2.9496,-3.0123,-2.9935,-2.9892,-3.0166,-3.0477,-3.0699,-3.0699,-3.1015,-3.119,-3.119,-3.119,-3.119,-3.119,-3.119,-3.119,-3.119,-3.119,-3.119,-3.119,-3.119,-3.119,-3.119,-3.119,-3.119,-3.119,-3.119,-3.119,-3.1173,-3.0852,-3.0717,-3.0683,-3.0345,-2.9973,-2.96,-2.96,-2.9144,-2.8416,-2.7977,-2.742,-2.6939,-2.6758,-2.6808,-2.6954,-2.6954,-2.7115,-2.7317,-2.75,-2.7823,-2.8067,-2.7936,-2.742,-2.6752,-2.5978,-2.5144,-2.442,-2.3997,-2.3917,-2.3976,-2.417,-2.419,-2.419,-2.419,-2.419,-2.419,-2.419,-2.419,-2.419,-2.419,-2.419,-2.419,-2.419,-2.4266,-2.4303,-2.4209,-2.4284,-2.4303,-2.4209,-2.4284,-2.4375,-2.4495,-2.4575,-2.4712,-2.4877,-2.4891,-2.4936,-2.5031,-2.5096,-2.5122,-2.5122,-2.5253,-2.5303,-2.5303,-2.5303,-2.5303,-2.5303,-2.5303,-2.5303,-2.5293,-2.533,-2.5329,-2.5357,-2.5387,-2.5401,-2.544,-2.5526,-2.5547,-2.5551]},{"header":{"parameterUnit":"m.s-1","parameterCategory":1,"la1":30.6,"la2":28.766,"lo1":-90.7593,"lo2":-88.6598,"dy":0.0162,"dx":0.0183,"nx":116,"ny":114,"refTime":"2024-05-26T12:00:00:Z","depth":0,"parameterNumber":3,"parameterNumberName":"V-component_of_WINDS"},"data":[0.0,0.0,0.0,0.0,0.0,0.0,0.0,0.0,0.0,0.0,0.0,0.0,0.0,0.0,0.0,0.0,0.0,0.0,0.0,0.0,0.0,0.0,0.0,0.0,0.0,0.0,0.0,0.0,0.0,0.0,0.0,0.0,0.0,0.0,0.0,0.0,0.0,0.0,0.0,0.0,0.0,0.0,0.0,0.0,0.0,0.0,0.0,0.0,0.0,0.0,0.0,0.0,0.0,0.0,0.0,0.0,0.0,0.0,0.0,0.0,0.0,0.0,0.0,0.0,0.0,0.0,0.0,0.0,0.0,0.0,0.0,0.0,0.0,0.0,0.0,0.0,0.0,0.0,0.0,0.0,0.0,0.0,0.0,0.0,0.0,0.0,0.0,0.0,0.0,0.0,0.0,0.0,0.0,0.0,0.0,0.0,0.0,0.0,0.0,0.0,0.0,0.0,0.0,0.0,0.0,0.0,0.0,0.0,0.0,0.0,0.0,0.0,0.0,0.0,0.0,0.0,0.0,0.0,0.0,0.0,0.0,0.0,0.0,0.0,0.0,0.0,0.0,0.0,0.0,0.0,0.0,0.0,0.0,0.0,0.0,0.0,0.0,0.0,0.0,0.0,0.0,0.0,0.0,0.0,0.0,0.0,0.0,0.0,0.0,0.0,0.0,0.0,0.0,0.0,0.0,0.0,0.0,0.0,0.0,0.0,0.0,0.0,0.0,0.0,0.0,0.0,0.0,0.0,0.0,0.0,0.0,0.0,0.0,0.0,0.0,0.0,0.0,0.0,0.0,0.0,0.0,0.0,0.0,0.0,0.0,0.0,0.0,0.0,0.0,0.0,0.0,0.0,0.0,0.0,0.0,0.0,0.0,0.0,0.0,0.0,0.0,0.0,0.0,0.0,0.0,0.0,0.0,0.0,0.0,0.0,0.0,0.0,0.0,0.0,0.0,0.0,0.0,0.0,0.0,0.0,0.0,0.0,0.0,0.0,0.0,0.0,0.0,0.0,0.0,0.0,0.0,0.0,0.0,0.0,0.0,0.0,0.0,0.0,0.0,0.0,0.0,0.0,0.0,0.0,0.0,0.0,0.0,0.0,0.0,0.0,0.0,0.0,0.0,0.0,0.0,0.0,0.0,0.0,0.0,0.0,0.0,0.0,0.0,0.0,0.0,0.0,0.0,0.0,0.0,0.0,0.0,0.0,0.0,0.0,0.0,0.0,0.0,0.0,0.0,0.0,0.0,0.0,0.0,0.0,0.0,0.0,0.0,0.0,0.0,0.0,0.0,0.0,0.0,0.0,0.0,0.0,0.0,0.0,0.0,0.0,0.0,0.0,0.0,0.0,0.0,0.0,0.0,0.0,0.0,0.0,0.0,0.0,0.0,0.0,0.0,0.0,0.0,0.0,0.0,0.0,0.0,0.0,0.0,0.0,0.0,0.0,0.0,0.0,0.0,0.0,0.0,0.0,0.0,0.0,0.0,0.0,0.0,0.0,0.0,0.0,0.0,0.0,0.0,0.0,0.0,0.0,0.0,0.0,0.0,0.0,0.0,0.0,0.0,0.0,0.0,0.0,0.0,0.0,0.0,0.0,0.0,0.0,0.0,0.0,0.0,0.0,0.0,0.0,0.0,0.0,0.0,0.0,0.0,0.0,0.0,0.0,0.0,0.0,0.0,0.0,0.0,0.0,0.0,0.0,0.0,0.0,0.0,0.0,0.0,0.0,0.0,0.0,0.0,0.0,0.0,0.0,0.0,0.0,0.0,0.0,0.0,0.0,0.0,0.0,0.0,0.0,0.0,0.0,0.0,0.0,0.0,0.0,0.0,0.0,0.0,0.0,0.0,0.0,0.0,0.0,0.0,0.0,0.0,0.0,0.0,0.0,0.0,0.0,0.0,0.0,0.0,0.0,0.0,0.0,0.0,0.0,0.0,0.0,0.0,0.0,0.0,0.0,0.0,0.0,0.0,0.0,0.0,0.0,0.0,0.0,0.0,0.0,0.0,0.0,0.0,0.0,0.0,0.0,0.0,0.0,0.0,0.0,0.0,0.0,0.0,0.0,0.0,0.0,0.0,0.0,0.0,0.0,0.0,0.0,0.0,0.0,0.0,0.0,0.0,0.0,0.0,0.0,0.0,0.0,0.0,0.0,0.0,0.0,0.0,0.0,0.0,0.0,0.0,0.0,0.0,0.0,0.0,0.0,0.0,0.0,0.0,0.0,0.0,0.0,0.0,0.0,0.0,0.0,0.0,0.0,0.0,0.0,0.0,0.0,0.0,0.0,0.0,0.0,0.0,0.0,0.0,0.0,0.0,0.0,0.0,0.0,0.0,0.0,0.0,0.0,0.0,0.0,0.0,0.0,0.0,0.0,0.0,0.0,0.0,0.0,0.0,0.0,0.0,0.0,0.0,0.0,0.0,0.0,0.0,0.0,0.0,0.0,0.0,0.0,0.0,0.0,0.0,0.0,0.0,0.0,0.0,0.0,0.0,0.0,0.0,0.0,0.0,0.0,0.0,0.0,0.0,0.0,0.0,0.0,0.0,0.0,0.0,0.0,0.0,0.0,0.0,0.0,0.0,0.0,0.0,0.0,0.0,0.0,0.0,0.0,0.0,0.0,0.0,0.0,0.0,0.0,0.0,0.0,0.0,0.0,0.0,0.0,0.0,0.0,0.0,0.0,0.0,0.0,0.0,0.0,0.0,0.0,0.0,0.0,0.0,0.0,0.0,0.0,0.0,0.0,0.0,0.0,0.0,0.0,0.0,0.0,0.0,0.0,0.0,0.0,0.0,0.0,0.0,0.0,0.0,0.0,0.0,0.0,0.0,0.0,0.0,0.0,0.0,0.0,0.0,0.0,0.0,0.0,0.0,0.0,0.0,0.0,0.0,0.0,0.0,0.0,0.0,0.0,0.0,0.0,0.0,0.0,0.0,0.0,0.0,0.0,0.0,0.0,0.0,0.0,0.0,0.0,0.0,0.0,0.0,0.0,0.0,0.0,0.0,0.0,0.0,0.0,0.0,0.0,0.0,0.0,0.0,0.0,0.0,0.0,0.0,0.0,0.0,0.0,0.0,0.0,0.0,0.0,0.0,0.0,0.0,0.0,0.0,0.0,0.0,0.0,0.0,0.0,0.0,0.0,0.0,0.0,0.0,0.0,0.0,0.0,0.0,0.0,0.0,0.0,0.0,0.0,0.0,0.0,0.0,0.0,0.0,0.0,0.0,0.0,0.0,0.0,0.0,0.0,0.0,0.0,0.0,0.0,0.0,0.0,0.0,0.0,0.0,0.0,0.0,0.0,0.0,0.0,0.0,0.0,0.0,0.0,0.0,0.0,0.0,0.0,0.0,0.0,0.0,0.0,0.0,0.0,0.0,0.0,0.0,0.0,0.0,0.0,0.0,0.0,0.0,0.0,0.0,0.0,0.0,0.0,0.0,0.0,0.0,0.0,0.0,0.0,0.0,0.0,0.0,0.0,0.0,0.0,0.0,0.0,0.0,0.0,0.0,0.0,0.0,0.0,0.0,0.0,0.0,0.0,0.0,0.0,0.0,0.0,0.0,0.0,0.0,0.0,0.0,0.0,0.0,0.0,0.0,0.0,0.0,0.0,0.0,0.0,0.0,0.0,0.0,0.0,0.0,0.0,0.0,0.0,0.0,0.0,0.0,0.0,0.0,0.0,0.0,0.0,0.0,0.0,0.0,0.0,0.0,0.0,0.0,0.0,0.0,0.0,0.0,0.0,0.0,0.0,0.0,0.0,0.0,0.0,0.0,0.0,0.0,0.0,0.0,0.0,0.0,0.0,0.0,0.0,0.0,0.0,0.0,0.0,0.0,0.0,0.0,0.0,0.0,0.0,0.0,0.0,0.0,0.0,0.0,0.0,0.0,0.0,0.0,0.0,0.0,0.0,0.0,0.0,0.0,0.0,0.0,0.0,0.0,0.0,0.0,0.0,0.0,0.0,0.0,0.0,0.0,0.0,0.0,0.0,0.0,0.0,0.0,0.0,0.0,0.0,0.0,0.0,0.0,0.0,0.0,0.0,0.0,0.0,0.0,0.0,0.0,0.0,0.0,0.0,0.0,0.0,0.0,0.0,0.0,0.0,0.0,0.0,0.0,0.0,0.0,0.0,0.0,0.0,0.0,0.0,0.0,0.0,0.0,0.0,0.0,0.0,0.0,0.0,0.0,0.0,0.0,0.0,0.0,0.0,0.0,0.0,0.0,0.0,0.0,0.0,0.0,0.0,0.0,0.0,0.0,0.0,0.0,0.0,0.0,0.0,0.0,0.0,0.0,0.0,0.0,0.0,0.0,0.0,0.0,0.0,0.0,0.0,0.0,0.0,0.0,0.0,0.0,0.0,0.0,0.0,0.0,0.0,0.0,0.0,0.0,0.0,0.0,0.0,0.0,0.0,0.0,0.0,0.0,0.0,0.0,0.0,0.0,0.0,0.0,0.0,0.0,0.0,0.0,0.0,0.0,0.0,0.0,0.0,0.0,0.0,0.0,0.0,0.0,0.0,0.0,0.0,0.0,0.0,0.0,0.0,0.0,0.0,0.0,0.0,0.0,0.0,0.0,0.0,0.0,0.0,0.0,0.0,0.0,0.0,0.0,0.0,0.0,0.0,0.0,0.0,0.0,0.0,0.0,0.0,0.0,0.0,0.0,0.0,0.0,0.0,0.0,0.0,0.0,0.0,0.0,0.0,0.0,0.0,0.0,0.0,0.0,0.0,0.0,0.0,0.0,0.0,0.0,0.0,0.0,0.0,0.0,0.0,0.0,0.0,0.0,0.0,0.0,0.0,0.0,0.0,0.0,0.0,0.0,0.0,0.0,0.0,0.0,0.0,0.0,0.0,0.0,0.0,0.0,0.0,0.0,0.0,0.0,0.0,0.0,0.0,0.0,0.0,0.0,0.0,0.0,0.0,0.0,0.0,0.0,0.0,0.0,0.0,0.0,0.0,0.0,0.0,0.0,0.0,0.0,0.0,0.0,0.0,0.0,0.0,0.0,0.0,0.0,0.0,0.0,0.0,0.0,0.0,0.0,0.0,0.0,0.0,0.0,0.0,0.0,0.0,0.0,0.0,0.0,0.0,0.0,0.0,0.0,0.0,0.0,0.0,0.0,0.0,0.0,0.0,0.0,0.0,0.0,0.0,0.0,0.0,0.0,0.0,0.0,0.0,0.0,0.0,0.0,0.0,0.0,0.0,0.0,0.0,0.0,0.0,0.0,0.0,0.0,0.0,0.0,0.0,0.0,0.0,0.0,0.0,0.0,0.0,0.0,0.0,0.0,0.0,0.0,0.0,0.0,0.0,0.0,0.0,0.0,0.0,0.0,0.0,0.0,0.0,0.0,0.0,0.0,0.0,0.0,0.0,0.0,0.0,0.0,0.0,0.0,0.0,0.0,0.0,0.0,0.0,0.0,0.0,0.0,0.0,0.0,0.0,0.0,0.0,0.0,0.0,0.0,0.0,0.0,0.0,0.0,0.0,0.0,0.0,0.0,0.0,0.0,0.0,0.0,0.0,0.0,0.0,0.0,0.0,0.0,0.0,0.0,0.0,0.0,0.0,0.0,0.0,0.0,0.0,0.0,0.0,0.0,0.0,0.0,0.0,0.0,0.0,0.0,0.0,0.0,0.0,0.0,0.0,0.0,0.0,0.0,0.0,0.0,0.0,0.0,0.0,0.0,0.0,0.0,0.0,0.0,0.0,0.0,0.0,0.0,0.0,0.0,0.0,0.0,0.0,0.0,0.0,0.0,0.0,0.0,0.0,0.0,0.0,0.0,0.0,0.0,0.0,0.0,0.0,0.0,0.0,0.0,0.0,0.0,0.0,0.0,0.0,0.0,0.0,0.0,0.0,0.0,0.0,0.0,0.0,0.0,0.0,0.0,0.0,0.0,0.0,0.0,0.0,0.0,0.0,0.0,0.0,0.0,0.0,0.0,0.0,0.0,0.0,0.0,0.0,0.0,0.0,0.0,0.0,0.0,0.0,0.0,0.0,0.0,0.0,0.0,0.0,0.0,0.0,0.0,0.0,0.0,0.0,0.0,0.0,0.0,0.0,0.0,0.0,0.0,0.0,0.0,0.0,0.0,0.0,-1.3894,0.0,0.0,0.0,0.0,0.0,0.0,0.0,0.0,0.0,0.0,0.0,0.0,0.0,0.0,0.0,0.0,0.0,0.0,0.0,0.0,0.0,0.0,0.0,0.0,0.457,0.5041,0.5088,0.5349,0.5492,0.5492,0.0,0.0,0.0,0.0,0.0,0.2929,0.2569,0.2465,0.2598,0.2107,0.203,0.2331,0.2259,0.2613,0.3313,0.0,0.0,0.0,0.0,0.0,0.0,0.0,0.0,0.0,0.0,0.0,0.0,0.0,0.0,0.0,0.0,0.0,0.0,0.0,0.0,0.0,0.0,0.0,0.0,0.0,0.0,0.0,0.0,0.0,0.0,0.0,0.0,0.0,0.0,0.0,0.0,0.0,0.0,0.0,0.0,0.0,0.0,0.0,0.0,0.0,0.0,0.0,0.0,0.0,0.0,0.0,0.0,0.0,0.0,0.0,0.0,0.0,0.0,0.0,0.0,0.0,0.0,0.0,0.0,0.0,0.0,0.0,0.0,0.0,0.0,0.0,-1.5005,0.0,0.0,0.0,0.0,0.0,0.0,0.0,0.0,0.0,0.0,0.0,0.0,0.0,0.0,0.0,0.0,0.0,0.0,0.0,0.0,0.0,0.3493,0.395,0.4415,0.481,0.5136,0.5368,0.5492,0.5492,0.5454,0.0,0.0,0.0,0.373,0.2866,0.2584,0.2531,0.2696,0.1901,0.1509,0.1466,0.1597,0.2163,0.3068,0.2013,0.0,0.0,0.0,0.0,0.0,0.0,0.0,0.0,0.0,0.0,0.0,0.0,0.0,0.0,0.0,0.0,0.0,0.0,0.0,0.0,0.0,0.0,0.0,0.0,0.0,0.0,0.0,0.0,0.0,0.0,0.0,0.0,0.0,0.0,0.0,0.0,0.0,0.0,0.0,0.0,0.0,0.0,0.0,0.0,0.0,0.0,0.0,0.0,0.0,0.0,0.0,0.0,0.0,0.0,0.0,0.0,0.0,0.0,0.0,0.0,0.0,0.0,0.0,0.0,0.0,-1.8694,-1.9437,-1.9722,-1.9616,-1.8393,-1.7589,-1.7097,0.0,0.0,0.0,0.0,0.0,0.0,0.0,0.0,0.0,0.0,0.0,0.0,0.0,0.0,0.0,0.0,0.0,0.0,0.0,0.0,0.397,0.4375,0.4985,0.5392,0.5444,0.5473,0.5492,0.5492,0.5291,0.0,0.0,0.4299,0.3895,0.3072,0.2797,0.2783,0.3032,0.2635,0.2318,0.2077,0.1363,0.1224,0.1596,0.1708,0.1456,0.098,0.0,0.0,0.0,0.0,0.0,0.0,0.0,0.0,0.0,0.0,0.0,0.0,0.0,0.0,0.0,0.0,0.0,0.0,0.0,0.0,0.0,0.0,0.0,0.0,0.0,0.0,0.0,0.0,0.0,0.0,0.0,0.0,0.0,0.0,0.0,0.0,0.0,0.0,0.0,0.0,0.0,-1.1263,-1.2065,0.0,0.0,0.0,0.0,0.0,0.0,0.0,0.0,0.0,0.0,0.0,0.0,0.0,0.0,-1.9873,-2.0587,-2.0983,-2.1119,-2.1816,-2.2141,-2.2141,-2.2312,-2.2397,-2.2417,-2.3003,0.0,-1.9737,-1.8927,0.0,0.0,0.0,0.0,0.0,0.0,0.0,0.0,0.0,0.0,0.0,0.0,0.0,0.0,0.0,0.0,0.0,0.0,0.0,0.0,0.0,0.5457,0.6018,0.6169,0.6451,0.6433,0.5989,0.5694,0.5169,0.4342,0.415,0.3779,0.3111,0.3141,0.2888,0.2364,0.1809,0.1333,0.0949,0.0579,0.044,0.0583,0.0732,0.0657,0.0397,0.039,0.0,0.0,0.0,0.0,0.0,0.0,0.0,0.0,0.0,0.0,0.0,0.0,0.0,0.0,0.0,0.0,0.0,0.0,0.0,0.0,0.0,0.0,0.0,0.0,0.0,0.0,0.0,0.0,0.0,0.0,0.0,0.0,0.0,0.0,0.0,0.0,0.0,0.0,0.0,-1.1934,-1.2703,-1.2624,-1.3136,-1.3164,0.0,0.0,0.0,0.0,0.0,0.0,0.0,0.0,0.0,-1.9887,-1.9948,-2.0746,-2.2459,-2.2824,-2.3227,-2.3679,-2.4072,-2.4255,-2.4255,-2.4341,-2.4362,-2.4374,-2.4801,-2.431,-2.3127,-2.1859,-2.0565,-1.9244,0.0,0.0,0.0,0.0,0.0,-1.7785,0.0,0.0,0.0,0.0,0.0,0.0,0.0,0.0,0.0,0.0,0.0,0.0,0.5202,0.6007,0.6643,0.6989,0.7241,0.7167,0.6597,0.6024,0.5323,0.4516,0.4115,0.3612,0.3004,0.3098,0.2705,0.18,0.1162,0.0578,0.0,0.0,0.0,0.0,0.0,-0.0377,-0.0945,-0.0274,-0.0486,0.0,0.0,0.0,0.0,0.0,0.0,0.0,0.0,0.0,0.0,0.0,0.0,0.0,0.0,0.0,0.0,0.0,0.0,0.0,0.0,0.0,0.0,0.0,0.0,0.0,0.0,0.0,0.0,0.0,0.0,0.0,0.0,0.0,0.0,0.0,0.0,0.0,0.0,-1.3449,-1.427,-1.3719,-1.5108,-1.5502,0.0,0.0,0.0,0.0,0.0,0.0,-1.8736,-1.9604,-2.0746,-2.2191,-2.2239,-2.2939,-2.4389,-2.4409,-2.4716,-2.5303,-2.537,-2.5409,-2.5409,-2.5486,-2.5528,-2.5537,-2.5537,-2.5552,-2.544,-2.4009,-2.2651,-2.1395,-2.0594,-1.9862,-1.9406,-2.0637,-2.0692,-2.0473,0.0,0.0,0.0,0.0,0.0,0.0,0.0,0.0,0.0,0.0,0.0,0.523,0.6125,0.6739,0.727,0.7794,0.7398,0.7149,0.0,0.593,0.5101,0.4972,0.4289,0.3528,0.274,0.2431,0.2119,0.18,0.1435,0.0832,0.0,0.0,0.0,0.0,0.0,-0.1392,-0.3546,-0.104,-0.1775,-0.4417,0.0,0.0,0.0,0.0,0.0,0.0,0.0,0.0,0.0,0.0,0.0,0.0,0.0,0.0,0.0,0.0,0.0,0.0,0.0,0.0,0.0,0.0,0.0,0.0,0.0,0.0,0.0,0.0,0.0,0.0,0.0,0.0,0.0,0.0,0.0,0.0,0.0,0.0,0.0,-1.6177,-1.7472,0.0,0.0,0.0,0.0,-1.8838,-2.0463,-2.1421,-2.1405,-2.2247,-2.3092,-2.3947,-2.3966,-2.437,-2.5226,-2.5245,-2.5264,-2.5303,-2.537,-2.5409,-2.5409,-2.5543,-2.5592,-2.5601,-2.5667,-2.5688,-2.562,-2.4643,-2.4188,-2.4032,-2.3213,-2.293,-2.2949,-2.2969,-2.289,-2.294,0.0,0.0,0.0,0.0,0.0,0.2744,0.314,0.3454,0.392,0.4662,0.5357,0.607,0.6748,0.76,0.8269,0.8649,0.881,0.8609,0.7939,0.6776,0.5867,0.5281,0.413,0.3312,0.2851,0.2246,0.1789,0.1472,0.0777,0.0303,0.0,0.0,0.0,0.0,0.0,-0.0519,-0.133,-0.0403,-0.0654,-0.1696,-0.1651,-0.2076,0.0,0.0,0.0,0.0,0.0,0.0,0.0,0.0,0.0,0.0,0.0,0.0,0.0,0.0,0.0,0.0,0.0,0.0,0.0,0.0,0.0,0.0,0.0,0.0,0.0,0.0,0.0,0.0,0.0,0.0,0.0,0.0,0.0,0.0,0.0,0.0,0.0,-1.7975,-1.9373,0.0,0.0,-2.005,-2.0711,-2.0716,-2.2277,-2.3226,-2.3217,-2.4044,-2.463,-2.4928,-2.4986,-2.5139,-2.5428,-2.5428,-2.5707,-2.6275,-2.6333,-2.6651,-2.72,-2.7307,-2.7335,-2.7339,-2.7364,-2.7372,-2.735,-2.7017,-2.6201,-2.5171,-2.4898,-2.4757,-2.4748,-2.4662,-2.4593,-2.4572,0.0,0.0,0.0,0.0,0.2598,0.2793,0.3347,0.3705,0.4179,0.4991,0.5884,0.6686,0.7306,0.8243,0.8985,0.934,0.9516,0.9228,0.8257,0.7167,0.6227,0.5423,0.429,0.3616,0.3464,0.2478,0.1937,0.191,0.0647,0.0,0.0,0.0,0.0,0.0,0.0,0.0,0.0,0.0,-0.1032,-0.2553,-0.1342,-0.2149,-0.4041,0.0,0.0,0.0,0.0,0.0,0.0,0.0,0.0,0.0,0.0,0.0,0.0,0.0,0.0,0.0,0.0,0.0,0.0,0.0,0.0,0.0,0.0,0.0,0.0,0.0,0.0,0.0,0.0,0.0,0.0,0.0,0.0,0.0,0.0,0.0,-1.9775,-1.9744,-2.1393,-2.2205,-2.134,-2.223,-2.2863,-2.2882,-2.3909,-2.4553,-2.4572,-2.512,-2.5428,-2.5429,-2.5766,-2.5948,-2.5948,-2.6218,-2.6671,-2.7249,-2.7306,-2.7644,-2.8193,-2.8268,-2.8301,-2.8301,-2.8301,-2.8301,-2.83,-2.8291,-2.7597,-2.6502,-2.622,-2.5882,-2.5561,-2.5531,-2.5464,-2.539,0.0,0.0,0.0,0.2598,0.2607,0.2911,0.3778,0.3916,0.431,0.5378,0.6211,0.7033,0.7818,0.8649,0.934,0.9855,0.9416,0.8848,0.8241,0.7016,0.6026,0.5381,0.4756,0.4448,0.4561,0.3031,0.2505,0.3061,0.1004,0.0,0.0,0.0,0.0,0.0,0.0,0.0,0.0,0.0,-0.2965,-0.721,-0.206,-0.2746,-0.6781,0.0,0.0,0.0,0.0,0.0,0.0,0.0,0.0,0.0,0.0,0.0,0.0,0.0,0.0,0.0,0.0,0.0,0.0,0.0,0.0,0.0,0.0,0.0,0.0,0.0,0.0,0.0,0.0,0.0,0.0,0.0,0.0,0.0,-1.8639,-2.0794,-2.2123,-2.154,-2.3562,-2.4461,-2.3112,-2.4389,-2.5322,-2.5409,-2.539,-2.5438,-2.5534,-2.5553,-2.5556,-2.5581,-2.6413,-2.6851,-2.6851,-2.7673,-2.8121,-2.814,-2.8202,-2.8261,-2.829,-2.8346,-2.8379,-2.8379,-2.8379,-2.8379,-2.8376,-2.8296,-2.8265,-2.8149,-2.7285,-2.6378,-2.5585,-2.5569,-2.5543,-2.5466,0.0,0.0,0.2598,0.2598,0.2841,0.323,0.3803,0.4146,0.4691,0.5657,0.6673,0.7526,0.811,0.9091,0.973,0.988,0.9767,0.9269,0.8263,0.7413,0.6141,0.4306,0.4666,0.4506,0.3671,0.3143,0.2613,0.2141,0.0724,0.0,0.0,0.0,0.0,0.0,0.0,0.0,0.0,0.0,-0.084,-0.2051,-0.0582,-0.2312,-0.5701,0.0,0.0,0.0,0.0,0.0,0.0,0.0,0.0,0.0,0.0,0.0,0.0,0.0,0.0,0.0,0.0,0.0,0.0,0.0,0.0,0.0,0.0,0.0,0.0,0.0,0.0,0.0,0.0,0.0,0.0,0.0,0.0,-2.0923,-2.042,-2.1887,-2.3057,-2.3126,-2.425,-2.4924,-2.4735,-2.5111,-2.5409,-2.5466,-2.5468,-2.5764,-2.6411,-2.6492,-2.6805,-2.7445,-2.7737,-2.7884,-2.7884,-2.8138,-2.8567,-2.9192,-2.9201,-2.9545,-3.0152,-3.0173,-3.0195,-3.0195,-3.0195,-3.0138,-3.0044,-3.0012,-2.959,-2.886,-2.8074,-2.7585,-2.7316,-2.7323,-2.7264,-2.7217,0.0,0.2598,0.2598,0.2598,0.2938,0.3356,0.3823,0.4244,0.484,0.5771,0.6828,0.77,0.8234,0.9265,0.9805,0.9579,0.964,0.9051,0.7492,0.6979,0.5986,0.4289,0.5404,0.5503,0.4244,0.42,0.3687,0.2699,0.1506,0.1184,0.1701,0.2125,0.1473,0.0,0.0,0.0,0.0,0.0,0.0,0.0,0.0,-0.3492,-0.8537,-0.7125,-0.9348,-1.3029,-1.1434,-1.1333,-1.1961,-1.185,0.0,0.0,0.0,0.0,0.0,0.0,0.0,0.0,0.0,0.0,0.0,0.0,0.0,0.0,0.0,0.0,0.0,0.0,0.0,0.0,0.0,0.0,0.0,0.0,-2.0914,-2.2628,-2.2607,-2.3417,-2.4071,-2.4274,-2.4782,-2.5182,-2.5341,-2.5707,-2.5966,-2.6041,-2.6415,-2.6868,-2.741,-2.7478,-2.7729,-2.824,-2.8637,-2.8848,-2.8848,-2.9219,-2.9648,-3.0137,-3.0137,-3.041,-3.0898,-3.0898,-3.0868,0.0,-3.0813,-3.0769,-3.0656,-3.064,-3.0275,0.0,0.0,0.0,0.0,0.0,-2.7918,-2.789,0.0,0.2637,0.2637,0.2686,0.3018,0.3434,0.3892,0.4339,0.4919,0.5789,0.6803,0.764,0.8134,0.9138,0.9591,0.9185,0.9267,0.8573,0.0,0.6359,0.5902,0.5201,0.6633,0.6901,0.5755,0.5755,0.5269,0.4239,0.3105,0.3123,0.425,0.5237,0.3962,0.0814,0.0899,0.0932,0.0919,0.0707,0.0564,0.0471,0.0582,-0.4935,-1.2922,-1.0118,-1.2413,-1.6795,-1.4573,-1.3797,-1.3782,-1.3697,0.0,0.0,0.0,0.0,0.0,0.0,0.0,0.0,0.0,0.0,0.0,0.0,0.0,0.0,0.0,0.0,0.0,0.0,0.0,0.0,0.0,0.0,0.0,0.0,-2.2322,-2.3768,-2.4662,-2.493,-2.5034,-2.5034,-2.5203,-2.5341,-2.5457,-2.6217,-2.6787,-2.6952,-2.7743,-2.8275,-2.8437,0.0,0.0,0.0,0.0,-2.9746,-2.9746,-3.0508,-3.0898,-3.0898,-3.0876,-3.0873,-3.0873,-3.0876,-3.0789,-3.0687,-3.0691,-3.0646,-3.0581,-3.0509,-3.0506,-3.041,-2.964,-2.8852,-2.8179,-2.8179,-2.8179,0.0,0.0,0.2798,0.2866,0.3187,0.3525,0.3911,0.4316,0.4907,0.5444,0.5845,0.6653,0.7283,0.7548,0.8342,0.9035,0.9459,0.9189,0.8837,0.0,0.7448,0.7023,0.7431,0.7515,0.7386,0.7057,0.6574,0.6143,0.5793,0.5104,0.4896,0.5185,0.6379,0.6597,0.5922,0.647,0.6692,0.6591,0.5093,0.3989,0.3361,0.4133,-0.2211,-1.1892,-0.9764,-1.2553,-1.7482,-1.6826,-1.6745,-1.6949,-1.7073,-1.6441,-1.5645,-1.6068,-1.4682,0.0,0.0,0.0,0.0,0.0,0.0,0.0,0.0,0.0,0.0,0.0,0.0,0.0,0.0,0.0,0.0,0.0,0.0,0.0,-2.1522,-2.3281,-2.4572,-2.4771,-2.5068,-2.5234,-2.5234,-2.5274,-2.5591,-2.636,-2.6641,-2.7094,-2.7864,-2.8156,-2.8587,-2.9316,-2.9355,0.0,-3.0371,-3.0566,-3.0644,-3.0644,-3.082,-3.0898,-3.0898,0.0,0.0,-3.0733,-3.0691,-3.0637,-3.0625,-3.0625,-3.0579,-3.0527,-3.051,-3.0467,-3.0398,-3.0237,-3.0063,-2.9929,-2.9929,-2.9929,-2.9929,0.3506,0.3151,0.3005,0.3506,0.3801,0.4109,0.4623,0.5154,0.5606,0.5874,0.661,0.7166,0.7374,0.8017,0.8465,0.8495,0.8073,0.0,0.8847,0.84,0.8192,0.841,0.8932,0.8898,0.816,0.836,0.8107,0.7406,0.713,0.7494,0.8444,0.9105,0.9562,0.9866,1.022,0.9609,0.8219,0.7284,0.5826,0.4147,0.4597,-0.1469,-1.0752,-0.9767,-1.3232,-1.851,-1.8202,-1.8087,-1.8127,-1.8265,-1.7772,-1.7185,-1.7639,-1.6493,-1.4853,0.0,0.0,0.0,0.0,0.0,0.0,0.0,0.0,0.0,0.0,0.0,0.0,0.0,0.0,-1.7803,0.0,0.0,-2.2189,-2.2937,-2.4033,-2.4804,-2.4804,-2.5091,-2.5303,-2.5303,-2.5303,-2.5678,-2.6611,-2.716,-2.7834,-2.8787,-2.9324,-2.9785,-3.0234,-3.0254,-3.0449,-3.0898,-3.0898,-3.0898,-3.0898,-3.0825,-3.08,-3.08,-3.0704,-3.0646,-3.0652,-3.0617,-3.0576,-3.0548,-3.0554,-3.0506,-3.0448,-3.0448,-3.0417,-3.0398,-3.0398,-3.0398,-3.0398,-3.0398,-3.0398,-3.0398,0.4256,0.3762,0.3488,0.4019,0.418,0.4429,0.5013,0.5394,0.5715,0.5936,0.6573,0.7059,0.7155,0.7683,0.7842,0.7399,0.7303,0.7783,0.8983,0.934,0.9488,0.9452,1.0606,1.0658,0.9394,1.0382,1.0367,0.922,0.946,1.0483,1.2213,1.2447,1.295,1.3596,1.3517,1.226,1.0169,0.9979,0.7965,0.492,0.492,-0.1045,-0.9893,-0.9893,-1.3813,-1.934,-1.9088,-1.8647,-1.8236,-1.8691,-1.8449,-1.8055,-1.8762,-1.8065,-1.6809,-1.5961,-1.5361,0.0,0.0,0.0,0.0,0.0,0.0,0.0,0.0,0.0,-1.6883,-1.8559,-1.9353,-2.0232,-2.176,-2.2767,-2.3562,-2.4118,-2.4545,-2.4804,-2.4804,-2.5091,-2.5303,-2.5303,-2.5303,-2.5736,-2.6843,-2.7653,-2.8541,-2.966,-3.0455,-3.0898,-3.0898,-3.0898,-3.0898,-3.0898,-3.0898,-3.0898,-3.0898,-3.077,-3.0698,-3.0698,-3.0632,-3.0585,-3.0583,-3.0564,-3.0525,-3.0487,-3.0487,-3.0448,-3.0398,-3.0398,-3.0398,-3.0398,-3.0398,-3.0398,-3.0398,-3.0398,-3.0398,-3.0398,0.0,0.4821,0.4856,0.5163,0.5139,0.5232,0.5707,0.5981,0.613,0.6165,0.6449,0.6569,0.6355,0.6764,0.7104,0.7217,0.847,0.95,1.0016,1.0414,1.1058,1.2047,1.2276,1.1971,1.1029,1.2143,1.2275,1.1329,1.2541,1.3666,1.4734,1.5914,1.6943,1.78,1.7514,1.7183,1.6875,1.596,1.2573,0.7822,0.7822,0.0725,-0.9893,-0.9839,-1.3732,-1.9258,-1.9625,-1.8732,-1.7617,-1.9462,-1.9216,-1.8354,-1.988,-1.9735,-1.8878,-1.8432,-1.6799,-1.5216,-1.5409,-1.4947,-1.4806,-1.6514,-1.6564,-1.6843,0.0,0.0,-1.9306,-2.0467,-2.1268,-2.1935,-2.2437,-2.3379,-2.4118,-2.419,-2.4545,-2.4804,-2.4804,-2.5091,-2.5303,-2.5303,-2.5303,-2.5967,-2.768,-2.8,-2.8798,-3.0444,-3.0774,-3.0898,-3.0898,-3.0898,-3.0898,-3.0898,-3.0898,-3.0898,-3.0898,-3.077,-3.0698,-3.0698,-3.0579,-3.0521,-3.0506,-3.0448,-3.0417,-3.0398,-3.0398,-3.0398,-3.0398,-3.0398,-3.0398,-3.0398,-3.0398,-3.0398,-3.0398,-3.0398,-3.0398,-3.0398,0.0,0.5727,0.597,0.608,0.5655,0.549,0.5989,0.6147,0.6189,0.6189,0.6436,0.6552,0.6436,0.6475,0.6532,0.6614,0.7831,0.888,0.9501,1.0628,1.1495,1.2021,1.2572,1.2755,1.2425,1.367,1.4058,1.347,1.4553,1.55,1.63,1.6831,1.7791,1.8994,1.8289,1.7995,1.7917,1.6549,1.3753,1.0035,0.838,0.258,-0.5366,-0.7615,-1.1214,-1.5314,-1.7405,-1.7903,0.0,-1.8173,-1.8246,-1.8367,-1.9927,-1.9841,-1.9126,-1.88,-1.8336,-1.8121,-1.8985,-1.8595,-1.8179,0.0,-1.9702,-2.0282,-2.1426,-2.1345,-2.1396,-2.2618,-2.295,-2.3124,-2.3484,-2.3894,-2.419,0.0,-2.4918,-2.5333,-2.4879,-2.5543,-2.587,-2.536,-2.5303,-2.6005,-2.7815,-2.8028,-2.8779,-3.058,-3.0749,-3.082,-3.0898,-3.0898,-3.0898,-3.0898,-3.0898,-3.0862,-3.0782,-3.0684,-3.0627,-3.0583,-3.0487,-3.0448,-3.0448,-3.0398,-3.0398,-3.0398,-3.0398,-3.0698,-3.1121,-3.0609,-3.0698,-3.109,-3.0433,-3.0182,-3.0182,-3.0182,-3.0182,-3.015,0.0,0.6323,0.6599,0.6599,0.6113,0.5864,0.6258,0.6306,0.6306,0.6306,0.647,0.6599,0.6599,0.6301,0.6147,0.6189,0.7111,0.8061,0.8932,1.033,1.135,1.1865,1.2686,1.3243,1.3497,1.481,1.5467,1.5459,1.6299,1.7232,1.8243,1.8243,1.8992,2.025,1.9325,1.8848,1.8654,1.6783,1.444,1.1621,0.8543,0.3683,-0.2136,-0.6013,-0.9299,-1.2217,-1.5269,-1.643,-1.6524,-1.6379,-1.6657,-1.7305,-1.8606,-1.876,-1.8544,-1.8799,-1.9491,-2.0275,-2.0852,-2.0737,0.0,-2.1084,-2.1855,-2.2564,-2.2668,-2.2586,-2.2797,-2.3947,-2.3937,-2.3795,-2.4151,-2.419,-2.419,-2.419,-2.5165,-2.5653,-2.4903,-2.578,-2.6184,-2.5399,-2.5303,-2.5909,-2.7458,-2.7855,-2.8657,-3.0212,-3.0562,-3.0742,-3.084,-3.0845,-3.0843,-3.0843,-3.0823,-3.0774,-3.0665,-3.0621,-3.0548,-3.0506,-3.0417,-3.0398,-3.0398,-3.0398,-3.0489,-3.0631,-3.0394,-3.0752,-3.1407,-3.0546,-3.0579,-3.1063,-3.0251,-2.9924,-2.9908,-2.9861,-2.9877,-2.9893,0.0,0.0,0.6599,0.6599,0.6586,0.6557,0.6582,0.6582,0.6582,0.6582,0.6599,0.6599,0.6599,0.6183,0.5991,0.6171,0.6768,0.7576,0.8634,0.9491,1.0684,1.2309,1.2889,1.3538,1.4236,1.5376,1.6435,1.7327,1.7943,1.9239,2.1163,2.1163,2.1685,2.2556,2.1628,2.1016,2.0558,1.8086,1.5428,1.2525,0.8813,0.3676,-0.2104,-0.6002,-0.9072,-1.1649,-1.409,-1.4306,-1.3561,-1.433,-1.4553,-1.4656,-1.5482,-1.6318,-1.7274,-1.8897,-2.0037,-2.0606,-1.9787,0.0,-2.0658,-2.17,-2.2038,-2.2296,-2.3017,-2.3177,-2.3356,-2.4074,-2.3937,-2.3795,-2.4151,-2.419,-2.419,-2.419,-2.5042,-2.5495,-2.4888,-2.5625,-2.5989,-2.537,-2.5303,-2.5649,0.0,-2.7475,-2.8398,-2.936,-3.0228,-3.0703,-3.0703,-3.0722,-3.0714,-3.0714,-3.0634,-3.0606,-3.0594,-3.053,-3.0487,-3.0506,-3.0417,-3.0398,-3.0398,-3.0398,-3.0733,-3.1222,-3.038,-3.0367,-3.0864,-3.0053,-2.975,-2.9769,-2.9713,-2.9713,-2.9678,-2.9494,-2.9533,-2.9713,0.0,0.0,0.0,0.6599,0.6599,0.6599,0.6599,0.6599,0.6599,0.6599,0.6599,0.0,0.0,0.0,0.0,0.0,0.6358,0.6869,0.759,0.8924,1.0104,1.1026,1.2351,1.3331,1.3898,1.5834,1.6731,1.6457,1.7824,1.8958,1.9759,1.9759,2.037,2.1383,2.0274,1.964,1.9259,1.6817,1.5127,1.3678,0.8761,0.5539,0.3064,-0.2687,-0.5652,-0.7081,0.0,-1.1318,-1.2946,-1.3268,-1.3831,-1.459,-1.5722,-1.5991,-1.6251,-1.8035,-1.9383,-2.0549,-2.1562,0.0,-2.2001,-2.2901,-2.3149,-2.3221,-2.349,-2.3522,-2.3671,-2.4094,-2.4229,-2.4266,-2.4393,-2.441,-2.441,-2.441,-2.5596,-2.6244,-2.5493,-2.6847,-2.742,-2.6058,-2.6047,0.0,0.0,0.0,0.0,-2.9164,-2.9535,-2.9978,-3.0607,-3.062,-3.0635,-3.0633,-3.0606,-3.0569,-3.053,-3.0513,-3.0487,-3.0417,-3.0398,-3.0311,-3.0136,-3.0136,-3.046,-3.1028,-3.0726,-3.1334,-3.2486,-3.1638,-3.1619,-3.2034,-3.0769,-3.0298,-3.0202,-2.941,-2.9181,-2.9249,0.0,0.0,0.0,0.0,0.0,0.0,0.0,0.0,0.0,0.0,0.0,0.0,0.0,0.0,0.0,0.0,0.0,0.6399,0.6935,0.8046,0.9132,1.0059,1.1067,1.2071,1.3048,1.4379,1.5231,1.5494,1.6728,1.7976,1.9224,1.9268,1.9924,2.1021,2.0189,1.9495,1.8763,1.6646,1.5121,1.3673,0.8714,0.627,0.496,-0.0941,-0.3623,0.0,-0.6682,-0.9184,-1.149,-1.1513,-1.2176,-1.3238,-1.4599,-1.5732,-1.6805,-1.7918,-1.9413,-2.1025,-2.2445,-2.2753,-2.2837,-2.3533,-2.3795,-2.3855,-2.3714,-2.3795,-2.3864,-2.3785,-2.3914,-2.4031,-2.4066,-2.3824,-2.3822,-2.4498,-2.5645,-2.6318,-2.5867,-2.7525,-2.8264,-2.6841,-2.6907,-2.7063,0.0,0.0,0.0,-2.906,-2.9483,-2.9938,-3.0532,-3.056,-3.0549,-3.0564,-3.0544,-3.0506,-3.0467,-3.0467,-3.0393,-3.0254,-3.058,-3.0581,-3.033,-3.0617,-3.1069,-3.1634,-3.1353,-3.195,-3.3041,-3.22,-3.1995,-3.2126,-3.0928,-3.0202,-2.9715,-2.9051,-2.8791,-2.8815,0.0,0.0,0.0,0.0,0.0,0.0,0.0,0.0,0.0,0.0,0.0,0.0,0.0,0.0,0.0,0.0,0.0,0.0,0.6615,0.6915,0.7814,0.9423,0.9255,0.9954,1.1745,1.1348,1.2231,1.446,1.4778,1.6448,1.9353,1.9491,2.015,2.117,2.1022,2.0236,1.8886,1.7318,1.5182,1.2525,0.8683,0.5925,0.3606,-0.0818,-0.3056,-0.4088,-0.6159,-0.7878,-0.9187,-0.9259,-0.9925,-1.0985,-1.2418,-1.5543,-1.8676,-1.8581,-2.0082,-2.1881,-2.2379,-2.2752,-2.3142,-2.3614,-2.3958,-2.4132,-2.3795,-2.3939,-2.3914,-2.3162,-2.3083,-2.3175,0.0,0.0,-2.2641,-2.4383,-2.5276,-2.5811,-2.5998,-2.7646,-2.8517,0.0,0.0,0.0,0.0,0.0,0.0,-2.9102,0.0,-3.0448,-3.0487,-3.0487,-3.0487,-3.0487,-3.0417,-3.0398,-3.0398,-3.0436,-3.035,-3.0132,-3.094,-3.1208,-3.096,-3.1751,-3.2418,-3.2939,-3.218,-3.2149,-3.2614,-3.1818,-3.1047,-3.0351,-3.029,-2.9526,-2.8476,-2.844,-2.8404,-2.842,0.0,0.0,0.0,0.0,0.0,0.0,0.0,0.0,0.0,0.0,0.0,0.0,0.0,0.0,0.0,0.0,0.0,0.0,0.5785,0.6439,0.7161,0.7993,0.9009,0.975,1.0184,1.108,1.1895,1.259,1.3468,1.4581,1.5959,1.6241,1.6487,1.6714,1.6489,1.5821,1.4841,1.3813,1.2357,1.0427,0.7447,0.5297,0.3582,0.0,-0.1992,-0.3151,-0.4776,-0.622,-0.7671,-0.965,0.0,0.0,0.0,-1.6825,-1.8773,0.0,0.0,-2.1701,-2.2342,-2.2808,-2.3293,-2.3921,-2.4151,-2.417,-2.4094,-2.3656,-2.3254,-2.3052,-2.2752,-2.2351,0.0,0.0,0.0,-2.2886,-2.4833,0.0,-2.6446,-2.8053,0.0,-2.8256,0.0,-2.8626,-2.8783,-2.8794,0.0,0.0,-2.9698,-2.9737,-3.039,-3.0417,-3.0417,-3.0417,-3.0398,-3.0398,-3.0398,-3.0852,-3.134,-3.1867,-3.1895,-3.1788,-3.1584,-3.179,-3.2172,-3.2679,-3.2477,-3.282,-3.345,-3.2938,-3.2607,-3.2343,-3.1392,-3.0499,-2.9692,-2.9058,-2.8518,-2.8047,0.0,0.0,0.0,0.0,0.0,0.0,0.0,0.0,0.0,0.0,0.0,0.0,0.0,0.0,0.0,0.0,0.0,0.0,0.0,0.6035,0.6591,0.7125,0.7919,0.8429,0.8619,0.9192,0.9701,1.0131,1.0862,1.1958,1.3338,1.36,1.3951,1.4384,1.4168,1.3452,1.2362,1.1917,1.0329,0.0,0.0,0.4582,0.2525,0.0448,-0.1253,-0.2686,-0.3957,-0.5965,-0.8409,0.0,0.0,-1.5261,-1.6291,-1.7806,-1.9277,-1.9836,0.0,-2.1873,-2.2616,-2.3115,-2.3544,-2.4074,-2.419,-2.4116,-2.3749,-2.3327,-2.2703,-2.1602,-2.1232,0.0,-2.0007,0.0,0.0,0.0,0.0,0.0,-2.641,-2.7938,-2.8952,0.0,-2.9049,0.0,-2.9341,-2.9355,-2.9565,0.0,-2.9826,-2.989,-3.0359,-3.0398,-3.0398,-3.0398,-3.0398,-3.0535,-3.0784,-3.1347,-3.1822,-3.2204,-3.2406,-3.2277,-3.1887,-3.2236,-3.2474,-3.2575,0.0,-3.281,-3.3225,-3.2983,-3.2675,-3.2286,-3.1572,-3.055,-2.9372,-2.8903,-2.8285,-2.7636,0.0,0.0,0.0,0.0,0.0,0.0,0.0,0.0,0.0,0.0,0.6599,0.0,0.0,0.0,0.0,0.0,0.0,0.0,0.0,0.0,0.6121,0.6569,0.6584,0.6824,0.7281,0.6849,0.7004,0.7835,0.8111,0.9267,1.1221,1.1417,1.1987,1.2857,1.2781,1.1953,1.0656,1.0598,0.8715,0.5738,0.5565,0.3816,0.1203,0.0,-0.0686,-0.2396,-0.3663,-0.6401,-0.9816,0.0,-1.404,-1.54,-1.7058,-1.8615,-1.9963,-2.0487,-2.1257,-2.213,-2.2917,-2.3392,-2.3714,-2.4054,-2.417,-2.3988,-2.318,-2.2813,-2.2042,-1.9767,0.0,-1.9031,-1.8223,-1.8661,-1.9684,-2.125,0.0,-2.452,-2.613,-2.7493,-2.8595,-2.9321,-2.9551,-2.9661,-2.9696,-2.9696,-2.9696,-2.9696,-3.0085,-3.0318,-3.0318,-3.0323,-3.0355,-3.0355,-3.047,-3.0808,-3.1404,-3.1939,-3.2175,-3.2128,-3.2743,-3.2713,-3.2191,-3.2817,-3.289,-3.2484,0.0,0.0,-3.2484,-3.2451,-3.2011,-3.1361,-3.1313,-3.0223,-2.861,-2.8523,-2.8021,-2.7348,0.0,0.0,0.0,0.0,0.0,0.0,0.0,0.0,0.0,0.0,0.6599,0.6517,0.0,0.0,0.0,0.0,0.0,0.0,0.0,0.0,0.0,0.6035,0.6391,0.6649,0.6737,0.6649,0.0,0.0,0.0,0.8392,0.922,0.9684,0.9765,0.9547,0.9754,0.9267,0.827,0.8069,0.678,0.4896,0.4639,0.3181,0.1079,0.0586,0.0,0.0,-0.4284,-0.6452,-0.8538,-1.1678,-1.4235,-1.6493,-1.8416,-1.9592,-2.0384,-2.1154,-2.1532,-2.1821,-2.2591,-2.3021,-2.3369,-2.3692,-2.3996,-2.3988,-2.318,-2.1915,0.0,0.0,-1.8411,-1.7347,-1.6485,-1.8087,-1.9508,-1.9497,0.0,0.0,0.0,0.0,-2.797,0.0,0.0,0.0,0.0,0.0,0.0,0.0,0.0,0.0,-2.9815,-2.9988,-3.0075,-3.0075,-3.0767,-3.1423,-3.2033,-3.2585,-3.3156,-3.3766,-3.3359,-3.3114,-3.2985,-3.2723,-3.2583,-3.2484,0.0,0.0,-3.2484,-3.2057,-3.1846,-3.1689,-3.1356,-3.0636,-2.9729,-2.91,-2.8387,-2.7623,0.0,0.0,0.0,0.0,0.0,0.0,0.0,0.6599,0.6599,0.6599,0.6849,0.6858,0.6443,0.6195,0.5943,0.0,0.0,0.0,0.0,0.0,0.0,0.0,0.0,0.6599,0.0,0.0,0.0,0.0,0.0,0.0,0.0,0.0,0.0,0.0,0.0,0.0,0.0,0.6617,0.5621,0.0,0.0,0.0,0.0,0.0,0.0,0.0,0.0,0.0,-0.7854,-1.0884,-1.3071,-1.4962,-1.7841,-1.9436,-2.0382,-2.0797,-2.1259,-2.1731,-2.2235,-2.2805,-2.3277,-2.3628,-2.3937,-2.3768,-2.208,0.0,0.0,0.0,-1.689,-1.6158,-1.5339,-1.6696,0.0,-1.8274,-2.017,0.0,0.0,0.0,0.0,0.0,0.0,0.0,0.0,0.0,0.0,0.0,0.0,0.0,-2.9696,-2.978,-2.9845,-2.9845,-3.0958,-3.1713,-3.1987,-3.2948,-3.3497,-3.367,-3.3354,-3.2934,-3.2466,-3.223,-3.2004,-3.1823,0.0,0.0,-3.1823,-3.1582,-3.147,-3.147,-3.1291,-3.0751,-3.0023,-2.9262,-2.8484,-2.7671,0.0,0.0,0.0,0.0,0.0,0.0,0.0,0.6599,0.6637,0.6762,0.7031,0.7088,0.6746,0.6329,0.5986,0.0,0.0,0.0,0.0,0.0,0.0,0.0,0.0,0.0,0.0,0.0,0.0,0.0,0.0,0.0,0.0,0.0,0.0,0.0,0.0,0.0,0.0,0.0,0.0,0.0,0.0,0.0,0.0,0.0,0.0,0.0,0.0,0.0,0.0,-0.9882,-1.156,-1.3049,-1.6171,-1.8401,-1.9859,-2.003,-2.0751,-2.1552,-2.1915,-2.2583,-2.3259,-2.3522,-2.3728,-2.3271,-2.0965,-2.0179,0.0,0.0,-1.552,-1.5252,-1.4628,-1.5456,-1.6576,0.0,-1.8877,-2.0572,-2.287,0.0,0.0,0.0,0.0,0.0,0.0,0.0,0.0,0.0,0.0,0.0,0.0,-2.9644,-2.9644,-2.9644,-3.1024,-3.1771,-3.1704,-3.3015,-3.3522,-3.3184,-3.3014,-3.25,-3.1789,-3.1733,-3.1507,-3.119,0.0,0.0,0.0,-3.119,-3.119,-3.1173,-3.1021,-3.0615,-2.9989,-2.9076,-2.8349,-2.7671,0.0,0.0,0.0,0.0,0.0,0.0,0.0,0.6599,0.6774,0.7256,0.6931,0.6765,0.7025,0.6796,0.6224,0.0,0.0,0.0,0.0,0.0,0.0,0.0,0.0,0.0,0.0,0.0,0.0,0.0,0.0,0.0,0.0,0.0,0.0,0.0,0.0,0.0,0.0,0.0,0.0,0.0,0.0,0.0,0.0,0.0,0.0,0.0,0.0,0.0,0.0,0.0,0.0,-1.213,-1.3627,-1.6045,-1.847,-1.9267,0.0,0.0,-2.1552,-2.2398,-2.3212,-2.3236,-2.2984,-2.233,-2.0698,0.0,-1.7483,-1.5777,-1.4988,-1.4579,-1.4506,-1.5191,-1.6192,-1.7493,0.0,-2.0793,-2.2893,-2.4488,0.0,0.0,0.0,0.0,0.0,0.0,0.0,0.0,0.0,0.0,0.0,-2.9414,-2.9414,-2.9414,-3.0977,-3.1681,-3.1434,-3.2665,-3.3243,-3.3184,-3.2332,-3.188,-3.1789,-3.1411,-3.123,-3.119,0.0,0.0,0.0,-3.119,-3.119,-3.1123,-3.0463,-3.0176,-2.9939,-2.8467,-2.784,-2.7671,0.0,0.0,0.0,0.0,0.0,0.0,0.6599,0.6599,0.6674,0.6899,0.7006,0.6945,0.6607,0.6649,0.6339,0.5428,0.0,0.0,0.0,0.0,0.0,0.0,0.0,0.0,0.0,0.0,0.0,0.0,0.0,0.0,0.0,0.0,0.0,0.0,0.0,0.0,0.0,0.0,0.0,0.0,0.0,0.0,0.0,0.0,0.0,0.0,0.0,0.0,0.0,0.0,0.0,0.0,-1.2089,-1.3909,0.0,0.0,-1.9149,-2.0225,-2.1006,-2.1869,-2.2609,-2.283,-2.2599,-2.1756,-1.9736,0.0,-1.7127,-1.5103,-1.4581,-1.4488,-1.4488,-1.4756,-1.5471,-1.6984,-1.7625,-1.8717,-2.1006,-2.2747,-2.4129,0.0,0.0,0.0,0.0,0.0,0.0,0.0,0.0,0.0,0.0,-2.892,-2.9156,-2.9156,-3.0026,-3.0659,-3.1029,-3.1757,-3.1969,-3.1694,-3.1324,-3.1007,-3.0782,-3.0607,-3.0784,-3.119,0.0,0.0,0.0,-3.119,-3.119,-3.1157,-3.0869,-3.0497,-2.9973,-2.8907,-2.823,-2.7671,0.0,0.0,0.0,0.0,0.0,0.6599,0.6599,0.6599,0.6662,0.6824,0.7019,0.6945,0.6406,0.641,0.6164,0.5437,0.5214,0.0,0.0,0.0,0.0,0.0,0.0,0.0,0.0,0.0,0.0,0.0,0.0,0.0,0.0,0.0,0.0,0.0,0.0,0.0,0.0,0.0,0.0,0.0,0.0,0.0,0.0,0.0,0.0,0.0,0.0,0.0,0.0,0.0,0.0,0.0,0.0,-1.1573,-1.3247,0.0,-1.8065,-1.9294,-2.0257,-2.1308,-2.218,-2.2451,-2.2073,-2.1084,-1.8984,-1.7808,-1.6578,-1.447,-1.4232,-1.4411,-1.4411,-1.4411,-1.4879,-1.6321,-1.674,-1.7633,-1.9795,-2.1706,-2.3261,0.0,0.0,0.0,0.0,0.0,0.0,0.0,0.0,0.0,0.0,0.0,-2.8676,-2.8676,-2.9196,-2.9727,-3.0291,-3.0685,-3.0705,-3.0369,-3.0248,-3.0052,-2.9786,-2.982,-3.0113,0.0,0.0,0.0,0.0,-3.0366,-3.0249,-3.0055,-2.999,-2.9587,-2.892,-2.835,-2.764,-2.6945,0.0,0.0,0.0,0.0,0.0,0.0,0.6599,0.6599,0.6799,0.7319,0.6937,0.662,0.6687,0.6222,0.5689,0.5146,0.5108,0.0,0.0,0.0,0.0,0.0,0.0,0.0,0.0,0.0,0.5108,0.5108,0.5108,0.0,0.0,0.0,0.0,0.0,0.0,0.0,0.0,0.0,0.0,0.0,0.0,0.0,0.0,0.0,0.0,0.0,0.0,0.0,0.0,0.0,0.0,0.0,0.0,-0.8833,-1.0974,-1.4727,-1.7058,-1.8563,-1.9247,-2.0722,-2.2096,-2.2124,-2.1302,-2.0124,-1.8638,-1.7067,-1.5487,-1.3929,-1.3927,-1.4201,-1.4201,-1.4201,-1.4536,-1.5539,-1.6874,-1.833,-1.9885,-2.2096,0.0,0.0,0.0,0.0,0.0,0.0,0.0,0.0,0.0,0.0,0.0,0.0,-2.7897,-2.7897,-2.8699,-2.9107,-2.9107,-2.9435,-2.9606,-2.9606,-2.9193,-2.9028,-2.9025,-2.9131,0.0,0.0,0.0,0.0,0.0,-2.8437,-2.8035,-2.7437,-2.7208,-2.6798,-2.631,-2.611,-2.5705,-2.5221,0.0,0.0,0.0,0.0,0.0,0.0,0.0,0.6599,0.6662,0.6837,0.6712,0.6609,0.6626,0.6185,0.5826,0.5659,0.5319,0.0,0.0,0.0,0.0,0.0,0.0,0.0,0.0,0.0,0.5133,0.5162,0.5162,0.5209,0.5295,0.0,0.0,0.0,0.0,0.0,0.0,0.0,0.0,0.0,0.0,0.0,0.0,0.0,0.0,0.0,0.0,0.0,0.0,0.0,0.0,0.0,0.0,0.0,0.0,-1.1593,-1.4207,-1.6383,-1.6891,-1.7943,-1.884,-1.8651,-1.7988,-1.7159,-1.6353,-1.5362,-1.4407,-1.3728,-1.3671,-1.3786,-1.3952,-1.3997,-1.4617,-1.6554,-1.7381,-1.8444,0.0,0.0,0.0,0.0,0.0,0.0,0.0,0.0,0.0,0.0,0.0,0.0,0.0,0.0,-2.7317,-2.7897,-2.7894,-2.8111,-2.8621,-2.8458,-2.8356,-2.8356,-2.825,-2.8197,-2.8161,-2.7869,0.0,0.0,0.0,0.0,0.0,-2.774,-2.7596,-2.7412,-2.7324,-2.6913,-2.6302,-2.6234,-2.5792,-2.5221,0.0,0.0,0.0,0.0,0.0,0.0,0.0,0.6651,0.6599,0.6599,0.6599,0.6564,0.6453,0.6117,0.5856,0.5763,0.5358,0.0,0.0,0.0,0.0,0.0,0.0,0.0,0.5492,0.5233,0.52,0.5419,0.5285,0.5272,0.5424,0.5384,0.518,0.0,0.0,0.0,0.0,0.0,0.0,0.0,0.0,0.0,0.0,0.0,0.0,0.0,0.0,0.0,0.0,0.0,0.0,0.0,0.0,0.0,0.0,0.0,-1.0877,-1.3247,-1.47,-1.5942,-1.6794,-1.6639,-1.6232,-1.5752,-1.5196,-1.446,-1.3765,-1.3311,-1.3327,-1.347,-1.3646,-1.3771,-1.432,-1.5828,-1.6669,-1.7719,0.0,0.0,0.0,0.0,0.0,0.0,0.0,0.0,0.0,0.0,0.0,0.0,0.0,0.0,-2.6757,-2.7426,-2.721,-2.7274,-2.7755,-2.7522,-2.7297,-2.714,-2.714,-2.7016,-2.6819,0.0,0.0,0.0,0.0,0.0,0.0,-2.6334,-2.6177,-2.5984,-2.6192,-2.5841,-2.5315,-2.5519,-2.5154,-2.4592,0.0,0.0,0.0,0.0,0.0,0.0,0.0,0.6723,0.6599,0.6599,0.6599,0.65,0.6254,0.6052,0.5819,0.5549,0.0,0.0,0.0,0.0,0.0,0.0,0.0,0.0,0.5473,0.5214,0.5291,0.5754,0.5366,0.5371,0.5761,0.5379,0.5036,0.4781,0.4772,0.0,0.0,0.0,0.0,0.0,0.0,0.0,0.0,0.0,0.0,0.0,0.0,0.0,0.0,0.0,0.0,0.0,0.0,0.0,0.0,0.0,0.0,0.0,0.0,-1.4427,-1.5546,-1.5573,-1.5587,-1.5427,-1.476,-1.4074,0.0,-1.2719,-1.2929,-1.3278,-1.3413,-1.358,-1.3808,-1.4182,-1.5347,0.0,0.0,0.0,0.0,0.0,0.0,0.0,0.0,0.0,0.0,0.0,0.0,0.0,0.0,0.0,0.0,-2.6573,-2.6573,-2.6607,-2.6657,-2.6657,-2.6401,-2.5924,-2.5924,-2.5689,-2.5198,0.0,0.0,0.0,0.0,0.0,0.0,-2.4507,-2.4178,-2.3638,-2.4158,-2.4032,-2.3681,-2.4158,-2.4032,-2.3595,0.0,0.0,0.0,0.0,0.0,0.0,0.0,0.0,0.0,0.0,0.6599,0.6582,0.6517,0.6283,0.6052,0.0,0.0,0.0,0.0,0.0,0.0,0.0,0.0,0.0,0.5195,0.4932,0.4962,0.5332,0.5042,0.5063,0.5419,0.5254,0.495,0.4487,0.4489,0.3962,0.0,0.0,0.0,0.0,0.0,0.0,0.0,0.0,0.0,0.0,0.0,0.0,0.0,0.0,0.0,0.0,0.0,0.0,0.0,0.0,-0.6596,-0.7235,-0.8609,0.0,-1.225,-1.2351,-1.2576,-1.2774,0.0,-1.2524,-1.2313,-1.2546,-1.2533,-1.2947,-1.447,-1.4127,-1.4516,-1.7271,-1.8005,-1.8602,0.0,0.0,0.0,0.0,0.0,0.0,0.0,0.0,0.0,0.0,0.0,0.0,0.0,0.0,0.0,-2.5561,-2.5561,-2.5746,-2.6156,-2.6139,-2.5908,-2.5373,-2.5373,-2.5335,-2.5182,0.0,0.0,0.0,0.0,0.0,-2.3849,-2.3849,-2.3744,-2.3595,-2.3767,-2.3724,-2.3595,-2.3767,-2.3724,-2.3595,0.0,0.0,0.0,0.0,0.0,0.0,0.0,0.0,0.0,0.0,0.0,0.6599,0.6599,0.6354,0.0,0.0,0.0,0.0,0.0,0.0,0.0,0.0,0.0,0.5108,0.5108,0.4834,0.4963,0.5482,0.5032,0.5053,0.5578,0.5348,0.4947,0.4389,0.3995,0.339,0.0,0.0,0.0,0.0,0.0,0.0,0.0,0.0,0.0,0.0,0.0,-0.1183,0.0,-0.2589,-0.3073,-0.3449,0.0,0.0,0.0,0.0,-0.5654,-0.5899,-0.6576,-0.8487,-1.0341,-1.0623,-1.1059,-1.157,-1.2088,-1.1867,-1.1688,-1.2154,-1.221,-1.2619,-1.4015,-1.3968,0.0,0.0,-1.7504,0.0,0.0,0.0,0.0,0.0,0.0,0.0,0.0,0.0,0.0,0.0,0.0,0.0,0.0,0.0,0.0,0.0,-2.5221,-2.5335,-2.5615,-2.5652,-2.5373,-2.4816,-2.4816,-2.4697,-2.4471,0.0,0.0,0.0,0.0,0.0,-2.3595,-2.3595,-2.3595,-2.3595,-2.3595,-2.3595,-2.3595,-2.3595,-2.3595,-2.3595,0.0,0.0,0.0,0.0,0.0,0.0,0.0,0.0,0.0,0.0,0.0,0.0,0.0,0.0,0.0,0.0,0.0,0.0,0.0,0.0,0.0,0.0,0.5108,0.5137,0.5205,0.4841,0.5006,0.5733,0.5058,0.5079,0.5723,0.5439,0.4963,0.4356,0.3574,0.306,0.0,0.0,0.0,0.0,0.0,0.0,0.0,0.0,0.0,0.0,0.0,0.0,0.0,-0.2656,-0.3027,-0.3241,-0.4312,0.0,0.0,0.0,0.0,0.0,-0.5736,-0.7419,-0.9142,-0.973,-1.0457,-1.1189,-1.1883,-1.1642,-1.1384,-1.1859,0.0,0.0,0.0,-1.3892,0.0,0.0,0.0,0.0,0.0,0.0,0.0,0.0,0.0,0.0,0.0,0.0,0.0,0.0,0.0,0.0,0.0,0.0,0.0,0.0,-2.495,-2.495,-2.495,-2.5028,-2.4831,-2.4266,-2.4266,-2.4032,-2.3595,-2.3595,0.0,0.0,0.0,0.0,-2.3595,-2.3595,-2.3595,-2.3595,-2.3595,-2.3595,-2.3595,-2.3595,-2.3595,-2.3595,0.0,0.0,0.0,0.0,0.0,0.0,0.0,0.0,0.0,0.0,0.0,0.0,0.0,0.0,0.0,0.0,0.0,0.0,0.0,0.0,0.0,0.5108,0.5108,0.5283,0.5695,0.4824,0.4724,0.5457,0.4781,0.4631,0.4962,0.5195,0.4963,0.4389,0.4024,0.3551,0.3025,0.274,0.0,0.0,0.0,0.0,0.0,0.0,0.0,0.0,0.0,0.0,0.0,-0.2426,-0.277,-0.2902,-0.3766,0.0,0.0,0.0,0.0,0.0,-0.5713,-0.677,-0.7891,-0.9022,-1.0161,-1.1071,-1.1367,-1.1174,-1.1273,0.0,0.0,0.0,0.0,-1.5448,0.0,0.0,0.0,0.0,0.0,0.0,0.0,0.0,0.0,0.0,0.0,0.0,0.0,0.0,0.0,0.0,0.0,0.0,0.0,0.0,0.0,-2.3837,-2.3837,-2.4307,-2.4266,-2.3709,-2.3709,-2.3681,-2.3595,-2.3595,-2.3595,0.0,0.0,-2.3595,-2.3595,-2.3595,-2.3595,-2.3595,-2.3595,-2.3595,-2.3595,-2.3595,-2.3595,-2.3595,0.0,0.0,0.0,0.0,0.0,0.0,0.0,0.0,0.0,0.0,0.0,0.0,0.0,0.0,0.0,0.0,0.0,0.0,0.0,0.0,0.5108,0.5108,0.5108,0.5205,0.542,0.4863,0.4818,0.528,0.4848,0.4761,0.507,0.489,0.4663,0.4356,0.3614,0.3134,0.2853,0.2415,0.0,0.0,0.0,0.0,0.0,0.0,0.0,0.0,0.0,0.0,0.0,0.0,-0.2802,-0.3039,-0.3681,0.0,0.0,0.0,0.0,0.0,-0.4928,-0.6015,-0.7119,-0.7751,-0.9238,-1.0771,-1.1507,-1.1349,-1.1429,0.0,0.0,0.0,0.0,0.0,0.0,0.0,0.0,0.0,0.0,0.0,0.0,0.0,0.0,0.0,0.0,0.0,0.0,0.0,0.0,0.0,0.0,0.0,0.0,0.0,0.0,0.0,-2.3595,-2.3837,-2.3837,-2.3595,-2.3595,-2.3595,-2.3595,-2.3595,-2.3595,-2.3595,0.0,-2.3595,-2.3595,-2.3595,-2.3595,-2.3595,-2.3595,-2.3595,-2.3595,-2.3595,-2.3595,-2.3595,0.0,0.0,0.0,0.0,0.0,0.0,0.0,0.0,0.0,0.0,0.0,0.0,0.0,0.0,0.0,0.0,0.0,0.0,0.0,0.5349,0.5166,0.5108,0.5108,0.5205,0.5399,0.5002,0.4997,0.5409,0.4998,0.496,0.5302,0.475,0.4469,0.4356,0.3336,0.2858,0.2762,0.2154,0.1891,0.0,0.0,0.0,0.0,0.0,0.0,0.0,0.0,0.0,0.0,0.0,0.0,0.0,0.0,0.0,0.0,-0.3816,-0.3903,-0.4182,-0.4519,-0.5591,-0.6712,-0.7073,-0.8633,-1.031,-1.1372,-1.1331,-1.1509,0.0,0.0,0.0,0.0,0.0,0.0,0.0,0.0,0.0,0.0,0.0,0.0,0.0,0.0,0.0,0.0,0.0,0.0,0.0,0.0,0.0,0.0,0.0,0.0,0.0,0.0,0.0,-2.3595,-2.3595,-2.3595,-2.3595,-2.3595,-2.3595,-2.3595,-2.3595,-2.3595,-2.3595,-2.3595,-2.3595,-2.3595,-2.3595,-2.3595,-2.3595,-2.3595,-2.3595,-2.3595,-2.3595,-2.3595,-2.3595,0.0,0.0,0.0,0.0,0.0,0.0,0.0,0.0,0.0,0.0,0.0,0.0,0.0,0.0,0.0,0.0,0.0,0.0,0.0,0.5614,0.5349,0.5108,0.5108,0.5477,0.6299,0.5307,0.5192,0.6029,0.5218,0.496,0.5302,0.4927,0.4635,0.4362,0.3719,0.3312,0.3025,0.2433,0.2172,0.215,0.0,0.0,0.0,0.0,0.0,0.0,0.0,0.0,0.0,0.0,0.0,0.0,0.0,0.0,-0.3511,-0.3245,-0.3351,-0.3829,-0.5151,-0.59,-0.6636,-0.7944,-0.8911,-0.9726,-1.0384,-1.0642,-1.1237,-1.2938,0.0,0.0,0.0,0.0,0.0,0.0,0.0,0.0,0.0,0.0,0.0,0.0,0.0,0.0,0.0,0.0,0.0,0.0,0.0,0.0,0.0,0.0,0.0,0.0,0.0,0.0,-2.3595,-2.3595,-2.3595,-2.3595,-2.3595,-2.3595,-2.3595,-2.3595,-2.3595,-2.3595,-2.3595,-2.3595,-2.3595,-2.3595,-2.3595,-2.3595,-2.3595,-2.3595,-2.3595,-2.3595,-2.3595,-2.3595,0.0,0.0,0.0,0.0,0.0,0.0,0.0,0.0,0.0,0.0,0.0,0.0,0.0,0.0,0.0,0.0,0.0,0.0,0.0,0.5652,0.5368,0.5108,0.4952,0.5133,0.5768,0.5303,0.52,0.5531,0.5061,0.4867,0.4967,0.4522,0.4242,0.4122,0.3354,0.2935,0.281,0.2198,0.1957,0.1913,0.1424,0.0,0.0,0.0,0.0,0.0,0.0,0.0,0.0,0.0,-0.2394,-0.2437,-0.2762,-0.3025,-0.3223,-0.3132,-0.3287,-0.3659,-0.4356,-0.5132,-0.5982,-0.6976,-0.8121,-0.9288,-1.0439,-1.1018,-1.1808,-1.3777,-1.4078,0.0,0.0,0.0,0.0,0.0,0.0,0.0,0.0,0.0,0.0,0.0,0.0,0.0,0.0,0.0,0.0,0.0,0.0,0.0,0.0,0.0,0.0,0.0,0.0,0.0,0.0,-2.3595,-2.3595,-2.3595,-2.3595,-2.3595,-2.3595,-2.3595,-2.3595,-2.3595,-2.3595,-2.3595,-2.3595,-2.3595,-2.3595,-2.3595,-2.3595,-2.3595,-2.3595,-2.3595,-2.3595,-2.3595,0.0,0.0,0.0,0.0,0.0,0.0,0.0,0.0,0.0,0.0,0.0,0.0,0.0,0.0,0.0,0.0,0.0,0.0,0.5918,0.5726,0.5463,0.5108,0.4932,0.4936,0.5209,0.5118,0.5091,0.5129,0.4837,0.4668,0.4661,0.4094,0.387,0.3861,0.2944,0.2562,0.2575,0.2023,0.1803,0.1759,0.1227,0.0983,0.0,0.0,0.0,0.0,0.0,0.0,0.0,0.0,-0.2193,-0.2237,-0.2481,-0.2805,-0.3089,-0.3004,-0.3306,-0.3711,-0.3981,-0.4724,-0.5579,-0.6277,-0.7471,-0.8876,-1.0312,-1.1143,-1.2078,-1.379,-1.425,-1.4471,0.0,0.0,0.0,0.0,0.0,0.0,0.0,0.0,0.0,0.0,0.0,0.0,0.0,0.0,0.0,0.0,0.0,0.0,0.0,0.0,0.0,0.0,0.0,0.0,0.0,-2.331,-2.34,-2.3595,-2.3595,-2.3595,-2.3595,-2.3595,-2.3595,-2.3595,-2.3595,-2.3595,-2.3595,-2.3595,-2.3595,-2.3595,-2.3595,-2.3595,-2.3595,-2.3595,-2.3595,-2.3595,0.0,0.0,0.0,0.0,0.0,0.0,0.0,0.0,0.0,0.0,0.0,0.0,0.0,0.0,0.0,0.0,0.0,0.0,0.5936,0.5911,0.5659,0.5127,0.5088,0.4997,0.4802,0.4779,0.4862,0.5006,0.4579,0.4402,0.4362,0.3762,0.3556,0.3643,0.2637,0.2275,0.2363,0.1959,0.1803,0.1762,0.143,0.1139,0.0,0.0,0.0,0.0,0.0,0.0,0.0,0.0,-0.2193,-0.2193,-0.2193,-0.2611,-0.3052,-0.2789,-0.3317,-0.4063,-0.4315,-0.4896,-0.5557,-0.6165,0.0,0.0,-0.976,-1.0835,-1.1775,-1.2712,-1.3372,-1.3815,-1.3815,0.0,0.0,0.0,0.0,0.0,0.0,0.0,0.0,0.0,0.0,0.0,0.0,0.0,0.0,0.0,0.0,0.0,0.0,0.0,0.0,0.0,0.0,0.0,0.0,-2.2667,-2.2981,-2.3595,-2.3595,-2.3595,-2.3595,-2.3595,-2.3595,-2.3595,-2.3595,-2.3595,-2.3595,-2.3595,-2.3595,-2.3595,-2.3595,-2.3595,-2.3595,-2.3595,-2.3595,-2.3595,0.0,0.0,0.0,0.0,0.0,0.0,0.0,0.0,0.0,0.0,0.0,0.0,0.0,0.0,0.0,0.0,0.0,0.0,0.613,0.5991,0.5745,0.5387,0.503,0.4708,0.4448,0.4073,0.4104,0.4579,0.4031,0.3762,0.3756,0.3203,0.2972,0.2962,0.2444,0.2223,0.2228,0.1934,0.1803,0.1762,0.143,0.1139,0.0,0.0,0.0,0.0,0.0,0.0,0.0,0.0,0.0,0.0,-0.1913,-0.2467,-0.3042,-0.2787,-0.3317,-0.4015,-0.4087,-0.4705,0.0,-0.6563,0.0,0.0,0.0,-1.0748,0.0,0.0,-1.3372,-1.3909,0.0,0.0,0.0,0.0,0.0,0.0,0.0,0.0,0.0,0.0,0.0,0.0,0.0,0.0,0.0,0.0,0.0,0.0,0.0,0.0,0.0,0.0,0.0,0.0,0.0,0.0,-2.2813,-2.2951,-2.3385,-2.3595,-2.3595,-2.3595,-2.3595,-2.3595,-2.3595,-2.3595,-2.3595,-2.3595,-2.3595,-2.3595,-2.3595,-2.3595,-2.3595,-2.3595,-2.3595,-2.3595,0.0,0.0,0.0,0.0,0.0,0.0,0.0,0.0,0.0,0.0,0.705,0.0,0.0,0.0,0.0,0.0,0.0,0.0,0.0,0.6076,0.5863,0.5511,0.5195,0.4794,0.4313,0.3765,0.3679,0.403,0.3565,0.3341,0.3335,0.2759,0.2523,0.2553,0.2205,0.2079,0.2096,0.1897,0.1803,0.1762,0.143,0.1139,0.087,0.0,0.0,0.0,0.0,0.0,0.0,0.0,0.0,0.0,-0.1803,0.0,-0.2725,-0.2618,-0.3258,-0.4037,-0.4183,-0.4838,0.0,-0.6757,-0.748,-0.8423,-1.006,0.0,0.0,0.0,0.0,0.0,0.0,0.0,0.0,0.0,0.0,0.0,0.0,0.0,0.0,0.0,0.0,0.0,0.0,0.0,0.0,0.0,0.0,0.0,0.0,0.0,0.0,0.0,0.0,0.0,0.0,0.0,0.0,-2.1975,-2.2569,-2.2981,-2.3236,-2.349,-2.3595,-2.3595,-2.3595,-2.3595,-2.3595,-2.3595,-2.3595,-2.3595,-2.3595,-2.3595,-2.3595,-2.3595,-2.3595,-2.3595,0.0,0.0,0.0,0.0,0.0,0.0,0.0,0.0,0.0,0.0,0.6865,0.6616,0.0,0.0,0.0,0.0,0.0,0.0,0.0,0.6206,0.6004,0.5576,0.5501,0.5108,0.4313,0.3786,0.3527,0.3506,0.3223,0.3089,0.3046,0.2476,0.224,0.2323,0.1955,0.1859,0.1981,0.1842,0.1803,0.1784,0.1474,0.1161,0.087,0.0557,0.0,0.0,0.0,0.0,0.0,0.0,0.0,0.0,-0.1803,-0.203,-0.2292,-0.2403,-0.3155,-0.4074,-0.4494,-0.5154,0.0,-0.6799,-0.7372,0.0,-1.0342,0.0,0.0,0.0,0.0,0.0,0.0,0.0,0.0,0.0,0.0,0.0,0.0,0.0,0.0,0.0,0.0,0.0,0.0,0.0,0.0,0.0,0.0,0.0,0.0,0.0,0.0,0.0,0.0,0.0,0.0,0.0,0.0,0.0,-2.1274,-2.1873,-2.2468,-2.3193,-2.3507,-2.3508,-2.345,-2.3406,-2.3406,-2.3508,-2.3508,-2.345,-2.3551,-2.3551,-2.3508,-2.3595,-2.3595,-2.3595,0.0,0.0,0.0,0.0,0.0,0.0,0.0,0.0,0.0,0.0,0.0,0.0,0.0,0.0,0.0,0.0,0.0,0.0,0.0,0.6318,0.6153,0.6058,0.5497,0.4904,0.4313,0.3986,0.371,0.3506,0.3223,0.2982,0.2783,0.2389,0.2108,0.1918,0.1842,0.182,0.1851,0.1816,0.1803,0.1803,0.1718,0.138,0.0892,0.0825,0.047,0.0,0.0,0.0,0.0,0.0,0.0,0.0,-0.1803,-0.2317,-0.2863,-0.2698,-0.3184,-0.3902,-0.4568,-0.5148,0.0,0.0,-0.8362,-0.9545,-1.0562,-1.1316,0.0,0.0,0.0,0.0,0.0,0.0,0.0,0.0,0.0,0.0,0.0,0.0,0.0,0.0,0.0,0.0,0.0,0.0,0.0,0.0,0.0,0.0,0.0,0.0,0.0,0.0,0.0,0.0,-1.7691,-1.8728,-1.9321,0.0,-2.0133,-2.05,-2.0699,-2.2214,-2.2875,-2.2875,-2.2331,-2.2132,-2.2179,-2.268,-2.2575,-2.2225,-2.3216,-2.3334,-2.2965,-2.3421,-2.3595,-2.3595,0.0,0.0,0.0,0.0,0.0,0.0,0.0,0.0,0.0,0.0,0.0,0.0,0.0,0.0,0.0,0.0,0.0,0.0,0.0,0.647,0.6283,0.607,0.5327,0.4776,0.4486,0.4232,0.3973,0.3689,0.3556,0.3275,0.2875,0.2489,0.2215,0.2076,0.1959,0.1889,0.1886,0.1837,0.1803,0.1803,0.1803,0.1516,0.1072,0.0959,0.0603,0.0157,-0.0112,0.0,0.0,0.0,0.0,0.0,0.0,0.0,-0.2498,-0.254,-0.2953,-0.3599,-0.4471,0.0,0.0,-0.735,0.0,-0.9562,-1.0559,-1.1065,0.0,0.0,0.0,0.0,0.0,0.0,0.0,0.0,0.0,0.0,0.0,0.0,0.0,0.0,0.0,0.0,0.0,0.0,0.0,0.0,0.0,0.0,0.0,0.0,0.0,0.0,0.0,0.0,-1.6909,-1.7811,-1.8248,-1.8248,-1.8865,-1.9294,-1.9642,-2.0883,-2.1456,-2.1435,-2.1094,-2.1066,-2.1342,-2.1678,-2.1801,-2.1744,-2.2409,-2.2515,-2.23,-2.295,-2.3157,-2.3187,0.0,0.0,0.0,0.0,0.0,0.0,0.0,0.0,0.0,0.0,0.0,0.0,0.0,0.0,0.0,0.0,0.0,0.0,0.0,0.65,0.629,0.5856,0.5194,0.4765,0.4626,0.4406,0.415,0.3828,0.3828,0.3625,0.3253,0.2807,0.2547,0.2449,0.2231,0.2068,0.1964,0.1835,0.1803,0.1803,0.1803,0.156,0.1208,0.1027,0.0714,0.0313,0.0134,-0.0358,-0.0892,-0.0892,0.0,0.0,0.0,0.0,-0.1938,-0.2334,-0.274,-0.3291,-0.4281,0.0,-0.6199,-0.7536,-0.843,0.0,-1.0348,0.0,0.0,0.0,0.0,0.0,0.0,0.0,0.0,0.0,0.0,0.0,0.0,0.0,0.0,0.0,0.0,0.0,0.0,0.0,0.0,0.0,0.0,0.0,0.0,0.0,0.0,0.0,0.0,-1.6522,-1.6522,-1.6951,-1.7146,-1.7146,-1.7626,-1.8126,-1.8658,-1.922,-1.9663,-1.9943,-1.9825,-2.0011,-2.0429,-2.0553,-2.0836,-2.1274,-2.1464,-2.1566,-2.1615,-2.23,-2.2603,-2.2785,0.0,0.0,0.0,0.0,0.0,0.0,0.0,0.0,0.0,0.0,0.6832,0.6599,0.6599,0.6599,0.0,0.0,0.0,0.0,0.6254,0.0,0.0,0.5568,0.5444,0.5069,0.4374,0.4313,0.4048,0.3548,0.3548,0.3654,0.3861,0.3507,0.3104,0.2666,0.2617,0.2311,0.1833,0.1813,0.1803,0.1803,0.1803,0.1471,0.0983,0.1163,0.0761,0.009,0.0268,-0.0201,-0.0892,-0.0892,-0.1292,0.0,0.0,0.0,0.0,0.0,-0.2795,-0.3153,0.0,0.0,-0.6707,0.0,-0.8609,-0.942,0.0,0.0,0.0,0.0,0.0,0.0,0.0,0.0,0.0,0.0,0.0,0.0,0.0,0.0,0.0,0.0,0.0,0.0,0.0,0.0,0.0,0.0,0.0,0.0,0.0,0.0,-1.6522,-1.6522,-1.6522,-1.6522,-1.6522,-1.6552,-1.6595,-1.6595,-1.668,-1.6748,-1.6824,-1.6944,-1.78,-1.9208,-1.8668,-1.8512,-1.8623,-1.9114,-1.9329,-1.9453,-2.0595,-2.0955,-2.0979,-2.1615,-2.2193,-2.2694,0.0,0.0,0.0,0.0,0.0,0.0,0.0,0.0,0.0,0.0,0.0,0.6599,0.6599,0.6599,0.0,0.0,0.0,0.0,0.6206,0.6016,0.0,0.5511,0.5349,0.5049,0.4527,0.4527,0.4273,0.3731,0.3731,0.3889,0.4215,0.4076,0.3849,0.3515,0.3178,0.2813,0.2391,0.2149,0.1935,0.1781,0.1607,0.1356,0.1096,0.0886,0.0551,0.0214,0.0182,-0.0156,-0.0646,-0.0847,-0.1183,0.0,0.0,0.0,0.0,0.0,0.0,-0.3048,-0.4281,-0.5478,-0.652,0.0,-0.8132,-0.8984,-0.9465,0.0,0.0,0.0,0.0,0.0,0.0,0.0,0.0,0.0,0.0,0.0,0.0,0.0,0.0,0.0,0.0,0.0,0.0,0.0,0.0,0.0,0.0,0.0,0.0,-1.6522,-1.6522,-1.6522,-1.6522,0.0,-1.6522,-1.6522,-1.6522,-1.6522,-1.6522,-1.6522,-1.6522,-1.6522,-1.6903,-1.7612,-1.7371,-1.7438,-1.7785,-1.8022,-1.8499,-1.9069,-1.9616,-2.0002,-2.0295,-2.0966,-2.1403,-2.1752,0.0,0.0,0.0,0.0,0.0,0.0,0.0,0.0,0.0,0.0,0.0,0.0,0.6599,0.0,0.0,0.0,0.0,0.0,0.5939,0.0,0.0,0.0,0.5214,0.4971,0.4706,0.4626,0.4374,0.3911,0.3828,0.4004,0.4402,0.4402,0.443,0.446,0.3844,0.3341,0.2922,0.25,0.2219,0.1997,0.1633,0.1361,0.1156,0.0837,0.0525,0.0283,0.0146,-0.0117,0.0,0.0,0.0,0.0,0.0,0.0,0.0,0.0,0.0,0.0,0.0,0.0,-0.5959,-0.6461,-0.7317,-0.8214,0.0,0.0,0.0,0.0,0.0,0.0,0.0,0.0,0.0,0.0,0.0,0.0,0.0,0.0,0.0,0.0,0.0,0.0,0.0,0.0,0.0,0.0,0.0,0.0,-1.6522,-1.6337,-1.6337,-1.6522,-1.6337,-1.6324,-1.6522,-1.6522,-1.6522,-1.6522,-1.6522,-1.6522,-1.6522,-1.6522,-1.6522,-1.6522,-1.6522,-1.676,-1.7162,-1.7162,-1.7739,-1.8631,-1.8769,-1.9133,-1.9674,-2.0307,-2.0646,-2.0944,0.0,0.0,0.0,0.0,0.0,0.0,0.0,0.0,0.0,0.0,0.0,0.0,0.6599,0.6599,0.65,0.6254,0.0,0.0,0.0,0.0,0.0,0.0,0.0,0.0,0.4706,0.4446,0.4191,0.3911,0.3647,0.3828,0.4402,0.4402,0.4709,0.5212,0.461,0.3865,0.3071,0.2783,0.2672,0.2623,0.2142,0.1551,0.097,0.1388,0.0908,0.0056,0.0305,0.0,0.0,0.0,0.0,0.0,0.0,0.0,0.0,0.0,0.0,0.0,0.0,-0.4008,0.0,-0.532,-0.624,0.0,0.0,0.0,0.0,0.0,0.0,0.0,0.0,0.0,0.0,0.0,0.0,0.0,0.0,0.0,0.0,0.0,0.0,0.0,0.0,0.0,0.0,0.0,0.0,0.0,-1.6522,-1.5952,-1.5908,-1.6466,-1.5964,-1.5908,-1.6466,-1.6522,-1.6522,-1.6522,-1.6522,-1.6522,-1.6522,-1.6522,-1.6522,-1.6522,-1.6522,-1.6534,-1.6559,-1.6559,-1.6923,-1.7513,-1.8041,-1.8581,-1.9133,-1.9674,-2.0245,-2.0795,0.0,0.0,0.0,0.0,0.0,0.0,0.0,0.0,0.0,0.0,0.0,0.0,0.0,0.6147,0.6117,0.6016,0.5936,0.0,0.0,0.0,0.0,0.0,0.0,0.0,0.4706,0.4606,0.4354,0.3911,0.3807,0.3876,0.4153,0.4153,0.4159,0.4162,0.4326,0.4002,0.3329,0.2891,0.2476,0.21,0.1842,0.1573,0.1323,0.1107,0.0791,0.0418,0.0,0.0,0.0,0.0,0.0,0.0,-0.0825,-0.0961,-0.1139,-0.1648,-0.2154,0.0,0.0,0.0,0.0,-0.4642,-0.5731,0.0,0.0,0.0,0.0,0.0,0.0,0.0,0.0,0.0,0.0,0.0,0.0,0.0,0.0,0.0,0.0,0.0,0.0,0.0,0.0,0.0,0.0,0.0,0.0,0.0,-1.5332,-1.5152,-1.5107,-1.5344,-1.5152,-1.5152,-1.5344,-1.5332,-1.5332,-1.5332,-1.5332,-1.5332,-1.5377,-1.5732,-1.5908,-1.5952,-1.6324,-1.6522,-1.6522,-1.6522,-1.6861,-1.74,-1.7601,-1.8016,-1.8568,-1.9108,-1.9459,-1.9746,0.0,0.0,0.0,0.0,0.0,0.0,0.0,0.0,0.6094,0.6094,0.0,0.0,0.0,0.0,0.5874,0.5782,0.5678,0.5547,0.5368,0.5368,0.0,0.0,0.0,0.0,0.4706,0.4425,0.417,0.3911,0.3726,0.3745,0.3992,0.3992,0.387,0.3681,0.3974,0.3833,0.334,0.2943,0.2547,0.2159,0.1963,0.18,0.1626,0.133,0.0982,0.067,0.0,0.0,0.0,0.0,0.0,0.0,-0.0521,-0.073,-0.1003,-0.1493,-0.1913,-0.2263,-0.2576,0.0,0.0,0.0,0.0,0.0,0.0,0.0,0.0,0.0,0.0,0.0,0.0,0.0,0.0,0.0,0.0,0.0,0.0,0.0,0.0,0.0,0.0,0.0,0.0,0.0,0.0,0.0,0.0,0.0,-1.4698,-1.4514,-1.4376,-1.4376,-1.4606,-1.4698,-1.4698,-1.4698,-1.4698,-1.4698,-1.4698,-1.4698,-1.4698,-1.5107,-1.532,-1.532,-1.5744,-1.6107,-1.6522,-1.6522,-1.6748,-1.7112,-1.73,-1.7601,-1.8003,-1.8543,-1.8869,-1.912,0.0,0.0,0.0,0.0,0.0,0.0,0.0,0.0,0.5893,0.5893,0.0,0.0,0.0,0.0,0.0,0.5511,0.5253,0.5108,0.5108,0.5108,0.0,0.0,0.0,0.0,0.4706,0.3939,0.3656,0.3911,0.3375,0.3421,0.3978,0.3978,0.3978,0.3962,0.3626,0.3334,0.306,0.2943,0.2873,0.2841,0.0,0.2233,0.1853,0.0,0.0,0.0,0.0871,0.0552,0.0,0.0032,0.0,0.0,0.0,-0.0407,-0.0936,-0.1208,-0.1718,-0.2136,0.0,0.0,0.0,0.0,0.0,0.0,0.0,0.0,0.0,0.0,0.0,0.0,0.0,0.0,0.0,0.0,0.0,0.0,0.0,0.0,0.0,0.0,0.0,0.0,0.0,0.0,0.0,0.0,0.0,-1.4663,-1.4663,-1.4097,-1.3768,-1.3768,-1.4329,-1.4663,-1.4663,-1.4663,-1.4663,-1.4663,-1.4663,-1.4663,-1.4663,-1.4652,-1.4652,-1.4652,-1.4709,-1.5377,-1.6436,-1.6436,-1.6436,-1.6529,-1.7092,-1.735,-1.7426,-1.7978,-1.8518,-1.8982,0.0,0.0,0.0,0.0,0.0,0.567,0.5874,0.5726,0.5614,0.0,0.0,0.0,0.5319,0.5319,0.5281,0.5214,0.5146,0.5108,0.5108,0.5108,0.5108,0.5108,0.503,0.4893,0.4706,0.449,0.4215,0.3911,0.374,0.3667,0.3625,0.3625,0.3532,0.3346,0.3045,0.2745,0.2453,0.242,0.2331,0.2251,0.2169,0.2269,0.0,0.0,0.0,0.0,0.0,0.116,0.0642,0.0,0.0375,0.0,0.0,-0.0239,-0.0601,-0.0914,-0.1371,-0.1771,-0.1789,0.0,0.0,0.0,0.0,0.0,0.0,0.0,0.0,0.0,0.0,0.0,0.0,0.0,0.0,0.0,0.0,0.0,0.0,0.0,0.0,0.0,0.0,0.0,0.0,0.0,0.0,0.0,-1.3382,-1.3382,-1.3382,-1.3248,-1.3152,-1.3152,-1.3296,-1.3382,-1.3382,-1.3382,-1.3382,-1.3382,-1.3382,-1.3382,-1.343,-1.3826,-1.405,-1.405,-1.4514,-1.488,-1.5197,-1.5197,-1.5197,-1.5266,-1.5855,-1.6094,-1.6211,-1.7252,-1.7702,-1.789,0.0,0.0,0.0,0.5349,0.533,0.5387,0.5547,0.5444,0.533,0.0,0.0,0.0,0.5108,0.5273,0.5302,0.5127,0.5108,0.5108,0.5108,0.4991,0.4932,0.4932,0.4706,0.4527,0.4366,0.4146,0.3929,0.3731,0.3616,0.3542,0.3506,0.3506,0.3287,0.2918,0.2767,0.2459,0.204,0.204,0.0,0.0,0.2215,0.0,0.0,0.26,0.2538,0.0,0.0,0.0,0.0931,0.1196,0.0877,0.0,0.0,0.0,0.0,-0.0639,-0.1114,-0.1609,-0.1692,-0.2006,0.0,0.0,0.0,0.0,0.0,0.0,0.0,0.0,0.0,0.0,0.0,0.0,0.0,0.0,0.0,0.0,0.0,0.0,0.0,0.0,0.0,0.0,0.0,0.0,0.0,0.0,-1.2881,-1.2881,-1.2881,-1.2881,-1.2881,-1.2881,-1.2881,-1.2881,-1.2881,-1.2881,-1.2881,-1.2881,-1.2881,-1.2881,-1.2929,-1.3238,-1.342,-1.342,-1.3789,-1.3931,-1.3931,-1.3931,-1.4247,-1.4744,-1.5107,-1.5231,-1.5322,-1.6284,-1.6778,-1.7069,0.0,0.0,0.5368,0.5146,0.5108,0.5127,0.5176,0.5137,0.5146,0.0,0.5253,0.5253,0.5253,0.5576,0.5625,0.5215,0.5137,0.5108,0.5108,0.4873,0.4726,0.4706,0.4252,0.3973,0.3911,0.3423,0.3286,0.3506,0.3267,0.3273,0.3506,0.3506,0.3223,0.274,0.2719,0.2372,0.1847,0.1803,0.0,0.2049,0.2462,0.2662,0.0,0.0,0.3017,0.0,0.2778,0.2045,0.118,0.1633,0.1384,0.0,0.0,0.0,0.0,0.0,-0.0913,-0.1507,-0.1524,-0.1844,-0.2342,0.0,0.0,0.0,-0.3751,-0.3862,0.0,0.0,0.0,0.0,0.0,0.0,0.0,0.0,0.0,0.0,0.0,0.0,0.0,0.0,0.0,0.0,0.0,0.0,-1.2881,-1.2881,-1.2881,-1.2881,-1.2881,-1.2881,-1.2881,-1.2881,-1.2881,-1.2881,-1.2881,-1.2881,-1.2881,-1.2881,-1.2881,-1.2881,-1.2881,-1.2881,-1.2881,-1.2881,-1.2881,-1.2881,-1.2881,-1.2881,-1.3515,-1.4525,-1.456,-1.4606,-1.4652,-1.5276,-1.5783,-1.6289,0.0,0.5166,0.5166,0.5108,0.5108,0.5224,0.5596,0.5331,0.5361,0.6042,0.6152,0.6152,0.6152,0.5928,0.5764,0.5664,0.5312,0.5108,0.5108,0.5049,0.4932,0.4706,0.4606,0.4354,0.3911,0.379,0.3667,0.3506,0.3453,0.3453,0.3506,0.3506,0.333,0.3004,0.2789,0.2481,0.2106,0.1891,0.0,0.2028,0.2214,0.0,0.2886,0.3051,0.3259,0.337,0.3422,0.2976,0.2277,0.0,0.1404,0.0861,0.0,0.0,0.0,0.0,0.0,-0.09,-0.1012,0.0,0.0,0.0,0.0,0.0,0.0,-0.3013,0.0,0.0,0.0,0.0,0.0,0.0,0.0,0.0,0.0,0.0,0.0,0.0,0.0,0.0,0.0,0.0,0.0,0.0,-1.2881,-1.2881,-1.2881,-1.2881,-1.2881,-1.2881,-1.2881,-1.2881,-1.2881,-1.2881,-1.2881,-1.2881,-1.2881,-1.2881,-1.2881,-1.2881,-1.2881,-1.2881,-1.2881,-1.2881,-1.2881,-1.2881,-1.2881,-1.2881,-1.3017,-1.3296,-1.3779,-1.3956,-1.405,-1.4652,-1.4937,-1.5108,0.5108,0.5108,0.5108,0.5108,0.5108,0.5253,0.5734,0.5596,0.5762,0.6641,0.6934,0.6895,0.6455,0.6426,0.626,0.5842,0.5576,0.5341,0.5127,0.4853,0.4646,0.4507,0.4252,0.3965,0.371,0.371,0.3626,0.3506,0.3506,0.3506,0.3506,0.3506,0.3287,0.2896,0.2762,0.2437,0.2,0.0,0.1847,0.193,0.2306,0.0,0.294,0.3239,0.3446,0.3581,0.3581,0.3398,0.3017,0.204,0.1526,0.0,0.0,0.0428,-0.0036,0.0,-0.0426,-0.0727,0.0,0.0,0.0,-0.1761,0.0,0.0,0.0,0.0,0.0,0.0,0.0,0.0,0.0,0.0,0.0,0.0,0.0,0.0,0.0,0.0,0.0,0.0,0.0,0.0,0.0,0.0,-1.2314,-1.2539,-1.2754,-1.2881,-1.2881,-1.2881,-1.2881,-1.2881,-1.2881,-1.2715,-1.2344,-1.2725,-1.2725,-1.2344,-1.2344,-1.2344,-1.2344,-1.2344,-1.2344,-1.2344,-1.2725,-1.2881,-1.2881,-1.2881,-1.2881,-1.2929,-1.3238,-1.3324,-1.342,-1.4014,-1.4236,-1.4329,0.5108,0.5108,0.5108,0.5108,0.5176,0.538,0.5852,0.5921,0.6221,0.7109,0.7473,0.7434,0.6814,0.6913,0.6746,0.603,0.5857,0.5586,0.5154,0.4661,0.4346,0.4232,0.3807,0.3548,0.3506,0.3506,0.3506,0.3506,0.3506,0.3506,0.3506,0.3506,0.3245,0.2767,0.2743,0.2431,0.1915,0.0,0.0,0.2022,0.0,0.2737,0.2873,0.3354,0.3534,0.3541,0.3568,0.3581,0.3429,0.2364,0.0,0.1712,0.1116,0.0505,0.0,0.0,0.0,0.0,0.0,0.0,0.0,0.0,0.0,-0.2041,0.0,0.0,0.0,-0.3302,0.0,0.0,0.0,0.0,0.0,0.0,0.0,0.0,0.0,0.0,0.0,0.0,0.0,0.0,0.0,0.0,-1.1533,-1.2061,-1.2275,-1.249,-1.2744,-1.2648,-1.2638,-1.2715,-1.2569,-1.2197,-1.1616,-1.2197,-1.2197,-1.1616,-1.1616,-1.1616,-1.1616,-1.1765,-1.1814,-1.1814,-1.2559,-1.2881,-1.2881,-1.2881,-1.2881,-1.2881,-1.2881,-1.2881,-1.2968,-1.3467,-1.3637,-1.3684,0.5108,0.5108,0.5108,0.5108,0.5449,0.5872,0.627,0.6338,0.665,0.7511,0.758,0.764,0.7966,0.7247,0.6706,0.6618,0.6054,0.5572,0.5208,0.0,0.4496,0.396,0.389,0.3751,0.3506,0.3506,0.3506,0.3506,0.3506,0.3506,0.3506,0.3506,0.333,0.3058,0.2936,0.0,0.0,0.0,0.2215,0.0,0.2685,0.2644,0.0,0.3151,0.3333,0.335,0.3531,0.3581,0.3578,0.0,0.2662,0.1802,0.0,0.0895,0.0,0.0,0.0,0.0,0.0,0.0,0.0,0.0,-0.1638,0.0,0.0,0.0,-0.2716,-0.2781,0.0,0.0,0.0,0.0,0.0,0.0,0.0,0.0,0.0,0.0,0.0,0.0,0.0,0.0,0.0,0.0,0.0,-1.1616,-1.1018,-1.1084,-1.22,-1.1705,-1.1568,-1.1904,-1.1366,-1.1015,-1.0914,-1.1015,-1.1015,-1.0914,-1.0914,-1.0914,-1.0914,-1.1516,-1.1814,-1.1814,-1.2559,-1.2881,-1.2881,-1.2881,-1.2881,-1.2881,-1.2881,-1.2881,-1.2929,-1.2968,-1.3017,-1.3104,0.5108,0.5108,0.5108,0.5108,0.5263,0.554,0.5987,0.6645,0.7147,0.7235,0.7552,0.7843,0.7965,0.7435,0.0,0.0,0.0,0.6063,0.0,0.0,0.469,0.4428,0.3944,0.3708,0.3781,0.3592,0.3506,0.3506,0.3506,0.3421,0.3266,0.3266,0.3025,0.2577,0.2608,0.0,0.2272,0.0,0.2224,0.0,0.0,0.0,0.0,0.3219,0.3483,0.349,0.3558,0.3581,0.3565,0.0,0.2974,0.0,0.0,0.0,0.0,0.0,0.0,0.0,0.0,0.0,0.0,0.0,0.0,0.0,0.0,0.0,-0.2402,0.0,0.0,0.0,0.0,0.0,0.0,0.0,0.0,0.0,0.0,0.0,0.0,0.0,0.0,0.0,0.0,0.0,0.0,0.0,0.0,-1.0049,-1.1016,-1.0855,-1.0976,-1.1423,-1.1055,-1.061,-1.0218,-1.0618,-1.0618,-1.0218,-1.0218,-1.0218,-1.0218,-1.0517,-1.0669,-1.0712,-1.1783,-1.2236,-1.2295,-1.2715,-1.2881,-1.2881,-1.2881,-1.2881,-1.2881,-1.2881,-1.2881,-1.2929,0.5108,0.5108,0.5108,0.5108,0.5205,0.5528,0.6208,0.7169,0.7732,0.7467,0.7756,0.7982,0.7936,0.7617,0.0,0.0,0.7011,0.6533,0.0,0.0,0.4898,0.4812,0.4131,0.0,0.0,0.3761,0.3586,0.3506,0.3506,0.3393,0.3202,0.3132,0.2869,0.2446,0.2469,0.2446,0.2385,0.0,0.0,0.2526,0.273,0.2819,0.2853,0.3324,0.3544,0.3581,0.3581,0.3581,0.3605,0.3495,0.3159,0.0,0.2628,0.0,0.0,0.0,0.0,0.0,0.0288,0.0,0.0,0.0,0.0,0.0,0.0,0.0,0.0,0.0,0.0,0.0,0.0,0.0,0.0,0.0,0.0,0.0,0.0,0.0,0.0,0.0,0.0,0.0,0.0,0.0,0.0,0.0,0.0,0.0,-0.9857,-0.9781,-1.0026,-1.0707,-1.0343,-0.9921,-0.951,-1.002,-1.002,-0.951,-0.951,-0.951,-0.951,-0.971,-0.9814,-0.9865,-1.1015,-1.1516,-1.1566,-1.2098,-1.2412,-1.2608,-1.2608,-1.2715,-1.2881,-1.2881,-1.2881,-1.2881,0.5108,0.5108,0.5108,0.5108,0.5479,0.6191,0.7462,0.8055,0.8441,0.8711,0.0,0.0,0.0,0.0,0.0,0.0,0.0,0.6854,0.6592,0.0,0.5154,0.4807,0.4536,0.4249,0.0,0.3985,0.3814,0.3506,0.3506,0.3506,0.3485,0.3223,0.3089,0.307,0.2792,0.2765,0.2876,0.273,0.2917,0.3259,0.3122,0.3283,0.3531,0.0,0.3449,0.3581,0.3581,0.0,0.0,0.3575,0.33,0.0,0.0,0.0,0.0,0.0,0.0,0.0,0.0,0.0,0.0,0.0122,0.0,0.0,0.0,0.0,-0.2419,0.0,0.0,0.0,0.0,0.0,-0.3454,-0.3916,0.0,0.0,0.0,0.0,0.0,0.0,0.0,0.0,0.0,0.0,0.0,0.0,0.0,0.0,-0.8842,-0.8314,-0.8437,-0.9445,-0.882,-0.8575,-0.8804,-0.8857,-0.8857,-0.8857,-0.8857,-0.8857,-0.8857,-0.9517,-0.9814,-0.9865,-1.0517,-1.0813,-1.0813,-1.0864,-1.1266,-1.1814,-1.1814,-1.2295,-1.2881,-1.2881,-1.2881,-1.2881,0.5557,0.5557,0.5469,0.5156,0.0,0.5631,0.6272,0.6686,0.0,0.0,0.0,0.0,0.0,0.7984,0.7896,0.0,0.0,0.7495,0.7231,0.6526,0.0,0.0,0.0,0.4966,0.0,0.0,0.4115,0.3821,0.3599,0.3421,0.3245,0.3132,0.2891,0.2517,0.0,0.2726,0.0,0.0,0.0,0.0,0.0,0.3303,0.3575,0.0,0.0,0.3581,0.3581,0.3581,0.0,0.3581,0.3537,0.3507,0.3507,0.3081,0.2607,0.2607,0.2303,0.0,0.0,0.0,0.1594,0.0885,0.0,0.0,0.0,0.0,0.0,0.0,0.0,0.0,0.0,0.0,-0.3313,-0.3405,-0.3408,0.0,0.0,0.0,0.0,0.0,0.0,0.0,0.0,0.0,0.0,0.0,0.0,0.0,0.0,-0.7299,-0.7631,-0.84,-0.84,-0.8424,-0.8517,-0.8711,-0.8804,-0.8804,-0.8804,-0.8804,-0.8811,-0.9061,-0.9159,-0.9159,-0.9865,-1.0167,-1.0167,-1.0618,-1.0914,-1.1166,-1.1166,-1.1575,-1.2236,-1.2725,-1.2881,-1.2881,0.5999,0.0,0.0,0.0,0.0,0.5762,0.6269,0.0,0.0,0.0,0.7746,0.0,0.8367,0.0,0.821,0.0,0.8257,0.7963,0.7649,0.7174,0.0,0.6747,0.6099,0.0,0.0,0.5017,0.4522,0.4153,0.3828,0.3518,0.3245,0.3132,0.2891,0.2543,0.0,0.2871,0.2859,0.0,0.3253,0.0,0.0,0.3402,0.0,0.0,0.3581,0.3581,0.0,0.3581,0.3581,0.3581,0.371,0.3873,0.3873,0.3617,0.336,0.336,0.3034,0.2665,0.247,0.2459,0.0,0.0,0.1509,0.0,0.0193,0.0,0.0,0.0,0.0,0.0,0.0,0.0,-0.2944,-0.2812,-0.2923,-0.3031,0.0,0.0,0.0,0.0,0.0,0.0,0.0,0.0,-0.4456,-0.4957,0.0,0.0,0.0,0.0,-0.6977,-0.7565,-0.7926,-0.8205,-0.842,-0.8557,-0.8704,-0.8804,-0.8804,-0.8804,-0.8804,-0.8804,-0.8804,-0.8804,-0.9263,-0.9465,-0.9458,-0.9909,-1.0218,-1.0415,-1.0415,-1.0864,-1.1516,-1.2246,-1.2666,-1.2881,0.0,0.0,0.0,0.0,0.6075,0.0,0.0,0.0,0.8385,0.0,0.8526,0.8618,0.8457,0.8397,0.851,0.8784,0.8557,0.0,0.7948,0.7682,0.0,0.0,0.6807,0.6513,0.6243,0.5658,0.0,0.0,0.4153,0.3828,0.3526,0.3229,0.3089,0.3091,0.3226,0.0,0.3096,0.3553,0.3711,0.3581,0.3588,0.3588,0.3581,0.3595,0.0,0.3592,0.3592,0.3592,0.3592,0.3598,0.3792,0.4029,0.4029,0.408,0.4197,0.4197,0.4093,0.388,0.3327,0.3179,0.3006,0.2411,0.0,0.0,0.0,0.0,-0.0093,0.0,0.0,0.0,0.0,0.0,0.0,-0.2237,-0.2599,-0.2862,0.0,0.0,0.0,0.0,0.0,0.0,0.0,0.0,-0.4335,-0.517,-0.4688,0.0,0.0,0.0,0.0,-0.6919,-0.7251,-0.7756,-0.8343,-0.837,-0.8517,-0.8804,-0.8804,-0.8804,-0.8804,-0.8804,-0.8804,-0.8804,-0.8804,-0.8804,-0.8804,-0.8804,-0.9159,-0.9762,-0.9762,-1.0167,-1.0864,-1.1566,-1.2295,-1.2881,0.6904,0.6765,0.6526,0.0,0.6093,0.6321,0.0,0.0,0.0,0.0,0.8263,0.8514,0.8664,0.8697,0.8731,0.8798,0.8738,0.0,0.0,0.0,0.0,0.8029,0.7742,0.7341,0.6814,0.627,0.0,0.5057,0.0,0.0,0.3854,0.3337,0.3004,0.2805,0.0,0.0,0.2833,0.3143,0.3422,0.3588,0.3693,0.3673,0.0,0.0,0.3836,0.3737,0.3737,0.3737,0.3754,0.387,0.4033,0.4137,0.4137,0.4164,0.4197,0.4197,0.4167,0.4137,0.3981,0.4002,0.3934,0.3221,0.3031,0.2881,0.0,0.0,0.0,0.0,0.0,0.0,0.0,0.0,0.0,-0.222,-0.2606,-0.2864,0.0,0.0,0.0,0.0,0.0,0.0,0.0,0.0,-0.3874,-0.4103,0.0,0.0,0.0,0.0,0.0,-0.5855,-0.6483,-0.7235,-0.8043,-0.8263,-0.8517,-0.8804,-0.8804,-0.8804,-0.8804,-0.8804,-0.8804,-0.8804,-0.8804,-0.8804,-0.8804,-0.8804,-0.891,-0.9061,-0.9061,-0.9465,-1.0218,-1.1384,-1.2255,-1.2881,0.7627,0.0,0.0,0.8065,0.0,0.0,0.7491,0.0,0.0,0.7802,0.819,0.0,0.8604,0.8731,0.8804,0.8804,0.8804,0.0,0.8624,0.0,0.0,0.8383,0.8216,0.7963,0.7622,0.6907,0.0,0.5699,0.0,0.0,0.3985,0.3507,0.3202,0.3048,0.0,0.3078,0.0,0.3114,0.3395,0.368,0.3761,0.0,0.0,0.3958,0.3968,0.39,0.3968,0.3948,0.3904,0.3988,0.407,0.4197,0.4197,0.4237,0.4341,0.4341,0.4341,0.4341,0.4341,0.4402,0.4385,0.392,0.3847,0.3691,0.2862,0.2357,0.1936,0.0,0.0,0.0,0.0,0.0,0.0,0.0,0.0,0.0,0.0,0.0,0.0,0.0,0.0,0.0,0.0,0.0,0.0,0.0,0.0,0.0,0.0,0.0,0.0,-0.5087,-0.5702,-0.6333,-0.6918,-0.7237,-0.7502,-0.7762,-0.7829,-0.783,-0.783,-0.783,-0.799,-0.8321,-0.8321,-0.848,-0.8804,-0.8804,-0.8804,-0.8804,-0.8804,-0.9211,-0.9865,-1.0635,-1.1392,-1.1999,0.0,0.0,0.0,0.0,0.0,0.0,0.0,0.7734,0.0,0.7949,0.0,0.843,0.843,0.8657,0.8804,0.8804,0.0,0.8697,0.8444,0.8664,0.8697,0.8444,0.843,0.8417,0.8427,0.7522,0.0,0.0,0.0,0.4515,0.3985,0.3623,0.3442,0.0,0.0,0.0,0.0,0.3521,0.3752,0.0,0.4113,0.4156,0.4172,0.416,0.4113,0.407,0.417,0.4127,0.4053,0.407,0.4165,0.4224,0.4224,0.4362,0.4519,0.4519,0.4519,0.4519,0.4519,0.4519,0.4519,0.4519,0.4519,0.4338,0.3622,0.3444,0.3014,0.1696,0.1329,0.0,0.0,0.0,0.0,0.0,0.0,0.0,0.0,0.0,0.0,0.0,0.0,0.0,0.0,0.0,0.0,0.0,0.0,0.0,0.0,0.0,0.0,0.0,-0.4922,0.0,-0.5718,0.0,-0.6151,-0.6401,-0.6546,-0.6588,-0.6588,-0.6588,-0.6966,-0.7563,-0.767,-0.8049,-0.8646,-0.8752,-0.8804,-0.8804,-0.8804,-0.9159,-0.9666,-0.9666,-1.0064,-1.0661,0.0,0.0,0.0,0.0,0.0,0.9074,0.9084,0.884,0.8591,0.8355,0.855,0.8731,0.8731,0.8778,0.8804,0.8804,0.8804,0.0,0.0,0.0,0.0,0.8738,0.8731,0.8617,0.8427,0.7775,0.7029,0.0,0.5271,0.4515,0.3985,0.344,0.3175,0.0,0.0,0.0,0.3915,0.4656,0.0,0.5389,0.579,0.5553,0.4927,0.5173,0.4782,0.4174,0.4372,0.4331,0.4174,0.4345,0.4402,0.4426,0.4426,0.4498,0.4519,0.4519,0.4519,0.4519,0.4519,0.4519,0.4519,0.4519,0.4519,0.445,0.4341,0.3851,0.3309,0.3073,0.2466,0.1787,0.1037,0.0,0.0,0.0,0.0,0.0,0.0,0.0,0.0,0.0,0.0,0.0,0.0,0.0,0.0,0.0,0.0,0.0,0.0,0.0,0.0,0.0,0.0,0.0,0.0,0.0,0.0,-0.6582,-0.6568,-0.6588,-0.6588,-0.6588,-0.6696,-0.6804,-0.745,-0.7777,-0.7937,-0.8533,-0.8804,-0.8804,-0.8804,-0.8857,-0.8956,-0.8956,-0.9061,-0.9413,0.0,0.0,0.0,0.0,0.0,0.0,0.0,1.0389,0.0,0.9047,0.9033,0.8973,0.8635,0.8717,0.8804,0.8804,0.8804,0.8804,0.8804,0.8804,0.8804,0.8804,0.8804,0.0,0.8604,0.8163,0.7502,0.6607,0.5725,0.4917,0.4188,0.3593,0.3406,0.3576,0.0,0.3925,0.0,0.0,0.0,0.5886,0.6273,0.6206,0.5873,0.6016,0.5545,0.4896,0.4976,0.474,0.4368,0.4494,0.4519,0.4519,0.4519,0.4519,0.4519,0.4519,0.4519,0.4519,0.4519,0.4519,0.4519,0.4519,0.4519,0.4519,0.4519,0.4236,0.3846,0.3456,0.3065,0.2569,0.1837,0.0884,0.0,0.0,0.0,0.0,0.0,0.0,0.0,0.0,0.0,0.0,0.0,0.0,0.0,0.0,0.0,0.0,0.0,0.0,0.0,0.0,0.0,0.0,0.0,0.0,0.0,-0.5362,-0.5454,-0.55,-0.55,-0.55,-0.5714,-0.6036,-0.6411,-0.7009,-0.7777,-0.848,-0.8804,-0.8804,-0.8804,-0.8804,-0.8804,-0.8804,-0.8804,-0.9061,0.0,1.1979,0.0,0.0,1.211,0.0,0.0,1.1722,1.1469,0.9909,0.968,0.944,0.876,0.8865,0.8956,0.8804,0.8804,0.8804,0.8804,0.8804,0.8804,0.8804,0.8804,0.8804,0.8804,0.8524,0.7929,0.0,0.6206,0.5357,0.4482,0.3931,0.3861,0.0,0.0,0.0,0.0,0.0,0.6184,0.6515,0.6799,0.6855,0.6858,0.6858,0.6367,0.576,0.576,0.5273,0.4736,0.4736,0.4625,0.4519,0.4519,0.4519,0.4519,0.4519,0.4519,0.4519,0.4519,0.4519,0.4519,0.4519,0.4519,0.4519,0.4519,0.4519,0.4294,0.368,0.3456,0.3167,0.2549,0.1821,0.0,0.0,0.0,0.0,0.0,0.0,0.0,0.0,0.0,0.0,0.0,0.0,0.0,0.0,0.0,0.0,-0.2597,-0.2898,0.0,0.0,0.0,0.0,-0.3788,0.0,-0.4111,0.0,-0.4409,-0.4519,-0.4519,-0.4519,-0.4787,-0.5269,-0.5433,-0.6357,-0.7777,-0.848,-0.8804,-0.8804,-0.8804,-0.8804,-0.8804,-0.8804,-0.8804,-0.8956,0.0,0.0,0.0,0.0,0.0,0.0,0.0,1.2325,1.2295,1.0872,1.0663,1.0418,0.9717,0.9695,0.9465,0.8857,0.8804,0.8804,0.8804,0.8804,0.8804,0.8804,0.8804,0.8804,0.8804,0.8524,0.7929,0.0,0.0,0.5665,0.4761,0.4442,0.0,0.0,0.0,0.0,0.0,0.7263,0.7885,0.82,0.8488,0.8184,0.7616,0.7616,0.7128,0.648,0.648,0.6036,0.5433,0.5433,0.5003,0.4519,0.4519,0.4519,0.4519,0.4519,0.4519,0.4519,0.4519,0.4519,0.4519,0.4519,0.4519,0.4519,0.4519,0.4519,0.4463,0.4405,0.379,0.3333,0.3315,0.255,0.173,0.0,0.0,0.0,0.0,0.0,0.0,0.0,0.0,0.0,0.0,0.0,0.0,0.0,0.0,0.0,0.0,-0.229,0.0,-0.2913,0.0,-0.3351,-0.3788,-0.3941,0.0,-0.4498,-0.4512,-0.4519,-0.4519,-0.4519,-0.4515,-0.4625,-0.5218,-0.6357,-0.7777,-0.848,-0.8804,-0.8804,-0.8804,-0.8804,-0.8804,-0.8804,-0.8804,-0.891,0.0,0.0,0.0,0.0,0.0,0.0,0.0,1.3246,1.3041,1.2508,1.1463,1.0517,0.9865,0.9814,0.9865,0.9969,0.9614,0.9413,0.9413,0.9008,0.8804,0.8804,0.8804,0.8804,0.8804,0.8691,0.8283,0.0,0.0,0.0,0.0,0.0,0.0,0.0,0.0,0.7032,0.7108,0.7888,0.827,0.8397,0.8691,0.8646,0.8374,0.8374,0.7883,0.7235,0.7235,0.6799,0.6091,0.5651,0.5054,0.4519,0.4519,0.4519,0.4519,0.4519,0.4519,0.4519,0.4519,0.4519,0.4519,0.4519,0.4519,0.4519,0.4519,0.4519,0.4519,0.4519,0.4236,0.4014,0.388,0.3207,0.2535,0.0,0.0,0.0,0.0,0.0,0.0,0.0,0.0,0.0,0.0,0.0,0.0,0.0,0.0,0.0,0.0,0.0,0.0,-0.2761,0.0,-0.3337,-0.3788,-0.3941,-0.4168,-0.4519,-0.4519,-0.4519,-0.4519,-0.4519,-0.4519,-0.4519,-0.5218,-0.6086,-0.7074,-0.783,-0.8427,-0.8804,-0.8804,-0.8804,-0.8804,-0.8804,-0.8804,-0.8857,1.4297,0.0,1.3828,0.0,1.3975,1.3789,1.4038,1.3887,1.3588,1.3422,1.2261,1.1104,1.019,1.0115,1.0218,1.0466,1.0064,0.9814,0.9814,0.9361,0.9008,0.8811,0.8804,0.0,0.8804,0.8804,0.8564,0.8063,0.7542,0.0,0.0,0.0,0.0,0.0,0.7513,0.7782,0.7815,0.8283,0.8504,0.8517,0.8724,0.8804,0.8804,0.8804,0.848,0.8049,0.8049,0.7563,0.6858,0.6303,0.571,0.5062,0.4625,0.4519,0.4519,0.4519,0.4519,0.4519,0.4519,0.4519,0.4519,0.4519,0.4519,0.4519,0.4519,0.4519,0.4519,0.4519,0.4429,0.4368,0.4214,0.3698,0.3213,0.0,0.0,0.0,0.0,0.0,0.0,0.0,0.0,-0.0065,0.0,0.0,0.0,0.0,0.0,0.0,0.0,0.0,0.0,0.0,0.0,0.0,0.0,0.0,-0.4168,-0.4519,-0.4519,-0.4519,-0.4519,-0.4519,-0.4519,-0.4519,-0.5218,-0.5814,-0.6312,-0.7069,-0.767,-0.8156,-0.8374,-0.848,-0.848,-0.8699,-0.8804,-0.8804,1.4687,1.4424,1.4268,1.4697,1.4414,1.4077,1.4077,1.4077,1.3853,1.3195,1.3077,1.2494,1.0947,1.0762,1.0517,0.9865,0.9814,0.9814,0.9814,0.9814,0.951,0.0,0.0,0.8804,0.8804,0.8804,0.8664,0.837,0.0,0.0,0.7493,0.0,0.7493,0.7527,0.8138,0.8414,0.8383,0.8677,0.8804,0.8804,0.8804,0.8804,0.8804,0.8804,0.8804,0.8804,0.8804,0.8315,0.767,0.767,0.7182,0.6312,0.4956,0.4519,0.4519,0.4519,0.4519,0.4519,0.4519,0.4519,0.4519,0.4519,0.4519,0.4519,0.4519,0.4519,0.4519,0.4519,0.4351,0.4197,0.4197,0.3999,0.3602,0.301,0.0,0.0,0.0,0.0,0.0,0.0,0.0376,0.0,0.0,0.0,0.0,0.0,0.0,0.0,0.0,0.0,0.0,-0.2896,-0.3234,0.0,-0.3788,-0.3941,-0.4168,-0.4519,-0.4519,-0.4519,-0.4519,-0.4519,-0.4519,-0.4519,-0.5218,-0.5487,-0.5597,-0.6312,-0.6642,-0.6696,-0.745,-0.7723,-0.7777,-0.8533,-0.8804,-0.8804,1.5186,1.5098,1.5049,1.5186,1.5098,1.501,1.501,1.4756,1.4525,1.4294,1.3981,1.3427,1.2458,1.2378,1.2053,0.0,1.1473,1.1309,0.0,1.0064,0.9718,0.951,0.9061,0.8804,0.8804,0.8804,0.8758,0.8671,0.0,0.0,0.0,0.8131,0.819,0.839,0.8584,0.8671,0.8671,0.8764,0.8804,0.8804,0.8804,0.8804,0.8804,0.8804,0.8804,0.8804,0.8804,0.8646,0.8374,0.7883,0.7557,0.7182,0.6204,0.5605,0.5109,0.4625,0.4519,0.4519,0.4519,0.4519,0.4519,0.4519,0.4519,0.4519,0.4519,0.4519,0.4519,0.4519,0.4426,0.4331,0.4128,0.4012,0.3819,0.3436,0.0,0.0,0.0,0.0,0.0,0.0,0.0,0.0,0.0,-0.0067,0.0,0.0,0.0,0.0,0.0,0.0,0.0,0.0,-0.3282,0.0,-0.3788,-0.4046,-0.4273,-0.4519,-0.4519,-0.4519,-0.4519,-0.4519,-0.4519,-0.4519,-0.4732,-0.5058,-0.5542,-0.576,-0.6145,-0.6642,-0.6858,-0.6966,-0.702,-0.7777,-0.8049,-0.8103,1.541,1.541,1.541,1.541,1.541,1.541,1.541,1.5186,1.5019,1.5019,1.4785,1.4385,1.3773,1.3895,0.0,1.2398,1.257,0.0,1.1722,1.111,1.0725,1.0457,0.9881,0.9413,0.9159,0.0,0.0,0.8804,0.8624,0.8537,0.8537,0.8537,0.8637,0.8804,0.8804,0.8804,0.8804,0.8804,0.8804,0.8804,0.8804,0.8804,0.8804,0.8804,0.8804,0.8804,0.8804,0.8804,0.8752,0.8262,0.8103,0.799,0.7235,0.6686,0.614,0.5167,0.4677,0.4519,0.4519,0.4519,0.4519,0.4519,0.4519,0.4519,0.4519,0.4519,0.4519,0.4519,0.4419,0.4307,0.4063,0.3972,0.3856,0.3619,0.0,0.3393,0.0,0.0,0.0,0.0,0.0,0.0,0.0,0.0,0.0,0.0,0.0,0.0,0.0,0.0,0.0,-0.2273,-0.298,0.0,-0.3537,-0.3971,-0.4321,-0.4519,-0.4519,-0.4519,-0.4519,-0.4519,-0.4519,-0.4519,-0.4519,-0.4732,-0.5109,-0.5109,-0.5382,-0.5823,-0.6091,-0.6204,-0.6253,-0.702,-0.7289,-0.7396,1.541,1.541,0.0,0.0,1.541,0.0,1.541,1.541,1.541,1.541,1.541,1.5264,1.4873,1.5176,1.4792,1.3396,0.0,0.0,0.0,1.2751,1.2272,1.1612,1.1104,0.0,0.9947,0.9821,0.9458,0.8804,0.8804,0.8804,0.8804,0.8804,0.8804,0.8804,0.8804,0.8804,0.8804,0.8804,0.8804,0.8804,0.8804,0.8804,0.8804,0.8804,0.8804,0.8804,0.8804,0.8804,0.8804,0.8804,0.8804,0.8699,0.7996,0.7723,0.7396,0.5923,0.5054,0.457,0.4519,0.4519,0.4519,0.4519,0.4519,0.4519,0.4519,0.4519,0.4519,0.4519,0.4355,0.4164,0.4063,0.391,0.3761,0.3615,0.3588,0.3527,0.3329,0.0,0.0,0.0,0.0,0.0,0.0,0.0039,0.0,0.0,0.0,0.0,0.0,0.0,-0.1348,-0.1598,-0.2422,-0.2911,-0.3026,-0.3715,-0.4167,-0.4405,-0.4405,-0.446,-0.4519,-0.4519,-0.4519,-0.4519,-0.4519,-0.4519,-0.4519,-0.4519,-0.4519,-0.457,-0.5164,-0.5433,-0.5542,-0.6258,-0.6529,-0.6642,0.0,0.0,1.541,1.541,1.541,1.541,1.541,1.541,1.541,1.541,1.541,1.5371,1.5273,1.5352,1.5264,1.4888,1.458,1.4042,1.3159,1.3005,1.2896,1.2725,1.1858,1.1234,1.1076,1.0254,0.9458,0.8804,0.8804,0.8804,0.8804,0.8804,0.8804,0.8804,0.8804,0.8804,0.8804,0.8804,0.8804,0.8804,0.8804,0.8804,0.8804,0.8804,0.8804,0.8804,0.8804,0.8804,0.8804,0.8804,0.8804,0.8752,0.8593,0.8156,0.7396,0.5923,0.5378,0.5164,0.4625,0.4519,0.4519,0.4519,0.4519,0.4519,0.4519,0.4519,0.4519,0.4519,0.4436,0.4368,0.4167,0.402,0.3917,0.3768,0.3649,0.3527,0.3329,0.0,0.0,0.0,0.1439,0.0805,0.0706,0.0251,0.0,0.0,0.0,0.0,0.0,0.0,-0.0691,-0.1583,-0.2002,-0.2224,-0.2254,-0.2549,-0.2987,-0.3566,-0.3566,-0.3901,-0.4519,-0.4519,-0.4519,-0.4519,-0.4519,-0.4519,-0.4519,-0.4519,-0.4519,-0.4519,-0.468,-0.4732,-0.4842,-0.5492,-0.576,-0.5869,1.541,1.541,1.541,1.541,1.541,1.541,1.541,1.541,1.541,1.541,1.541,1.541,1.541,1.541,1.541,1.541,1.5205,1.4791,1.4213,1.3969,1.3866,1.3866,1.3131,1.2538,1.2217,1.1425,1.0434,0.9263,0.9263,0.9113,0.8804,0.8804,0.8804,0.8804,0.8804,0.8804,0.8804,0.8804,0.8804,0.8804,0.8804,0.8804,0.8804,0.8804,0.8804,0.8804,0.8804,0.8804,0.8804,0.8804,0.8804,0.8804,0.8804,0.8533,0.799,0.6848,0.6032,0.5433,0.5054,0.4732,0.457,0.4897,0.4948,0.4948,0.4948,0.4732,0.4519,0.4519,0.4519,0.4419,0.422,0.4073,0.3968,0.3816,0.3673,0.3527,0.3329,0.3099,0.0,0.2553,0.198,0.1547,0.1332,0.0784,0.0392,0.0404,0.0,0.0,0.0,0.0,-0.0277,-0.0829,-0.134,-0.1613,-0.1593,-0.1975,-0.2397,-0.2788,-0.2788,-0.301,-0.3456,-0.379,-0.3959,-0.3956,-0.4349,-0.4519,-0.4519,-0.4519,-0.4519,-0.4519,-0.4519,-0.4519,-0.4519,-0.4893,-0.5058,-0.5164,1.5615,1.5615,1.5586,1.5527,1.5508,1.5488,1.542,1.541,1.541,1.541,1.541,1.541,1.541,1.541,1.541,1.541,1.541,1.541,1.541,1.5078,1.4883,1.4883,1.4463,1.3959,1.3341,1.285,1.1791,1.0173,1.0067,0.9709,0.9092,0.9051,0.8977,0.8878,0.8918,0.8911,0.8878,0.8918,0.8938,0.8938,0.8938,0.8911,0.8871,0.8871,0.8844,0.8804,0.8804,0.8804,0.8804,0.8804,0.8804,0.8804,0.8804,0.8804,0.8699,0.8049,0.6902,0.5814,0.5706,0.5167,0.4787,0.5378,0.5487,0.5487,0.5487,0.5054,0.4625,0.4515,0.4519,0.4426,0.4304,0.4086,0.3978,0.3846,0.3687,0.3534,0.336,0.0,0.3178,0.2732,0.2607,0.2433,0.2037,0.1458,0.1048,0.0958,0.0457,0.0,0.0,0.0,0.0,0.0,-0.0618,-0.0958,-0.091,-0.1541,-0.1898,-0.2009,-0.2009,-0.2119,-0.2232,-0.2843,-0.3121,-0.3176,-0.3846,-0.4125,-0.4181,-0.4294,-0.4294,-0.4349,-0.446,-0.4519,-0.4519,-0.4519,-0.4519,-0.457,1.6523,1.6523,1.6406,1.6025,1.5957,1.584,1.5469,1.541,1.541,1.541,1.541,1.541,1.541,1.541,1.541,1.541,1.541,1.541,1.541,1.5352,1.5312,1.5312,1.4912,1.4622,1.4511,1.3533,1.258,1.1754,1.1379,1.101,1.058,1.0258,0.976,0.913,0.9432,0.9406,0.9137,0.9439,0.9546,0.9546,0.9546,0.9399,0.9117,0.9117,0.9018,0.8804,0.8804,0.8804,0.8804,0.8804,0.8804,0.8804,0.8804,0.8804,0.8758,0.8646,0.8043,0.723,0.6583,0.5873,0.5378,0.5487,0.5487,0.5487,0.5487,0.5433,0.5164,0.4625,0.4519,0.4512,0.4433,0.4206,0.4012,0.3988,0.3758,0.3571,0.3548,0.0,0.3544,0.3615,0.3164,0.2837,0.2903,0.2372,0.1733,0.1139,0.0992,0.0646,0.005,0.0,0.0,0.0,-0.0106,-0.0162,-0.0167,-0.0279,-0.0671,-0.1284,-0.1284,-0.1619,-0.223,-0.2341,-0.2397,-0.2397,-0.2508,-0.2565,-0.2619,-0.3231,-0.3511,-0.3566,-0.4236,-0.4519,-0.4519,-0.4519,-0.4519,-0.4519,1.6665,1.6602,1.6475,1.6436,1.6289,1.6172,1.6133,1.6123,1.6123,1.6123,1.5908,1.5762,1.5762,1.5557,1.541,1.541,1.541,1.541,1.541,1.541,1.541,1.541,1.5225,1.5019,1.4785,1.4304,1.358,1.2648,1.2464,1.2074,1.1527,1.0915,1.0465,1.008,0.9843,0.9606,0.9486,0.9626,0.9686,0.9686,0.9686,0.9599,0.9479,0.9479,0.9399,0.9279,0.9279,0.9172,0.9038,0.9038,0.8938,0.8804,0.8804,0.8804,0.8804,0.8804,0.8262,0.7557,0.6804,0.6637,0.6578,0.6199,0.6416,0.6578,0.6199,0.576,0.5433,0.5109,0.4732,0.4519,0.4519,0.4287,0.409,0.409,0.389,0.0,0.0,0.3693,0.3717,0.3785,0.3621,0.3498,0.3562,0.3016,0.2566,0.2213,0.1863,0.1371,0.0621,0.0579,0.0429,0.0,0.0,0.0,0.0,0.0,-0.0168,-0.0504,-0.0504,-0.0671,-0.1006,-0.1452,-0.1619,-0.1619,-0.2009,-0.2174,-0.2232,-0.2565,-0.273,-0.2732,-0.3121,-0.3511,-0.3901,-0.3846,-0.4125,-0.4519,1.7031,1.6846,1.6728,1.6855,1.6699,1.6582,1.6709,1.6665,1.6665,1.6665,1.6436,1.6221,1.6221,1.583,1.5566,1.5566,1.5469,1.541,1.541,1.541,1.541,1.541,1.541,1.5264,1.4941,1.4932,1.4532,1.3645,1.3552,1.3166,1.2572,1.1858,1.142,1.1256,1.0537,1.0127,1.0072,0.9971,0.9886,0.9886,0.9886,0.9846,0.9786,0.9786,0.974,0.9686,0.9686,0.9539,0.9276,0.921,0.9037,0.8898,0.8831,0.8804,0.8804,0.8804,0.8374,0.7777,0.7074,0.7289,0.7563,0.702,0.7289,0.7563,0.6966,0.6416,0.5977,0.5814,0.5222,0.4732,0.4732,0.4449,0.4197,0.4197,0.0,0.0,0.0,0.3843,0.386,0.3894,0.4002,0.4087,0.4117,0.3709,0.3348,0.3144,0.2733,0.2141,0.1393,0.1342,0.1034,0.028,0.0112,0.0,0.0,0.0,0.0,0.0,0.0,0.0,0.0,-0.056,-0.0838,-0.0895,-0.1452,-0.1675,-0.1675,-0.1898,-0.1952,-0.1952,-0.212,-0.2565,-0.3121,-0.3065,-0.3456,-0.4012,1.792,1.79,1.7764,1.7402,1.7314,1.7168,1.6787,1.6665,1.6665,1.6665,1.6636,1.668,1.668,1.6279,1.6076,1.6076,1.5644,1.541,1.541,1.541,1.541,1.541,1.541,1.54,1.5371,1.5371,1.5284,1.5255,1.4865,1.4469,1.4055,1.358,1.3067,1.2447,1.1867,1.1465,1.1145,1.0739,1.0557,1.0557,1.0557,1.0334,1.0087,1.0087,0.992,0.9686,0.9686,0.9666,0.9613,0.9332,0.917,0.9103,0.8891,0.8804,0.8804,0.8804,0.8752,0.854,0.783,0.767,0.767,0.7616,0.767,0.767,0.7616,0.7557,0.7343,0.6642,0.5928,0.5433,0.5433,0.4766,0.4197,0.4197,0.0,0.0,0.4002,0.4002,0.4056,0.4147,0.4174,0.4284,0.447,0.4429,0.4097,0.3319,0.3264,0.2881,0.2166,0.2112,0.1781,0.1062,0.0336,0.0,0.0,0.0,0.0,0.0,0.0,0.0,0.0,-0.0056,-0.0056,-0.0112,-0.0112,-0.0168,-0.0224,-0.0895,-0.1174,-0.1229,-0.1952,-0.2232,-0.2286,-0.2286,-0.2341,-0.2454,1.8008,1.8008,1.7959,1.7803,1.7773,1.7715,1.7549,1.7519,1.7519,1.7519,1.7305,1.7139,1.7139,1.6738,1.6367,1.6145,1.5908,1.5703,1.543,1.541,1.541,1.541,1.541,1.541,1.541,1.541,1.541,1.541,1.5254,1.5071,1.4932,1.4295,1.3812,1.3584,1.2882,1.2501,1.2321,1.1603,1.1351,1.1288,1.0807,1.0494,1.0388,1.0388,1.0321,1.0288,1.0288,1.0107,0.9933,0.982,0.9666,0.9466,0.9172,0.9072,0.9038,0.8858,0.8804,0.8752,0.848,0.8374,0.8262,0.783,0.8049,0.8268,0.783,0.7723,0.7616,0.7343,0.6691,0.6036,0.5597,0.5217,0.4858,0.4433,0.0,0.411,0.411,0.411,0.413,0.4187,0.4328,0.4402,0.4512,0.4519,0.4349,0.407,0.407,0.3735,0.301,0.2454,0.2063,0.1786,0.1507,0.0951,0.0,0.0,0.0,0.0,0.0,0.0,0.0,0.0,0.0,0.0,0.0,0.0,0.0,-0.028,-0.0392,-0.0448,-0.0727,-0.1118,-0.1507,-0.1507,-0.1786,-0.2286,1.8008,1.8008,1.8008,1.8008,1.8008,1.8008,1.8008,1.8008,1.8008,1.8008,1.7764,1.7578,1.7578,1.7197,1.6816,1.6504,1.6348,1.6143,1.585,1.583,1.5703,1.542,1.541,1.541,1.541,1.541,1.541,1.541,1.541,1.541,1.541,1.4815,1.4569,1.4569,1.3726,1.3364,1.3304,1.2512,1.2012,1.1772,1.1226,1.0807,1.0624,1.0624,1.0624,1.0624,1.0624,1.0428,1.0241,1.0147,0.998,0.9766,0.9472,0.9256,0.913,0.8891,0.8804,0.8804,0.8804,0.8804,0.8699,0.8156,0.8427,0.8646,0.8156,0.8049,0.8049,0.8049,0.7456,0.6799,0.6303,0.5977,0.5601,0.4952,0.4696,0.4524,0.4314,0.4317,0.4317,0.4317,0.4402,0.4519,0.4519,0.4519,0.4519,0.4519,0.4519,0.4294,0.379,0.301,0.2565,0.2565,0.2343,0.173,0.0727,0.0448,0.0224,0.0,0.0,0.0,0.0,0.0,0.0,0.0,0.0,0.0,0.0,0.0,0.0,0.0,0.0,-0.0336,-0.0727,-0.0727,-0.1062,-0.1619,1.8008,1.8008,1.8008,1.8008,1.8008,1.8008,1.8008,1.8008,1.8008,1.8008,1.8008,1.8008,1.8008,1.7637,1.7393,1.7383,1.6982,1.6675,1.6665,1.6665,1.6338,1.5459,1.542,1.542,1.542,1.541,1.541,1.541,1.541,1.541,1.541,1.541,1.541,1.5352,1.4569,1.4213,1.4154,1.3364,1.2573,1.1834,1.1826,1.1351,1.0624,1.0624,1.0624,1.0624,1.0624,1.0624,1.0577,1.0221,1.012,1.0067,0.978,0.9486,0.913,0.8898,0.8811,0.8811,0.8804,0.8804,0.8804,0.8804,0.8804,0.8804,0.8804,0.8804,0.8804,0.8804,0.8209,0.7723,0.7723,0.7128,0.6367,0.5651,0.5487,0.5273,0.4625,0.4519,0.4519,0.4519,0.4519,0.4519,0.4519,0.4519,0.4519,0.4519,0.4519,0.4519,0.4519,0.3732,0.3345,0.34,0.2621,0.2232,0.223,0.1452,0.0727,0.0,0.0,0.0,0.0,0.0,0.0,0.0,0.0,0.0,0.0,0.0,0.0,0.0,0.0,0.0,0.0,0.0,0.0,-0.0112,1.8008,1.8008,1.8008,1.8008,1.8008,1.8008,1.8008,1.8008,1.8008,1.8008,1.8008,1.8008,1.8008,1.79,1.7705,1.7412,1.7266,1.7061,1.6748,1.6665,1.6548,1.6348,1.6035,1.5869,1.5869,1.5566,1.541,1.541,1.541,1.541,1.541,1.541,1.541,1.541,1.5177,1.505,1.4991,1.4213,1.3726,1.3416,1.2879,1.2143,1.1531,1.2089,1.16,1.0681,1.1226,1.1108,1.0611,1.0454,1.0428,1.0374,1.008,0.9786,0.9492,0.9198,0.9057,0.9065,0.8864,0.8804,0.8804,0.8804,0.8804,0.8804,0.8804,0.8804,0.8804,0.8804,0.8646,0.8315,0.7777,0.7509,0.7128,0.6367,0.6258,0.6036,0.5328,0.5218,0.5003,0.457,0.4519,0.4519,0.4519,0.4519,0.4519,0.4519,0.4519,0.4519,0.4519,0.4294,0.4125,0.4181,0.3956,0.3566,0.2954,0.2232,0.1507,0.0783,0.0783,0.0504,0.0,0.0,0.0,0.0,0.0,0.0,0.0,0.0,0.0,0.0,0.0,0.0,0.0,0.0,0.0,-0.0112,1.8008,1.8008,1.8008,1.8008,1.8008,1.8008,1.8008,1.8008,1.8008,1.8008,1.8008,1.8008,1.8008,1.8008,1.791,1.7656,1.7637,1.7519,1.7256,1.7236,1.7236,1.7236,1.6816,1.6504,1.6328,1.6074,1.5937,1.5937,1.5937,1.5937,1.5937,1.5937,1.584,1.5674,1.5674,1.5566,1.5352,1.4874,1.451,1.4154,1.3666,1.3,1.2328,1.2826,1.2397,1.16,1.2081,1.1779,1.1045,1.1045,1.0863,1.0571,1.0207,1.0,0.98,0.9499,0.9276,0.9143,0.9025,0.8891,0.8804,0.8804,0.8804,0.8804,0.8804,0.8804,0.8804,0.8804,0.8804,0.8646,0.8209,0.8156,0.7883,0.7128,0.702,0.6799,0.6036,0.5928,0.5655,0.5003,0.4893,0.4893,0.4893,0.4893,0.4893,0.4893,0.4625,0.4519,0.4519,0.4519,0.4519,0.4519,0.4519,0.4294,0.379,0.3345,0.2565,0.1507,0.1507,0.1284,0.0838,0.056,0.0448,0.0392,0.0112,0.0,0.0,0.0,0.0,0.0,0.0,0.0,0.0,0.0,0.0,-0.0056,1.8144,1.8076,1.8008,1.8008,1.8008,1.8008,1.8008,1.8008,1.8008,1.8008,1.8008,1.8008,1.8008,1.8008,1.8008,1.8008,1.8008,1.8008,1.8008,1.8008,1.8008,1.8008,1.7646,1.7246,1.6855,1.6714,1.6665,1.6665,1.6665,1.6665,1.6665,1.6665,1.6514,1.6123,1.6123,1.5898,1.5527,1.5488,1.5048,1.4378,1.4341,1.3855,1.313,1.3191,1.313,1.3009,1.307,1.2573,1.1896,1.1896,1.1351,1.0634,1.0356,1.0269,1.0154,0.9865,0.9532,0.925,0.9196,0.9051,0.8838,0.8811,0.8804,0.8804,0.8804,0.8804,0.8804,0.8804,0.8804,0.8804,0.8804,0.8804,0.8593,0.7883,0.7777,0.7557,0.6804,0.6696,0.6421,0.5706,0.5597,0.5597,0.5487,0.5487,0.5542,0.5597,0.4948,0.457,0.457,0.4515,0.4519,0.4519,0.4519,0.4519,0.4519,0.4519,0.3735,0.2286,0.2286,0.2286,0.2174,0.1507,0.1174,0.1174,0.0504,0.0224,0.0168,0.0112,0.0112,0.0112,0.0,0.0,0.0,0.0,0.0,0.0,1.9044,1.8462,1.8008,1.8008,1.8008,1.8008,1.8008,1.8008,1.8008,1.8008,1.8008,1.8008,1.8008,1.8008,1.8008,1.8008,1.8008,1.8008,1.8008,1.8008,1.8008,1.8008,1.793,1.7832,1.7734,1.708,1.6665,1.6665,1.6665,1.6665,1.6665,1.6665,1.668,1.6592,1.6592,1.6533,1.6426,1.6074,1.5858,1.5648,1.5302,1.4688,1.4034,1.4628,1.4085,1.307,1.3726,1.3425,1.2757,1.2757,1.2205,1.1516,1.1443,1.1421,1.124,1.0282,0.998,0.9826,0.9309,0.9137,0.9037,0.8864,0.8804,0.8804,0.8804,0.8804,0.8804,0.8804,0.8804,0.8804,0.8804,0.8804,0.8752,0.8593,0.854,0.8321,0.7563,0.7456,0.7182,0.6475,0.6367,0.6145,0.5542,0.5487,0.576,0.6312,0.571,0.5273,0.5273,0.4787,0.4519,0.4519,0.4519,0.4519,0.4519,0.4519,0.4015,0.3065,0.3065,0.2732,0.2174,0.2009,0.1952,0.1952,0.1786,0.173,0.1675,0.1118,0.0838,0.0783,0.0224,0.0,0.0,0.0,0.0,0.0,1.9299,1.8596,1.8008,1.8008,1.8327,1.8462,1.8076,1.8337,1.8462,1.8076,1.8008,1.8008,1.8008,1.8008,1.8008,1.8008,1.8008,1.8008,1.8008,1.8008,1.8008,1.8008,1.8008,1.8008,1.8008,1.7568,1.7344,1.7344,1.7344,1.7344,1.7344,1.7344,1.7236,1.7041,1.7041,1.6924,1.6719,1.6484,1.6387,1.6357,1.6133,1.5657,1.5166,1.5594,1.5043,1.4213,1.4628,1.4273,1.3485,1.313,1.2704,1.2389,1.2389,1.2143,1.1673,1.1088,1.0519,1.0053,0.974,0.9396,0.915,0.9051,0.8911,0.8804,0.8804,0.8804,0.8804,0.8804,0.8804,0.8804,0.8804,0.8804,0.8804,0.8804,0.8804,0.8646,0.8262,0.8209,0.7937,0.7235,0.7128,0.6961,0.6573,0.6573,0.6686,0.7074,0.6416,0.5869,0.5542,0.5164,0.4842,0.4519,0.4519,0.4519,0.4519,0.4519,0.4294,0.3846,0.3846,0.3677,0.3289,0.2954,0.2732,0.273,0.2343,0.2174,0.2174,0.1786,0.1619,0.1563,0.1174,0.0838,0.0504,0.0504,0.028,0.0,1.9748,1.9044,1.8462,1.8462,1.9044,1.9243,1.8327,1.8854,1.8977,1.8144,1.8144,1.8144,1.8008,1.8008,1.8008,1.8008,1.8008,1.8008,1.8008,1.8008,1.8008,1.8008,1.8008,1.8008,1.8008,1.8008,1.8008,1.8008,1.8008,1.8008,1.8008,1.8008,1.7822,1.749,1.749,1.7295,1.6943,1.6875,1.6846,1.6836,1.6758,1.6514,1.6182,1.6182,1.5908,1.5527,1.5527,1.493,1.4145,1.3614,1.3312,1.3191,1.3191,1.2757,1.2197,1.2074,1.1218,1.0356,1.0302,0.9928,0.9527,0.9265,0.9167,0.9024,0.8818,0.8804,0.8804,0.8804,0.8804,0.8804,0.8804,0.8804,0.8804,0.8804,0.8804,0.8804,0.8804,0.8804,0.8586,0.7943,0.7777,0.7723,0.7883,0.7777,0.7777,0.7883,0.7182,0.6529,0.5923,0.576,0.5382,0.4677,0.468,0.4625,0.4519,0.4519,0.4519,0.4519,0.4519,0.4519,0.4463,0.3846,0.3566,0.3456,0.2843,0.2621,0.2565,0.2454,0.2397,0.2397,0.2232,0.184,0.1284,0.1174,0.0727,0.0168,2.1553,2.0846,2.0268,2.0268,2.0333,2.0139,1.9243,1.9233,1.8977,1.8144,1.8664,1.8854,1.8076,1.8008,1.8008,1.8008,1.8008,1.8008,1.8008,1.8008,1.8008,1.8008,1.8008,1.8008,1.8008,1.8008,1.8008,1.8008,1.8008,1.8008,1.8008,1.8008,1.7978,1.793,1.793,1.7891,1.7812,1.7451,1.7295,1.7266,1.6885,1.6699,1.6641,1.6641,1.6357,1.6037,1.6037,1.5245,1.4273,1.4874,1.4628,1.4025,1.4025,1.3965,1.3726,1.3061,1.2235,1.1522,1.1234,1.1093,1.0726,0.9527,0.9748,1.0012,0.9017,0.8804,0.8804,0.8804,0.8804,0.8804,0.8804,0.8804,0.8804,0.8804,0.8804,0.8804,0.8804,0.8804,0.8752,0.8646,0.8103,0.7937,0.8593,0.8049,0.7943,0.8586,0.7996,0.7503,0.7396,0.6799,0.6091,0.5378,0.5378,0.5109,0.4519,0.4519,0.4519,0.4519,0.4519,0.4519,0.4519,0.4405,0.4349,0.4349,0.4236,0.4184,0.4125,0.3456,0.3176,0.3178,0.2454,0.212,0.1953,0.134,0.1062,0.0838,2.1937,2.1175,2.059,2.059,2.0974,2.1037,2.0139,2.0462,2.0462,1.9562,1.9814,1.9879,1.9497,1.9044,1.8721,1.8721,1.8269,1.8008,1.8008,1.8008,1.8008,1.8008,1.8008,1.8008,1.8008,1.8008,1.8008,1.8008,1.8008,1.8008,1.8008,1.8008,1.8008,1.8008,1.8008,1.8008,1.7998,1.7812,1.7734,1.7715,1.7519,1.7305,1.709,1.709,1.6826,1.6406,1.6152,1.5592,1.4932,1.5294,1.5167,1.4864,1.4864,1.4569,1.4145,1.3786,1.3122,1.235,1.1715,1.1781,1.1702,1.0364,1.0544,1.0745,0.9635,0.9361,0.9263,0.8857,0.8804,0.8804,0.8804,0.8804,0.8804,0.8804,0.8804,0.8804,0.8804,0.8804,0.8804,0.8804,0.8533,0.8427,0.8752,0.848,0.8427,0.8752,0.848,0.8156,0.7723,0.7396,0.6853,0.6145,0.6091,0.5987,0.5664,0.5277,0.5054,0.5054,0.468,0.4519,0.4519,0.4519,0.4519,0.4519,0.4519,0.4519,0.446,0.4125,0.4012,0.3959,0.3624,0.3231,0.273,0.2009,0.173,0.1675]}]]